[[{"header":{"parameterUnit":"m.s-1","parameterCategory":1,"la1":31.0,"la2":29.5877,"lo1":-88.7671,"lo2":-86.6584,"dy":0.0162,"dx":0.0185,"nx":115,"ny":88,"refTime":"2023-10-22T18:00:00:Z","depth":0,"parameterNumber":2,"parameterNumberName":"U-component_of_WINDS"},"data":[0.0,0.0,0.0,0.0,0.0,0.0,0.0,0.0,0.0,0.0,0.0,0.0,0.0,0.0,0.0,0.0,0.0,0.0,0.0,0.0,0.0,0.0,0.0,0.0,0.0,0.0,0.0,0.0,0.0,0.0,0.0,0.0,0.0,0.0,0.0,0.0,0.0,0.0,0.0,0.0,0.0,0.0,0.0,0.0,0.0,0.0,0.0,0.0,0.0,0.0,0.0,0.0,0.0,0.0,0.0,0.0,0.0,0.0,0.0,0.0,0.0,0.0,0.0,0.0,0.0,0.0,0.0,0.0,0.0,0.0,0.0,0.0,0.0,0.0,0.0,0.0,0.0,0.0,0.0,0.0,0.0,0.0,0.0,0.0,0.0,0.0,0.0,0.0,0.0,0.0,0.0,0.0,0.0,0.0,0.0,0.0,0.0,0.0,0.0,0.0,0.0,0.0,0.0,0.0,0.0,0.0,0.0,0.0,0.0,0.0,0.0,0.0,0.0,0.0,0.0,0.0,0.0,0.0,0.0,0.0,0.0,0.0,0.0,0.0,0.0,0.0,0.0,0.0,0.0,0.0,0.0,0.0,0.0,0.0,0.0,0.0,0.0,0.0,0.0,0.0,0.0,0.0,0.0,0.0,0.0,0.0,0.0,0.0,0.0,0.0,0.0,0.0,0.0,0.0,0.0,0.0,0.0,0.0,0.0,0.0,0.0,0.0,0.0,0.0,0.0,0.0,0.0,0.0,0.0,0.0,0.0,0.0,0.0,0.0,0.0,0.0,0.0,0.0,0.0,0.0,0.0,0.0,0.0,0.0,0.0,0.0,0.0,0.0,0.0,0.0,0.0,0.0,0.0,0.0,0.0,0.0,0.0,0.0,0.0,0.0,0.0,0.0,0.0,0.0,0.0,0.0,0.0,0.0,0.0,0.0,0.0,0.0,0.0,0.0,0.0,0.0,0.0,0.0,0.0,0.0,0.0,0.0,0.0,0.0,0.0,0.0,0.0,0.0,0.0,0.0,0.0,0.0,0.0,0.0,0.0,0.0,0.0,0.0,0.0,0.0,0.0,0.0,0.0,0.0,0.0,0.0,0.0,0.0,0.0,0.0,0.0,0.0,0.0,0.0,0.0,0.0,0.0,0.0,0.0,0.0,0.0,0.0,0.0,0.0,0.0,0.0,0.0,0.0,0.0,0.0,0.0,0.0,0.0,0.0,0.0,0.0,0.0,0.0,0.0,0.0,0.0,0.0,0.0,0.0,0.0,0.0,0.0,0.0,0.0,0.0,0.0,0.0,0.0,0.0,0.0,0.0,0.0,0.0,0.0,0.0,0.0,0.0,0.0,0.0,0.0,0.0,0.0,0.0,0.0,0.0,0.0,0.0,0.0,0.0,0.0,0.0,0.0,0.0,0.0,0.0,0.0,0.0,0.0,0.0,0.0,0.0,0.0,0.0,0.0,0.0,0.0,0.0,0.0,0.0,0.0,0.0,0.0,0.0,0.0,0.0,0.0,0.0,0.0,0.0,0.0,0.0,0.0,0.0,0.0,0.0,0.0,0.0,0.0,0.0,0.0,0.0,0.0,0.0,0.0,0.0,0.0,0.0,0.0,0.0,0.0,0.0,0.0,0.0,0.0,0.0,0.0,0.0,0.0,0.0,0.0,0.0,0.0,0.0,0.0,0.0,0.0,0.0,0.0,0.0,0.0,0.0,0.0,0.0,0.0,0.0,0.0,0.0,0.0,0.0,0.0,0.0,0.0,0.0,0.0,0.0,0.0,0.0,0.0,0.0,0.0,0.0,0.0,0.0,0.0,0.0,0.0,0.0,0.0,0.0,0.0,0.0,0.0,0.0,0.0,0.0,0.0,0.0,0.0,0.0,0.0,0.0,0.0,0.0,0.0,0.0,0.0,0.0,0.0,0.0,0.0,0.0,0.0,0.0,0.0,0.0,0.0,0.0,0.0,0.0,0.0,0.0,0.0,0.0,0.0,0.0,0.0,0.0,0.0,0.0,0.0,0.0,0.0,0.0,0.0,0.0,0.0,0.0,0.0,0.0,0.0,0.0,0.0,0.0,0.0,0.0,0.0,0.0,0.0,0.0,0.0,0.0,0.0,0.0,0.0,0.0,0.0,0.0,0.0,0.0,0.0,0.0,0.0,0.0,0.0,0.0,0.0,0.0,0.0,0.0,0.0,0.0,0.0,0.0,0.0,0.0,0.0,0.0,0.0,0.0,0.0,0.0,0.0,0.0,0.0,0.0,0.0,0.0,0.0,0.0,0.0,0.0,0.0,0.0,0.0,0.0,0.0,0.0,0.0,0.0,0.0,0.0,0.0,0.0,0.0,0.0,0.0,0.0,0.0,0.0,0.0,0.0,0.0,0.0,0.0,0.0,0.0,0.0,0.0,0.0,0.0,0.0,0.0,0.0,0.0,0.0,0.0,0.0,0.0,0.0,0.0,0.0,0.0,0.0,0.0,0.0,0.0,0.0,0.0,0.0,0.0,0.0,0.0,0.0,0.0,0.0,0.0,0.0,0.0,0.0,0.0,0.0,0.0,0.0,0.0,0.0,0.0,0.0,0.0,0.0,0.0,0.0,0.0,0.0,0.0,0.0,0.0,0.0,0.0,0.0,0.0,0.0,0.0,0.0,0.0,0.0,0.0,0.0,0.0,0.0,0.0,0.0,0.0,0.0,0.0,0.0,0.0,0.0,0.0,0.0,0.0,0.0,0.0,0.0,0.0,0.0,0.0,0.0,0.0,0.0,0.0,0.0,0.0,0.0,0.0,0.0,0.0,0.0,0.0,0.0,0.0,0.0,0.0,0.0,0.0,0.0,0.0,0.0,0.0,0.0,0.0,0.0,0.0,0.0,0.0,0.0,0.0,0.0,0.0,0.0,0.0,0.0,0.0,0.0,0.0,0.0,0.0,0.0,0.0,0.0,0.0,0.0,0.0,0.0,0.0,0.0,0.0,0.0,0.0,0.0,0.0,0.0,0.0,0.0,0.0,0.0,0.0,0.0,0.0,0.0,0.0,0.0,0.0,0.0,0.0,0.0,0.0,0.0,0.0,0.0,0.0,0.0,0.0,0.0,0.0,0.0,0.0,0.0,0.0,0.0,0.0,0.0,0.0,0.0,0.0,0.0,0.0,0.0,0.0,0.0,0.0,0.0,0.0,0.0,0.0,0.0,0.0,0.0,0.0,0.0,0.0,0.0,0.0,0.0,0.0,0.0,0.0,0.0,0.0,0.0,0.0,0.0,0.0,0.0,0.0,0.0,0.0,0.0,0.0,0.0,0.0,0.0,0.0,0.0,0.0,0.0,0.0,0.0,0.0,0.0,0.0,0.0,0.0,0.0,0.0,0.0,0.0,0.0,0.0,0.0,0.0,0.0,0.0,0.0,0.0,0.0,0.0,0.0,0.0,0.0,0.0,0.0,0.0,0.0,0.0,0.0,0.0,0.0,0.0,0.0,0.0,0.0,0.0,0.0,0.0,0.0,0.0,0.0,0.0,0.0,0.0,0.0,0.0,0.0,0.0,0.0,0.0,0.0,0.0,0.0,0.0,0.0,0.0,0.0,0.0,0.0,0.0,0.0,0.0,0.0,0.0,0.0,0.0,0.0,0.0,0.0,0.0,0.0,0.0,0.0,0.0,0.0,0.0,0.0,0.0,0.0,0.0,0.0,0.0,0.0,0.0,0.0,0.0,0.0,0.0,0.0,0.0,0.0,0.0,0.0,0.0,0.0,0.0,0.0,0.0,0.0,0.0,0.0,0.0,0.0,0.0,0.0,0.0,0.0,0.0,0.0,0.0,0.0,0.0,0.0,0.0,0.0,0.0,0.0,0.0,0.0,0.0,0.0,0.0,0.0,0.0,0.0,0.0,0.0,0.0,0.0,0.0,0.0,0.0,0.0,0.0,0.0,0.0,0.0,0.0,0.0,0.0,0.0,0.0,0.0,0.0,0.0,0.0,0.0,0.0,0.0,0.0,0.0,0.0,0.0,0.0,0.0,0.0,0.0,0.0,0.0,0.0,0.0,0.0,0.0,0.0,0.0,0.0,0.0,0.0,0.0,0.0,0.0,0.0,0.0,0.0,0.0,0.0,0.0,0.0,0.0,0.0,0.0,0.0,0.0,0.0,0.0,0.0,0.0,0.0,0.0,0.0,0.0,0.0,0.0,0.0,0.0,0.0,0.0,0.0,0.0,0.0,0.0,0.0,0.0,0.0,0.0,0.0,0.0,0.0,0.0,0.0,0.0,0.0,0.0,0.0,0.0,-2.1217,0.0,0.0,0.0,0.0,0.0,0.0,0.0,0.0,0.0,0.0,0.0,0.0,0.0,0.0,0.0,0.0,0.0,0.0,0.0,0.0,0.0,0.0,0.0,0.0,0.0,0.0,0.0,0.0,0.0,0.0,0.0,0.0,0.0,0.0,0.0,0.0,0.0,0.0,0.0,0.0,0.0,0.0,0.0,0.0,0.0,0.0,0.0,0.0,0.0,0.0,0.0,0.0,0.0,0.0,0.0,0.0,0.0,0.0,0.0,0.0,0.0,0.0,0.0,0.0,0.0,0.0,0.0,0.0,0.0,0.0,0.0,0.0,0.0,0.0,0.0,0.0,0.0,0.0,0.0,0.0,0.0,0.0,0.0,0.0,0.0,0.0,0.0,0.0,0.0,0.0,0.0,0.0,0.0,0.0,0.0,0.0,0.0,0.0,0.0,0.0,0.0,0.0,0.0,0.0,0.0,0.0,0.0,0.0,0.0,0.0,-2.1368,-2.1289,-2.1226,-2.1201,-2.1201,0.0,0.0,0.0,0.0,0.0,0.0,0.0,0.0,0.0,0.0,0.0,0.0,0.0,0.0,0.0,0.0,0.0,0.0,0.0,0.0,0.0,0.0,0.0,0.0,0.0,0.0,0.0,0.0,0.0,0.0,0.0,0.0,0.0,0.0,0.0,0.0,0.0,0.0,0.0,0.0,0.0,0.0,0.0,0.0,0.0,0.0,0.0,0.0,0.0,0.0,0.0,0.0,0.0,0.0,0.0,0.0,0.0,0.0,0.0,0.0,0.0,0.0,0.0,0.0,0.0,0.0,0.0,0.0,0.0,0.0,0.0,0.0,0.0,0.0,0.0,0.0,0.0,0.0,0.0,0.0,0.0,0.0,0.0,0.0,0.0,0.0,0.0,0.0,0.0,0.0,0.0,0.0,0.0,0.0,0.0,0.0,0.0,0.0,0.0,0.0,0.0,0.0,0.0,0.0,0.0,0.0,0.0,0.0,0.0,0.0,0.0,0.0,-2.1247,-2.1201,-2.1178,0.0,0.0,0.0,0.0,0.0,0.0,0.0,0.0,0.0,0.0,0.0,0.0,0.0,0.0,0.0,0.0,0.0,0.0,0.0,0.0,0.0,0.0,0.0,0.0,0.0,0.0,0.0,0.0,0.0,0.0,0.0,0.0,0.0,0.0,0.0,0.0,0.0,0.0,0.0,0.0,0.0,0.0,0.0,0.0,0.0,0.0,0.0,0.0,0.0,0.0,0.0,0.0,0.0,0.0,0.0,0.0,0.0,0.0,0.0,0.0,0.0,0.0,0.0,0.0,0.0,0.0,0.0,0.0,0.0,0.0,0.0,0.0,0.0,0.0,0.0,0.0,0.0,0.0,0.0,0.0,0.0,0.0,0.0,0.0,0.0,0.0,0.0,0.0,0.0,0.0,0.0,0.0,0.0,0.0,0.0,0.0,0.0,0.0,0.0,0.0,0.0,0.0,0.0,0.0,0.0,0.0,0.0,0.0,0.0,0.0,-2.1842,-2.1842,-2.1415,0.0,-2.1201,0.0,0.0,0.0,0.0,0.0,0.0,0.0,0.0,0.0,0.0,0.0,0.0,0.0,0.0,0.0,0.0,0.0,0.0,0.0,0.0,0.0,0.0,0.0,0.0,0.0,0.0,0.0,0.0,0.0,0.0,0.0,0.0,0.0,0.0,0.0,0.0,0.0,0.0,0.0,0.0,0.0,0.0,0.0,0.0,0.0,0.0,0.0,0.0,0.0,0.0,0.0,0.0,0.0,0.0,0.0,0.0,0.0,0.0,0.0,0.0,0.0,0.0,0.0,0.0,0.0,0.0,0.0,0.0,0.0,0.0,0.0,0.0,0.0,0.0,0.0,0.0,0.0,0.0,0.0,0.0,0.0,0.0,0.0,0.0,0.0,0.0,0.0,0.0,0.0,0.0,0.0,0.0,0.0,0.0,0.0,0.0,0.0,0.0,0.0,0.0,0.0,0.0,0.0,0.0,0.0,0.0,0.0,0.0,0.0,0.0,-2.2026,-2.2009,-2.1551,-2.1209,0.0,0.0,0.0,0.0,0.0,0.0,0.0,0.0,0.0,0.0,0.0,0.0,0.0,0.0,0.0,0.0,0.0,0.0,0.0,0.0,0.0,0.0,0.0,0.0,0.0,0.0,0.0,0.0,0.0,0.0,0.0,0.0,0.0,0.0,0.0,0.0,0.0,0.0,0.0,0.0,0.0,0.0,0.0,0.0,0.0,0.0,0.0,0.0,0.0,0.0,0.0,0.0,0.0,0.0,0.0,0.0,0.0,0.0,0.0,0.0,0.0,0.0,0.0,0.0,0.0,0.0,0.0,0.0,0.0,0.0,0.0,0.0,0.0,0.0,0.0,0.0,0.0,0.0,0.0,0.0,0.0,0.0,0.0,0.0,0.0,0.0,0.0,0.0,0.0,0.0,0.0,0.0,0.0,0.0,0.0,0.0,0.0,0.0,0.0,0.0,0.0,0.0,0.0,0.0,0.0,0.0,0.0,0.0,0.0,0.0,-2.262,-2.2169,-2.1918,-2.1582,-2.1222,-2.0873,0.0,0.0,0.0,0.0,0.0,0.0,0.0,0.0,0.0,0.0,0.0,0.0,0.0,0.0,0.0,0.0,0.0,0.0,0.0,0.0,0.0,0.0,0.0,0.0,0.0,0.0,0.0,0.0,0.0,0.0,0.0,0.0,0.0,0.0,0.0,0.0,0.0,0.0,0.0,0.0,0.0,0.0,0.0,0.0,0.0,0.0,0.0,0.0,0.0,0.0,0.0,0.0,0.0,0.0,0.0,0.0,0.0,0.0,0.0,0.0,0.0,0.0,0.0,0.0,0.0,0.0,0.0,0.0,0.0,0.0,0.0,0.0,0.0,0.0,0.0,0.0,0.0,0.0,0.0,0.0,0.0,0.0,0.0,0.0,0.0,0.0,0.0,0.0,0.0,0.0,0.0,0.0,0.0,0.0,0.0,0.0,0.0,0.0,0.0,0.0,0.0,0.0,0.0,0.0,0.0,0.0,0.0,0.0,-2.3548,-2.3023,-2.2331,-2.1476,-2.1425,-2.1173,0.0,0.0,0.0,0.0,0.0,0.0,0.0,0.0,0.0,0.0,0.0,0.0,0.0,0.0,0.0,0.0,0.0,0.0,0.0,0.0,0.0,0.0,0.0,0.0,0.0,0.0,0.0,0.0,0.0,0.0,0.0,0.0,0.0,0.0,0.0,0.0,0.0,0.0,0.0,0.0,0.0,0.0,0.0,0.0,0.0,0.0,0.0,0.0,0.0,0.0,0.0,0.0,0.0,0.0,0.0,0.0,0.0,0.0,0.0,0.0,0.0,0.0,0.0,0.0,0.0,0.0,0.0,0.0,0.0,0.0,0.0,0.0,0.0,0.0,0.0,0.0,0.0,0.0,0.0,0.0,0.0,0.0,0.0,0.0,0.0,0.0,0.0,0.0,0.0,0.0,0.0,0.0,0.0,0.0,0.0,0.0,0.0,0.0,0.0,0.0,0.0,0.0,0.0,0.0,0.0,0.0,0.0,0.0,0.0,-2.302,-2.2697,-2.2103,-2.1194,-2.1151,-2.0851,0.0,0.0,0.0,0.0,0.0,0.0,0.0,0.0,0.0,0.0,0.0,0.0,0.0,0.0,0.0,0.0,0.0,0.0,0.0,0.0,0.0,0.0,0.0,0.0,0.0,0.0,0.0,0.0,0.0,0.0,0.0,0.0,0.0,0.0,0.0,0.0,0.0,0.0,0.0,0.0,0.0,0.0,0.0,0.0,0.0,0.0,0.0,0.0,0.0,0.0,0.0,0.0,0.0,0.0,0.0,0.0,0.0,0.0,0.0,0.0,0.0,0.0,0.0,0.0,0.0,0.0,0.0,0.0,0.0,0.0,0.0,0.0,0.0,0.0,0.0,0.0,0.0,0.0,0.0,0.0,0.0,0.0,0.0,0.0,0.0,0.0,0.0,0.0,0.0,0.0,0.0,0.0,0.0,0.0,0.0,0.0,0.0,0.0,0.0,0.0,0.0,0.0,0.0,0.0,0.0,0.0,0.0,0.0,0.0,-2.2515,0.0,-2.1893,-2.1081,-2.0871,-2.0498,0.0,0.0,0.0,0.0,0.0,0.0,0.0,0.0,0.0,0.0,0.0,0.0,0.0,0.0,0.0,0.0,0.0,0.0,0.0,0.0,0.0,0.0,0.0,0.0,0.0,0.0,0.0,0.0,0.0,0.0,0.0,0.0,0.0,0.0,0.0,0.0,0.0,0.0,0.0,0.0,0.0,0.0,0.0,0.0,0.0,0.0,0.0,0.0,0.0,0.0,0.0,0.0,0.0,0.0,0.0,0.0,0.0,0.0,0.0,0.0,0.0,0.0,0.0,0.0,0.0,0.0,0.0,0.0,0.0,0.0,0.0,0.0,0.0,0.0,0.0,0.0,0.0,0.0,0.0,0.0,0.0,0.0,0.0,0.0,0.0,0.0,0.0,0.0,0.0,0.0,0.0,0.0,0.0,0.0,0.0,0.0,0.0,0.0,0.0,0.0,0.0,0.0,0.0,0.0,0.0,0.0,0.0,0.0,-2.2311,-2.2101,-2.2082,-2.1739,-2.1114,-2.064,-2.0168,0.0,0.0,0.0,0.0,0.0,0.0,0.0,0.0,0.0,0.0,0.0,0.0,0.0,0.0,0.0,0.0,0.0,0.0,0.0,0.0,0.0,0.0,0.0,0.0,0.0,0.0,0.0,0.0,0.0,0.0,0.0,0.0,0.0,0.0,0.0,0.0,0.0,0.0,0.0,0.0,0.0,0.0,0.0,0.0,0.0,0.0,0.0,0.0,0.0,0.0,0.0,0.0,0.0,0.0,0.0,0.0,0.0,0.0,0.0,0.0,0.0,0.0,0.0,0.0,0.0,0.0,0.0,0.0,0.0,0.0,0.0,0.0,0.0,0.0,0.0,0.0,0.0,0.0,0.0,0.0,0.0,0.0,0.0,0.0,0.0,0.0,0.0,0.0,0.0,0.0,0.0,0.0,0.0,0.0,0.0,0.0,0.0,0.0,0.0,0.0,0.0,0.0,0.0,0.0,0.0,0.0,0.0,0.0,0.0,-2.1493,-2.1493,-2.1231,-2.0709,-2.0262,-1.9837,0.0,0.0,0.0,0.0,0.0,0.0,0.0,0.0,0.0,0.0,0.0,0.0,0.0,0.0,0.0,0.0,0.0,0.0,0.0,0.0,0.0,0.0,0.0,0.0,0.0,0.0,0.0,0.0,0.0,0.0,0.0,0.0,0.0,0.0,0.0,0.0,0.0,0.0,0.0,0.0,0.0,0.0,0.0,0.0,0.0,0.0,0.0,0.0,0.0,0.0,0.0,0.0,0.0,0.0,0.0,0.0,0.0,0.0,0.0,0.0,0.0,0.0,0.0,0.0,0.0,0.0,0.0,0.0,0.0,0.0,0.0,0.0,0.0,0.0,0.0,0.0,0.0,0.0,0.0,0.0,0.0,0.0,0.0,0.0,0.0,0.0,0.0,0.0,0.0,0.0,0.0,0.0,0.0,0.0,0.0,0.0,0.0,0.0,0.0,0.0,0.0,0.0,0.0,0.0,0.0,0.0,0.0,0.0,0.0,-2.1233,-2.1251,-2.1051,-2.0537,-2.0138,-1.9664,-1.9118,0.0,0.0,0.0,0.0,0.0,0.0,0.0,0.0,0.0,0.0,0.0,0.0,0.0,0.0,0.0,0.0,0.0,0.0,0.0,0.0,0.0,0.0,0.0,0.0,0.0,0.0,0.0,0.0,0.0,0.0,0.0,0.0,0.0,0.0,0.0,0.0,0.0,0.0,0.0,0.0,0.0,0.0,0.0,0.0,0.0,0.0,0.0,0.0,0.0,0.0,0.0,0.0,0.0,0.0,0.0,0.0,0.0,0.0,0.0,0.0,0.0,0.0,0.0,0.0,0.0,0.0,0.0,0.0,0.0,0.0,0.0,0.0,0.0,0.0,0.0,0.0,0.0,0.0,0.0,0.0,0.0,0.0,0.0,0.0,0.0,0.0,0.0,0.0,0.0,0.0,0.0,0.0,0.0,0.0,0.0,0.0,0.0,0.0,0.0,0.0,0.0,0.0,0.0,0.0,0.0,0.0,0.0,0.0,-2.1228,-2.1429,-2.1233,-2.0644,-2.0138,-1.9615,0.0,0.0,0.0,0.0,0.0,0.0,0.0,0.0,0.0,0.0,0.0,0.0,0.0,0.0,0.0,0.0,0.0,0.0,0.0,0.0,0.0,0.0,0.0,0.0,0.0,0.0,0.0,0.0,0.0,0.0,0.0,0.0,0.0,0.0,0.0,0.0,0.0,0.0,0.0,0.0,0.0,0.0,0.0,0.0,0.0,0.0,0.0,0.0,0.0,0.0,0.0,0.0,0.0,0.0,0.0,0.0,0.0,0.0,0.0,0.0,0.0,0.0,0.0,0.0,0.0,0.0,0.0,0.0,0.0,0.0,0.0,0.0,0.0,0.0,0.0,0.0,0.0,0.0,0.0,0.0,0.0,0.0,0.0,0.0,0.0,0.0,0.0,0.0,0.0,0.0,0.0,0.0,0.0,0.0,0.0,0.0,0.0,0.0,0.0,0.0,0.0,0.0,0.0,0.0,0.0,0.0,0.0,0.0,0.0,-2.164,-2.1685,-2.1425,-2.0835,-2.0234,-1.9545,0.0,0.0,0.0,0.0,0.0,0.0,0.0,0.0,0.0,0.0,0.0,0.0,0.0,0.0,0.0,0.0,0.0,0.0,0.0,0.0,0.0,0.0,0.0,0.0,0.0,0.0,0.0,0.0,0.0,0.0,0.0,0.0,0.0,0.0,0.0,0.0,0.0,0.0,0.0,0.0,0.0,0.0,0.0,0.0,0.0,0.0,0.0,0.0,0.0,0.0,0.0,0.0,0.0,0.0,0.0,0.0,0.0,0.0,0.0,0.0,0.0,0.0,0.0,0.0,0.0,0.0,0.0,0.0,0.0,0.0,0.0,0.0,0.0,0.0,0.0,0.0,0.0,0.0,0.0,0.0,0.0,0.0,0.0,0.0,0.0,0.0,0.0,0.0,0.0,0.0,0.0,0.0,0.0,0.0,0.0,0.0,0.0,0.0,0.0,0.0,0.0,0.0,0.0,0.0,0.0,0.0,0.0,0.0,-2.223,-2.2057,-2.2139,-2.1938,-2.1425,-2.0644,-1.977,0.0,0.0,0.0,0.0,0.0,0.0,0.0,0.0,0.0,0.0,0.0,0.0,0.0,0.0,0.0,0.0,0.0,0.0,0.0,0.0,0.0,0.0,0.0,0.0,0.0,0.0,0.0,0.0,0.0,0.0,0.0,0.0,0.0,0.0,0.0,0.0,0.0,0.0,0.0,0.0,0.0,0.0,0.0,0.0,0.0,0.0,0.0,0.0,0.0,0.0,0.0,0.0,0.0,0.0,0.0,0.0,0.0,0.0,0.0,0.0,0.0,0.0,0.0,0.0,0.0,0.0,0.0,0.0,0.0,0.0,0.0,0.0,0.0,0.0,0.0,0.0,0.0,0.0,0.0,0.0,0.0,0.0,0.0,0.0,0.0,0.0,0.0,0.0,0.0,0.0,0.0,0.0,0.0,0.0,0.0,0.0,0.0,0.0,0.0,0.0,0.0,0.0,0.0,0.0,0.0,0.0,0.0,0.0,-2.2659,-2.234,-2.246,-2.2347,-2.198,-2.1058,-2.0105,0.0,0.0,0.0,0.0,0.0,0.0,0.0,0.0,0.0,0.0,0.0,0.0,0.0,0.0,0.0,0.0,0.0,0.0,0.0,0.0,0.0,0.0,0.0,0.0,0.0,0.0,0.0,0.0,0.0,0.0,0.0,0.0,0.0,0.0,0.0,0.0,0.0,0.0,0.0,0.0,0.0,0.0,0.0,0.0,0.0,0.0,0.0,0.0,0.0,0.0,0.0,0.0,0.0,0.0,0.0,0.0,0.0,0.0,0.0,0.0,0.0,0.0,0.0,0.0,0.0,0.0,0.0,0.0,0.0,0.0,0.0,0.0,0.0,0.0,0.0,0.0,0.0,0.0,0.0,0.0,0.0,0.0,0.0,0.0,0.0,0.0,0.0,0.0,0.0,0.0,0.0,0.0,0.0,0.0,0.0,0.0,0.0,0.0,0.0,0.0,0.0,0.0,0.0,0.0,0.0,0.0,0.0,0.0,-2.1545,-2.1756,-2.1518,-2.1334,-2.1221,-2.0765,-2.0131,0.0,0.0,0.0,0.0,0.0,0.0,0.0,0.0,0.0,0.0,0.0,0.0,0.0,0.0,0.0,0.0,0.0,0.0,0.0,0.0,0.0,0.0,0.0,0.0,0.0,0.0,0.0,0.0,0.0,0.0,0.0,0.0,0.0,0.0,0.0,0.0,0.0,0.0,0.0,0.0,0.0,0.0,0.0,0.0,0.0,0.0,0.0,0.0,-1.6224,0.0,0.0,0.0,0.0,0.0,0.0,0.0,0.0,0.0,0.0,0.0,0.0,0.0,0.0,0.0,0.0,0.0,0.0,0.0,0.0,0.0,0.0,0.0,0.0,0.0,0.0,0.0,0.0,0.0,0.0,0.0,0.0,0.0,0.0,0.0,0.0,0.0,0.0,0.0,0.0,0.0,0.0,0.0,0.0,0.0,0.0,0.0,0.0,0.0,0.0,0.0,0.0,0.0,0.0,0.0,0.0,0.0,0.0,0.0,-2.1564,-2.2091,-2.1559,-2.1458,-2.1736,-2.0734,-1.9874,0.0,0.0,0.0,0.0,0.0,0.0,0.0,0.0,0.0,0.0,0.0,0.0,0.0,0.0,0.0,0.0,0.0,0.0,0.0,0.0,0.0,0.0,0.0,0.0,0.0,0.0,0.0,0.0,0.0,0.0,0.0,0.0,0.0,0.0,0.0,0.0,0.0,0.0,0.0,0.0,0.0,0.0,0.0,0.0,0.0,0.0,0.0,0.0,0.0,0.0,0.0,0.0,0.0,0.0,0.0,0.0,0.0,0.0,0.0,0.0,0.0,0.0,0.0,0.0,0.0,0.0,0.0,0.0,0.0,0.0,0.0,0.0,0.0,0.0,0.0,0.0,0.0,0.0,0.0,0.0,0.0,0.0,0.0,0.0,0.0,0.0,0.0,0.0,0.0,0.0,0.0,0.0,0.0,0.0,0.0,0.0,0.0,0.0,0.0,0.0,0.0,0.0,0.0,0.0,0.0,0.0,0.0,-2.1228,-2.1748,-2.2344,-2.1737,-2.1684,-2.2232,-2.0604,-1.9501,-1.9099,0.0,0.0,0.0,0.0,0.0,0.0,0.0,0.0,0.0,0.0,0.0,0.0,0.0,0.0,0.0,0.0,0.0,0.0,0.0,0.0,0.0,0.0,0.0,0.0,0.0,0.0,0.0,0.0,0.0,0.0,0.0,0.0,0.0,0.0,0.0,0.0,0.0,0.0,-1.6939,-1.7104,0.0,0.0,0.0,0.0,0.0,0.0,0.0,0.0,-1.6458,0.0,0.0,0.0,0.0,0.0,0.0,0.0,0.0,0.0,0.0,0.0,0.0,0.0,0.0,0.0,0.0,0.0,0.0,0.0,0.0,0.0,0.0,0.0,0.0,0.0,0.0,0.0,0.0,0.0,0.0,0.0,0.0,0.0,0.0,0.0,0.0,0.0,0.0,0.0,0.0,0.0,0.0,0.0,0.0,0.0,0.0,0.0,0.0,0.0,0.0,0.0,0.0,0.0,0.0,0.0,0.0,-1.9847,-2.0436,-2.086,-2.1001,-2.0583,-2.0416,-2.0499,-1.9601,-1.8973,-1.8615,0.0,0.0,0.0,0.0,0.0,0.0,0.0,0.0,0.0,0.0,0.0,0.0,0.0,0.0,0.0,0.0,0.0,0.0,0.0,0.0,0.0,0.0,0.0,0.0,0.0,0.0,0.0,0.0,0.0,0.0,0.0,0.0,0.0,0.0,0.0,0.0,0.0,0.0,0.0,-1.6848,-1.7081,0.0,0.0,0.0,0.0,0.0,0.0,0.0,0.0,-1.7196,0.0,0.0,0.0,0.0,0.0,0.0,0.0,0.0,0.0,0.0,0.0,0.0,0.0,0.0,0.0,0.0,0.0,0.0,0.0,0.0,0.0,0.0,0.0,0.0,0.0,0.0,0.0,0.0,0.0,0.0,0.0,0.0,0.0,0.0,0.0,0.0,0.0,0.0,0.0,0.0,0.0,0.0,0.0,0.0,0.0,0.0,0.0,0.0,0.0,0.0,0.0,0.0,0.0,0.0,0.0,-1.9843,-2.0166,-2.0553,-2.0924,-2.057,-2.0471,-2.066,-1.9754,-1.9089,0.0,0.0,0.0,0.0,0.0,0.0,0.0,0.0,0.0,0.0,0.0,0.0,0.0,0.0,0.0,0.0,0.0,0.0,0.0,0.0,0.0,0.0,0.0,0.0,0.0,0.0,0.0,0.0,0.0,0.0,0.0,0.0,0.0,0.0,0.0,0.0,0.0,0.0,0.0,0.0,-1.7022,-1.729,-1.7467,0.0,0.0,0.0,0.0,0.0,0.0,-1.7661,-1.7642,0.0,0.0,0.0,0.0,0.0,0.0,0.0,0.0,0.0,0.0,0.0,0.0,0.0,0.0,0.0,0.0,0.0,0.0,0.0,0.0,0.0,0.0,0.0,0.0,0.0,0.0,0.0,0.0,0.0,0.0,0.0,0.0,0.0,0.0,0.0,0.0,0.0,0.0,0.0,0.0,0.0,0.0,0.0,0.0,0.0,0.0,0.0,0.0,0.0,0.0,0.0,0.0,0.0,0.0,0.0,-2.0123,-2.0221,-2.0548,-2.1097,-2.0843,-2.0737,-2.09,-1.9984,-1.9242,0.0,0.0,0.0,0.0,0.0,0.0,0.0,0.0,0.0,0.0,0.0,0.0,0.0,0.0,0.0,0.0,0.0,0.0,0.0,0.0,0.0,0.0,0.0,0.0,0.0,0.0,0.0,0.0,0.0,0.0,0.0,0.0,0.0,0.0,0.0,0.0,0.0,0.0,0.0,0.0,0.0,-1.7528,-1.7687,-1.7723,0.0,0.0,0.0,0.0,-1.7795,-1.7797,0.0,0.0,0.0,0.0,0.0,0.0,0.0,0.0,0.0,0.0,0.0,0.0,0.0,0.0,0.0,0.0,0.0,0.0,0.0,0.0,0.0,0.0,0.0,0.0,0.0,0.0,0.0,0.0,0.0,0.0,0.0,0.0,0.0,0.0,0.0,0.0,0.0,0.0,0.0,0.0,0.0,0.0,0.0,0.0,0.0,0.0,0.0,0.0,0.0,0.0,0.0,0.0,0.0,0.0,0.0,0.0,-2.0316,-2.0667,-2.0842,-2.0922,-2.089,-2.0587,-2.0062,-1.9622,-1.8959,0.0,0.0,0.0,0.0,0.0,0.0,0.0,0.0,0.0,0.0,0.0,0.0,0.0,0.0,0.0,0.0,0.0,0.0,0.0,0.0,0.0,0.0,0.0,0.0,0.0,0.0,0.0,0.0,0.0,0.0,0.0,0.0,0.0,0.0,0.0,0.0,0.0,0.0,0.0,0.0,0.0,-1.7536,-1.8367,-1.8449,-1.8449,0.0,0.0,-1.8493,-1.7906,-1.7784,0.0,0.0,0.0,0.0,0.0,0.0,0.0,0.0,0.0,0.0,0.0,0.0,0.0,0.0,0.0,0.0,0.0,0.0,0.0,0.0,0.0,0.0,0.0,0.0,0.0,0.0,0.0,0.0,0.0,0.0,0.0,0.0,0.0,0.0,0.0,0.0,0.0,0.0,0.0,0.0,0.0,0.0,0.0,0.0,0.0,0.0,0.0,0.0,0.0,0.0,0.0,0.0,0.0,0.0,0.0,-1.9213,-1.967,-2.0157,-2.0343,-2.0157,-2.0353,-2.0214,-1.9732,-1.943,-1.8831,0.0,0.0,0.0,0.0,0.0,0.0,0.0,0.0,0.0,0.0,0.0,0.0,0.0,0.0,0.0,0.0,0.0,0.0,0.0,0.0,0.0,0.0,0.0,0.0,0.0,0.0,0.0,0.0,0.0,0.0,0.0,0.0,0.0,0.0,0.0,0.0,0.0,0.0,0.0,0.0,0.0,0.0,-1.8621,-1.871,0.0,0.0,0.0,-1.8777,-1.8576,0.0,0.0,0.0,0.0,0.0,0.0,0.0,0.0,0.0,0.0,0.0,0.0,0.0,0.0,0.0,0.0,0.0,0.0,0.0,0.0,0.0,0.0,0.0,0.0,0.0,0.0,0.0,0.0,0.0,0.0,0.0,0.0,0.0,0.0,0.0,0.0,0.0,0.0,0.0,0.0,0.0,0.0,0.0,0.0,0.0,0.0,0.0,0.0,0.0,0.0,0.0,0.0,0.0,0.0,0.0,0.0,0.0,-1.9279,-1.9832,-1.9999,-1.9872,-2.0086,-2.0051,-1.9613,-1.9277,0.0,0.0,0.0,0.0,0.0,0.0,0.0,0.0,0.0,0.0,0.0,0.0,0.0,0.0,0.0,0.0,0.0,0.0,0.0,0.0,0.0,0.0,0.0,0.0,0.0,0.0,0.0,-1.3933,0.0,0.0,0.0,0.0,0.0,0.0,0.0,0.0,0.0,0.0,0.0,0.0,0.0,0.0,-1.8166,-1.8767,-1.8796,-1.8817,0.0,0.0,-1.8871,-1.8926,-1.8625,-1.8461,0.0,0.0,0.0,0.0,0.0,0.0,0.0,0.0,0.0,0.0,0.0,0.0,0.0,0.0,0.0,0.0,0.0,0.0,0.0,0.0,0.0,0.0,0.0,0.0,0.0,0.0,0.0,0.0,0.0,0.0,0.0,0.0,0.0,0.0,0.0,0.0,0.0,0.0,0.0,0.0,0.0,0.0,0.0,0.0,0.0,0.0,0.0,0.0,0.0,0.0,0.0,0.0,0.0,0.0,0.0,-1.9726,-1.9993,-2.0239,-2.0513,-2.0544,-2.0254,-1.9628,-1.9252,-1.8749,0.0,0.0,0.0,0.0,0.0,0.0,0.0,0.0,0.0,0.0,0.0,0.0,0.0,0.0,0.0,0.0,0.0,0.0,0.0,0.0,0.0,0.0,0.0,0.0,0.0,0.0,0.0,0.0,0.0,0.0,0.0,0.0,0.0,0.0,0.0,0.0,0.0,0.0,0.0,0.0,0.0,-1.8311,-1.8913,-1.8762,-1.8667,0.0,0.0,-1.8891,-1.8587,-1.8667,-1.878,-1.8801,0.0,0.0,0.0,0.0,0.0,0.0,0.0,0.0,0.0,0.0,0.0,0.0,0.0,0.0,0.0,0.0,0.0,0.0,0.0,0.0,0.0,0.0,0.0,0.0,0.0,0.0,0.0,0.0,0.0,0.0,0.0,0.0,0.0,0.0,0.0,0.0,0.0,0.0,0.0,0.0,0.0,0.0,0.0,0.0,0.0,0.0,0.0,0.0,0.0,0.0,0.0,0.0,0.0,-1.8743,-1.8697,-1.95,-1.9802,-1.9568,-1.9715,-1.9613,-1.9179,-1.8673,-1.818,0.0,0.0,0.0,0.0,0.0,0.0,0.0,0.0,0.0,0.0,0.0,0.0,0.0,0.0,0.0,0.0,0.0,0.0,0.0,0.0,0.0,0.0,0.0,0.0,0.0,0.0,0.0,0.0,-1.4217,-1.475,-1.5368,0.0,0.0,0.0,0.0,0.0,0.0,0.0,0.0,0.0,0.0,-1.8819,-1.9639,-1.9649,0.0,0.0,-1.979,-1.9694,-1.9588,-1.9112,-1.8903,-1.9172,-1.866,0.0,0.0,0.0,0.0,0.0,0.0,0.0,0.0,0.0,0.0,0.0,0.0,0.0,0.0,0.0,0.0,0.0,0.0,0.0,0.0,0.0,0.0,0.0,0.0,0.0,0.0,0.0,0.0,0.0,0.0,0.0,0.0,0.0,0.0,0.0,0.0,0.0,0.0,0.0,0.0,0.0,0.0,0.0,0.0,0.0,0.0,0.0,0.0,0.0,0.0,0.0,0.0,-1.8749,-1.8025,-1.9207,-1.9528,-1.9038,-1.9207,-1.9207,-1.9024,-1.8422,-1.8002,0.0,0.0,0.0,0.0,0.0,0.0,0.0,0.0,0.0,0.0,0.0,0.0,0.0,0.0,0.0,0.0,0.0,0.0,0.0,0.0,0.0,0.0,0.0,0.0,0.0,0.0,0.0,0.0,-1.4573,-1.5141,-1.5734,0.0,0.0,0.0,0.0,0.0,0.0,0.0,0.0,0.0,0.0,-1.9367,-2.0015,-2.0119,-2.0168,-2.0346,-2.0289,-2.0192,-2.0192,-1.963,-1.9333,-1.966,0.0,0.0,0.0,0.0,0.0,0.0,0.0,0.0,0.0,0.0,0.0,0.0,0.0,0.0,0.0,0.0,0.0,0.0,0.0,0.0,0.0,0.0,0.0,0.0,0.0,0.0,0.0,0.0,0.0,0.0,-2.0036,0.0,0.0,0.0,0.0,0.0,0.0,0.0,0.0,0.0,0.0,0.0,0.0,0.0,0.0,0.0,0.0,0.0,0.0,0.0,0.0,0.0,0.0,-1.8372,-1.8004,-1.9195,-1.9626,-1.9291,-1.9277,-1.9305,-1.9263,-1.8718,-1.8382,-1.8354,0.0,0.0,0.0,0.0,0.0,0.0,0.0,0.0,0.0,0.0,0.0,0.0,0.0,0.0,0.0,0.0,0.0,0.0,0.0,0.0,0.0,0.0,0.0,0.0,0.0,0.0,-1.5195,-1.5459,-1.5614,0.0,0.0,0.0,0.0,0.0,0.0,0.0,0.0,0.0,0.0,-1.9698,-1.9884,-1.9916,-1.9925,-2.0013,-1.9957,-2.0127,-2.0249,-2.024,-2.0208,-2.0176,0.0,0.0,0.0,0.0,0.0,0.0,0.0,0.0,0.0,0.0,0.0,0.0,0.0,0.0,0.0,0.0,0.0,0.0,0.0,0.0,0.0,0.0,0.0,0.0,0.0,0.0,0.0,-1.8272,-1.9366,0.0,0.0,0.0,0.0,0.0,0.0,0.0,0.0,0.0,0.0,0.0,-1.9654,-1.9088,0.0,0.0,0.0,0.0,0.0,0.0,0.0,0.0,0.0,0.0,0.0,0.0,-1.894,-1.8656,-1.9213,-1.9379,-1.9066,-1.9242,-1.9242,-1.9052,-1.8659,-1.8292,-1.7871,0.0,0.0,0.0,0.0,0.0,0.0,0.0,0.0,0.0,0.0,0.0,0.0,0.0,0.0,0.0,0.0,0.0,0.0,0.0,0.0,0.0,0.0,0.0,0.0,0.0,-1.5183,0.0,0.0,0.0,0.0,0.0,0.0,0.0,0.0,0.0,0.0,0.0,-1.9336,-1.9846,-2.0322,-2.0721,-2.094,-2.131,-2.1518,0.0,0.0,0.0,0.0,0.0,0.0,0.0,0.0,0.0,0.0,0.0,0.0,0.0,0.0,-1.9111,-1.9056,-1.9177,-1.9211,-1.9034,0.0,0.0,0.0,0.0,0.0,0.0,0.0,0.0,0.0,0.0,0.0,0.0,0.0,0.0,-1.7876,0.0,-1.9072,0.0,0.0,0.0,0.0,0.0,0.0,0.0,0.0,-2.0243,-2.0025,-1.961,-1.935,-1.9137,0.0,-1.8923,-1.8736,0.0,0.0,0.0,0.0,0.0,0.0,0.0,0.0,-1.9426,-1.9223,-1.972,-1.988,-1.9663,-1.9773,-1.9762,-1.9533,-1.9052,-1.8545,-1.7916,-1.7167,-1.6658,0.0,0.0,0.0,0.0,0.0,0.0,0.0,0.0,0.0,0.0,0.0,0.0,0.0,0.0,0.0,0.0,0.0,0.0,0.0,0.0,0.0,0.0,0.0,-1.5998,0.0,0.0,0.0,0.0,0.0,0.0,0.0,0.0,0.0,-1.8766,-1.9343,-1.9864,-2.0238,-2.0704,-2.119,-2.1639,0.0,0.0,0.0,0.0,0.0,0.0,0.0,-2.1677,-2.1835,-2.1538,-2.1326,-2.1508,-2.1213,-2.0784,-2.0284,0.0,0.0,-1.9375,-1.9404,-1.9442,-1.9267,-1.9254,-1.9376,-1.976,-1.9462,-1.9276,0.0,0.0,0.0,0.0,0.0,0.0,0.0,0.0,-1.6252,-1.6833,0.0,-1.7719,0.0,0.0,0.0,0.0,0.0,-1.911,0.0,0.0,-1.9886,-1.9573,-1.9141,-1.9357,-1.922,-1.8755,-1.9147,-1.9291,-1.9276,-1.8938,0.0,0.0,0.0,0.0,0.0,0.0,-1.9823,-1.9837,-2.0641,-2.1082,-2.1029,-2.082,-2.0672,-2.0615,-1.9856,-1.9147,-1.8531,-1.797,-1.7635,-1.7569,-1.678,0.0,0.0,0.0,0.0,0.0,0.0,0.0,0.0,0.0,0.0,0.0,0.0,0.0,0.0,0.0,0.0,0.0,0.0,0.0,0.0,-1.7046,0.0,0.0,0.0,0.0,0.0,0.0,0.0,0.0,0.0,0.0,-1.9082,-1.9702,-2.0318,-2.0592,0.0,0.0,0.0,0.0,-2.2434,-2.3372,-2.2991,-2.2711,-2.303,-2.2532,-2.2118,-2.2134,0.0,0.0,-2.2102,-2.2059,-2.1951,-2.1611,-2.1472,-2.1084,-1.9719,-1.953,-1.9528,-1.9383,-1.913,-1.8892,-1.8845,-1.8751,-1.8424,-1.6186,0.0,0.0,0.0,0.0,-1.5017,-1.541,-1.6199,-1.6091,-1.6442,-1.7126,-1.7215,0.0,0.0,0.0,0.0,0.0,0.0,-1.8413,-1.8856,-1.8849,-1.8878,-1.9036,-1.9101,-1.9247,-1.9411,-1.9553,-1.9689,-1.9886,-1.9762,-1.9724,-1.972,0.0,0.0,0.0,0.0,-2.0572,-2.0375,-2.0664,-2.0695,-2.0464,-2.037,-2.033,-2.0361,-2.012,-1.972,-1.9132,-1.8744,-1.8316,-1.7902,-1.7462,0.0,0.0,0.0,0.0,0.0,0.0,0.0,0.0,0.0,0.0,0.0,0.0,0.0,0.0,0.0,0.0,0.0,0.0,0.0,-1.7596,-1.7929,-1.8265,0.0,0.0,0.0,0.0,0.0,0.0,0.0,0.0,0.0,-2.0273,-2.0429,-2.067,0.0,0.0,-2.2501,-2.2432,-2.3189,-2.3799,-2.3911,-2.4136,0.0,-2.4417,-2.4261,-2.4138,-2.4138,-2.4138,-2.4057,-2.3823,-2.3396,-2.2893,-2.2405,-2.1882,-2.1367,-2.0828,-2.045,-2.0292,-2.0215,-1.9978,-1.9747,-1.9691,-1.9464,-1.9334,-1.7518,-1.683,-1.6267,-1.6105,-1.6178,-1.5926,-1.6123,-1.656,-1.6352,-1.637,-1.6589,-1.655,-1.6424,-1.6277,-1.6348,0.0,0.0,0.0,-1.755,-1.7931,-1.7969,-1.8232,-1.8686,-1.8723,-1.8957,-1.9367,-1.9652,-1.9767,-1.9819,-2.0072,-2.0297,-2.0588,0.0,0.0,-2.0504,-2.0687,-2.0844,-2.0909,-2.1082,-2.1208,-2.1269,-2.1011,-2.0815,-2.0557,-2.0468,-2.0241,-1.9923,-1.9372,-1.8985,-1.8716,-1.8223,-1.7943,0.0,0.0,0.0,0.0,0.0,0.0,0.0,0.0,0.0,0.0,0.0,-1.6248,-1.6488,0.0,0.0,0.0,-1.805,-1.849,-1.8571,-1.8838,0.0,0.0,0.0,0.0,0.0,0.0,0.0,-1.9817,-2.0463,-2.0972,-2.1113,-2.129,-2.1401,-2.1416,-2.2067,-2.2602,-2.2779,0.0,-2.4412,-2.4985,-2.5315,-2.5564,-2.5834,-2.5641,-2.5483,-2.5499,-2.5483,-2.5416,-2.5218,-2.4845,-2.4411,-2.3896,-2.3183,-2.2491,-2.2079,-2.1479,-2.1008,-2.0982,-2.0696,-2.0548,-2.0803,-2.0442,-2.0132,-1.8589,-1.8483,-1.7408,-1.6963,-1.6898,-1.6882,-1.6849,-1.6833,-1.6825,-1.6534,-1.6039,-1.591,-1.5634,-1.5293,-1.5446,0.0,-1.6622,-1.6584,-1.6775,-1.712,-1.7158,-1.7491,-1.8067,-1.8174,-1.8435,-1.8832,-1.9434,-1.9639,-1.95,-2.0021,-2.053,-2.0895,-2.0315,-2.0039,-2.0068,-2.0429,-2.0859,-2.1421,-2.1714,-2.2198,-2.2772,-2.2325,-2.1744,-2.1203,-2.098,-2.0833,-2.0753,-1.9977,-1.9642,-1.9826,-1.9052,-1.8611,-1.8624,0.0,0.0,0.0,0.0,0.0,0.0,0.0,0.0,0.0,0.0,0.0,0.0,0.0,0.0,0.0,-1.9386,0.0,-1.9562,-1.9746,0.0,0.0,0.0,-2.0026,-2.034,-2.0627,-2.0939,-2.1243,0.0,0.0,-2.1651,-2.2175,-2.2351,-2.1823,-2.1833,-2.2153,-2.2993,-2.3552,-2.4483,-2.6088,-2.6387,-2.6568,-2.7078,-2.675,-2.6427,-2.6427,-2.6366,-2.638,-2.638,-2.6288,-2.6135,-2.5811,-2.5004,-2.4143,-2.3487,-2.2631,-2.1906,-2.1814,-2.1324,-2.1143,-2.1584,-2.1103,-2.0585,-1.9363,-1.9094,-1.8793,-1.8298,-1.7611,-1.7465,-1.7254,-1.7055,-1.7047,-1.6828,-1.6454,-1.6448,-1.6186,-1.5796,-1.5608,-1.5588,-1.5777,-1.5777,-1.6013,-1.6359,-1.6359,-1.6621,-1.7068,-1.7453,-1.7807,-1.824,-1.8739,-1.9235,-1.9765,-2.0242,-2.0643,-2.102,-2.117,-2.1186,-2.1121,-2.1449,-2.1632,-2.1552,-2.1893,-2.2052,-2.2065,-2.2164,-2.2076,-2.1804,-2.1924,-2.179,-2.1395,-2.0922,-2.0628,-2.0498,-1.984,-1.9586,-1.977,-1.9332,0.0,0.0,0.0,0.0,0.0,0.0,0.0,0.0,0.0,-1.8516,-1.8946,0.0,-1.9637,0.0,-2.0214,-2.0565,-2.0681,-2.0762,0.0,0.0,-2.0895,-2.0833,-2.0926,-2.1383,-2.1725,-2.1789,-2.2209,-2.2512,-2.2594,-2.2756,-2.2734,-2.2365,-2.2919,-2.328,-2.3041,-2.4242,-2.5197,-2.548,-2.6503,-2.7483,-2.7846,-2.7841,-2.771,-2.7724,-2.7741,-2.7741,-2.7741,-2.7286,-2.6924,-2.6829,-2.6245,-2.5518,-2.4825,-2.4312,-2.3758,-2.3161,-2.1891,-2.0814,-2.0977,-2.0832,-2.0688,-1.9817,-1.9534,-1.941,-1.9037,-1.8493,-1.8186,-1.7965,-1.7705,-1.7616,-1.7388,-1.7039,-1.6803,-1.6544,-1.6276,-1.6081,-1.5991,-1.5983,-1.5902,-1.5983,-1.6179,-1.6021,-1.6229,-1.6707,-1.6862,-1.7231,-1.7762,-1.8269,-1.8738,-1.9204,-1.9715,-2.0241,-2.0817,-2.1017,-2.1292,-2.1603,-2.174,-2.1761,-2.1791,-2.2134,-2.2138,-2.1761,-2.2039,-2.2194,-2.2123,-2.2136,-2.2071,-2.1951,-2.1537,-2.1315,-2.1274,-2.0605,-2.0321,-2.0601,-2.0067,-1.9826,0.0,0.0,0.0,0.0,0.0,0.0,0.0,0.0,0.0,0.0,0.0,-2.0681,-2.0815,-2.1203,-2.147,-2.1496,-2.1737,-2.1984,-2.2144,-2.2024,-2.1884,-2.1884,-2.2211,-2.2412,-2.2412,-2.2802,-2.3092,-2.3092,-2.3358,-2.3482,-2.3276,-2.3612,-2.3632,-2.3086,-2.3899,-2.49,-2.5768,-2.664,-2.7603,-2.849,-2.8682,-2.8682,-2.8682,-2.8682,-2.87,-2.8682,-2.8393,-2.8119,-2.8087,-2.7455,-2.6745,-2.6232,-2.5419,-2.4738,-2.4102,-2.2984,-2.2067,-2.1788,-2.1642,-2.1569,-2.0158,-1.9841,-1.9638,-1.9459,-1.9346,-1.8948,-1.8663,-1.8491,-1.8328,-1.8005,-1.7603,-1.7101,-1.6836,-1.6682,-1.6633,-1.6617,-1.66,-1.6422,-1.6341,-1.6316,-1.5999,-1.6139,-1.6675,-1.6539,-1.6801,-1.7384,-1.7991,-1.8294,-1.8297,-1.8976,-1.9619,-2.0326,-2.0423,-2.0832,-2.1569,-2.1443,-2.1583,-2.1982,-2.2416,-2.2355,-2.1799,-2.2026,-2.2237,-2.2393,-2.2146,-2.2159,-2.2491,-2.205,-2.185,-2.2004,-2.1315,-2.0993,-2.1189,-2.0735,-2.0424,0.0,-2.0424,0.0,0.0,0.0,0.0,0.0,0.0,0.0,0.0,-2.1024,-2.1483,-2.1743,-2.2218,-2.2398,-2.2178,-2.2653,-2.2974,-2.3014,-2.3014,-2.3014,-2.3014,-2.3041,-2.3067,-2.3067,-2.3273,-2.3412,-2.346,-2.3861,-2.4142,-2.4035,-2.3946,-2.3665,-2.3084,-2.329,-2.4269,-2.6324,-2.662,-2.7305,-2.8525,-2.9101,-2.9265,-2.9282,-2.9248,-2.9299,-2.9265,-2.9232,-2.9249,-2.9199,-2.8537,-2.7879,-2.7482,-2.6376,-2.5431,-2.4912,-2.4205,-2.3586,-2.3166,-2.2871,-2.2724,-2.0418,-2.019,-1.9873,-1.9719,-1.9662,-1.9354,-1.8939,-1.8499,-1.8459,-1.82,-1.7797,-1.7453,-1.7266,-1.721,-1.689,-1.6752,-1.6752,-1.6609,-1.6527,-1.6519,-1.63,-1.6342,-1.6631,-1.6793,-1.701,-1.7264,-1.7743,-1.8106,-1.8325,-1.8774,-1.9161,-1.9513,-2.0014,-2.0358,-2.0506,0.0,0.0,0.0,-2.2465,-2.2534,-2.2272,-2.2297,-2.2559,-2.3005,-2.2975,0.0,-2.3084,-2.284,-2.2525,-2.2338,-2.1951,0.0,0.0,0.0,0.0,0.0,0.0,0.0,0.0,0.0,0.0,0.0,-2.2325,-2.2258,-2.2044,-2.2531,-2.2819,-2.2679,-2.2939,-2.3105,-2.3086,-2.3166,-2.334,-2.3603,-2.3643,-2.3629,-2.3643,-2.383,-2.3955,-2.3955,-2.4008,-2.4035,-2.4022,-2.3941,-2.391,-2.395,-2.4008,-2.3931,-2.351,-2.3641,-2.3885,-2.42,-2.5753,-2.7102,-2.7534,-2.8543,-2.9202,-2.9299,-2.9299,-2.9299,-2.9299,-2.9299,-2.9299,-2.9299,-2.9149,-2.8787,-2.8245,-2.7654,-2.6874,-2.5689,-2.5167,-2.4621,-2.3733,-2.3457,-2.3413,-2.0726,0.0,-2.0125,-2.0003,0.0,-1.9688,-1.9313,-1.8964,-1.8833,-1.8565,-1.8168,-1.8035,-1.7819,-1.764,-1.7416,-1.7287,-1.719,-1.7063,-1.6933,-1.6836,-1.6615,-1.6576,-1.6619,-1.674,-1.6825,-1.6908,-1.7332,-1.7628,-1.7743,-1.8205,-1.8523,-1.8825,-1.9315,-1.9613,-1.9755,-2.0085,-2.0515,-2.1054,-2.1628,-2.1884,-2.1934,-2.2217,-2.2694,-2.3263,-2.331,0.0,0.0,0.0,0.0,0.0,0.0,0.0,0.0,-2.2285,0.0,-2.2205,-2.2372,-2.2485,-2.2632,-2.2512,-2.2605,-2.306,-2.3354,-2.3407,-2.3113,-2.3198,-2.3327,-2.3362,-2.3581,-2.3732,-2.3768,-2.3888,-2.4088,-2.4405,-2.4289,-2.4249,-2.4382,-2.4409,-2.4422,-2.4386,-2.4422,-2.4422,-2.4372,-2.4302,-2.4195,-2.4195,-2.4182,-2.4136,-2.3915,-2.3821,-2.3679,-2.3666,-2.5251,-2.6722,-2.7181,-2.7829,-2.8693,-2.9104,-2.9299,-2.9299,-2.9299,-2.9299,-2.9299,-2.9299,-2.9299,-2.9152,-2.8872,-2.8393,-2.7818,-2.7096,-2.6525,-2.5926,-2.5008,-2.4316,-2.3837,-2.0945,-2.0409,-2.0312,-2.0214,-2.0093,-1.9882,-1.9703,-1.9532,0.0,0.0,0.0,-1.8565,-1.8338,-1.8062,-1.803,-1.7924,-1.7732,-1.7599,-1.7429,-1.7242,-1.7028,-1.6866,-1.6771,-1.6738,-1.6722,-1.6765,-1.7057,-1.7229,-1.7256,-1.7647,-1.7957,-1.8171,-1.8519,-1.878,-1.8969,-1.9357,-1.9574,-1.9647,-2.0416,-2.0879,-2.1006,-2.1843,-2.2596,-2.3179,-2.3516,-2.3743,-2.3955,-2.3964,-2.3875,-2.3803,-2.3322,-2.3067,-2.3054,-2.2792,-2.2659,-2.2672,-2.292,-2.3174,-2.338,-2.3166,-2.3295,-2.3843,-2.4168,-2.4209,-2.3875,-2.3674,-2.3661,-2.3937,-2.4142,-2.4275,-2.4289,-2.4506,-2.481,-2.505,-2.4903,-2.4877,-2.5037,-2.493,-2.4746,-2.4693,-2.4679,-2.4679,-2.4679,-2.4613,-2.4599,-2.4572,-2.4386,-2.4275,-2.4189,-2.3852,-2.3454,-2.3496,-2.4624,-2.5878,-2.6398,-2.6991,-2.7611,-2.8326,-2.8793,-2.9075,-2.9091,-2.9255,-2.9386,-2.9453,-2.9367,-2.9316,-2.9233,-2.8839,-2.8461,-2.8329,-2.7832,-2.7134,-2.6236,-2.521,-2.4473,-2.0926,-2.0796,-2.034,-2.0174,-2.0255,-1.993,-1.9776,-1.9711,-1.9207,-1.8956,-1.8899,-1.8753,-1.8663,-1.8598,-1.8444,-1.841,-1.8369,-1.8152,-1.7973,-1.7794,-1.757,-1.7473,-1.7441,-1.7339,-1.7274,-1.7274,-1.7363,-1.7419,-1.744,-1.7544,-1.7613,-1.7688,-1.7761,-1.7755,-1.7659,-1.7732,-1.7769,-1.781,-1.9053,-1.961,-1.9474,-2.0979,-2.2005,-2.2475,-2.3921,-2.4614,-2.4506,-2.4479,-2.4289,-2.3843,-2.3723,-2.3683,-2.3683,-2.3594,-2.3616,-2.3616,-2.3656,-2.3696,-2.375,-2.3696,-2.3817,-2.4128,-2.4649,-2.473,-2.4209,-2.4329,-2.4439,-2.4479,-2.4506,-2.4532,-2.4559,-2.485,-2.5074,-2.5141,-2.5277,-2.5317,-2.5181,-2.5264,-2.5264,-2.505,-2.501,-2.501,-2.4983,-2.4796,-2.4613,-2.4599,-2.4532,-2.4519,-2.4402,-2.3816,-2.3047,-2.2668,-2.3545,-2.4241,-2.4539,-2.5283,-2.6086,-2.621,-2.7445,-2.8219,-2.839,-2.9059,-2.9629,-2.9813,-2.959,-2.9384,-2.935,-2.925,-2.8923,-2.8544,-2.8213,-2.7765,-2.655,-2.5944,-2.5565,-2.0978,-2.0755,-2.045,-2.0344,-2.0296,-2.0044,-1.9938,-1.9965,-1.9573,-1.9419,-1.9402,-1.9232,-1.9102,-1.9004,-1.8866,-1.8736,-1.859,-1.8517,-1.8379,-1.8208,-1.8119,-1.7973,-1.7749,-1.7713,-1.7624,-1.7489,-1.7526,-1.7526,-1.7557,-1.754,-1.749,-1.7348,-1.7349,-1.7372,-1.7295,-1.7295,-1.7211,-1.6994,-1.7991,-1.8623,-1.8923,-2.079,-2.2032,-2.2533,-2.436,-2.5281,-2.5106,-2.5264,-2.5157,-2.473,-2.4556,-2.4409,-2.4249,-2.4249,-2.4168,-2.4035,-2.4338,-2.4489,-2.4476,-2.4623,-2.477,-2.4903,-2.5157,-2.5211,-2.4943,-2.489,-2.481,-2.4626,-2.4746,-2.4877,-2.4877,-2.5144,-2.5384,-2.5583,-2.5545,-2.5531,-2.5583,-2.5504,-2.5451,-2.5344,-2.5317,-2.5251,-2.5141,-2.4957,-2.4796,-2.4639,-2.4599,-2.4599,-2.4599,-2.4239,-2.3624,-2.283,-2.3009,-2.335,-2.3554,-2.4241,-2.5037,-2.5672,-2.6379,-2.7146,-2.7856,-2.8676,-2.9207,-2.997,-2.9985,-2.9864,-2.9626,-2.9762,-2.9544,-2.9055,-2.9058,-2.861,-2.7631,-2.6702,-2.588,-2.1092,-2.0718,-2.0629,-2.0491,-2.0312,-2.0231,-2.0166,-2.0117,-2.0011,-1.9946,-1.9873,-1.963,-1.9443,-1.9354,-1.9175,-1.8972,-1.8858,-1.885,-1.8744,-1.863,-1.8622,-1.8403,-1.8127,-1.8095,-1.7997,-1.7843,-1.7781,-1.7741,-1.7668,-1.766,-1.7518,-1.7221,-1.7231,-1.7202,-1.7203,-1.7161,-1.7032,-1.6751,-1.7199,-1.7687,-1.8293,-2.0619,-2.2061,-2.2642,-2.4901,-2.599,-2.5733,-2.5971,-2.5931,-2.5531,-2.5291,-2.5077,-2.4826,-2.4799,-2.4693,-2.4569,-2.4917,-2.5211,-2.5315,-2.5529,-2.5611,-2.5611,-2.5665,-2.5651,-2.5518,-2.5371,-2.5157,-2.4879,-2.505,-2.517,-2.5211,-2.5438,-2.5743,-2.5957,-2.5825,-2.5785,-2.5944,-2.5812,-2.5678,-2.5638,-2.5611,-2.5518,-2.5331,-2.5211,-2.5064,-2.4823,-2.4706,-2.4716,-2.4613,-2.4599,-2.4198,-2.3503,-2.295,-2.2947,-2.3406,-2.3523,-2.401,-2.4929,-2.5307,-2.5953,-2.6929,-2.743,-2.8051,-2.9005,-2.9233,-2.8966,-2.8989,-2.941,-2.9428,-2.901,-2.9328,-2.9478,-2.8378,-2.7146,-2.6023,-2.1124,-2.1027,-2.0734,-2.0491,-2.0344,-2.0474,-2.0442,-2.032,-2.045,-2.0426,-2.0214,-1.9735,-1.9516,-1.9467,-1.9363,-1.9265,-1.9249,-1.9257,-1.9151,-1.8988,-1.8931,-1.8834,-1.8639,-1.8591,-1.855,-1.8387,-1.841,-1.8192,-1.7886,-1.7854,-1.7721,-1.7396,-1.7368,-1.7306,-1.7123,-1.7151,-1.7107,-1.7055,-1.6826,-1.6723,-1.6977,-2.001,-2.1806,-2.2002,-2.5338,-2.6907,-2.6241,-2.6333,-2.6092,-2.5571,-2.5531,-2.5478,-2.54,-2.5438,-2.5424,-2.5384,-2.5451,-2.5585,-2.5891,-2.5944,-2.5984,-2.5971,-2.6172,-2.6106,-2.5638,-2.5758,-2.5797,-2.5545,-2.5478,-2.5478,-2.5491,-2.5745,-2.5971,-2.6038,-2.6185,-2.6265,-2.6078,-2.6212,-2.6213,-2.5984,-2.5944,-2.5944,-2.585,-2.5585,-2.5344,-2.5077,-2.5037,-2.497,-2.4746,-2.4653,-2.4528,-2.4018,-2.3585,-2.319,-2.3065,-2.267,-2.2818,-2.2942,-2.384,-2.4705,-2.533,-2.602,-2.6733,-2.7362,-2.6899,-2.6768,-2.6867,-2.725,-2.8321,-2.8251,-2.8736,-2.9462,-2.8478,-2.7372,-2.6315,-2.1222,-2.11,-2.0856,-2.058,-2.0361,-2.0515,-2.0491,-2.0292,-2.0523,-2.0499,-2.0296,-1.9979,-1.9841,-1.9817,-1.954,-1.941,-1.9402,-1.9354,-1.9265,-1.92,-1.9192,-1.9045,-1.8891,-1.8874,-1.8785,-1.8623,-1.8615,-1.8541,-1.8379,-1.8176,-1.7997,-1.7843,-1.7648,-1.7457,-1.7392,-1.7489,-1.7583,-1.7583,-1.7339,-1.7258,-1.7549,-1.9239,-2.0253,-2.0678,-2.3943,-2.5836,-2.5744,-2.6577,-2.7054,-2.6827,-2.68,-2.664,-2.6267,-2.6453,-2.64,-2.6092,-2.636,-2.668,-2.6974,-2.7028,-2.6907,-2.6787,-2.6881,-2.68,-2.6587,-2.6707,-2.672,-2.652,-2.6079,-2.5772,-2.5798,-2.6039,-2.6252,-2.6265,-2.6319,-2.6346,-2.6239,-2.6319,-2.6372,-2.6265,-2.6252,-2.6172,-2.5998,-2.5692,-2.5478,-2.5358,-2.5331,-2.5264,-2.5157,-2.501,-2.4829,-2.4615,-2.4162,-2.3525,-2.3042,-2.2781,-2.2558,-2.2483,-2.2769,-2.3364,-2.4472,-2.486,-2.5576,-2.6395,-2.625,-2.6113,-2.6352,-2.6647,-2.7347,-2.7305,-2.7065,-2.7657,-2.8703,-2.7831,-2.6802,-2.1311,-2.1173,-2.0999,-2.0677,-2.0409,-2.0539,-2.0491,-2.0353,-2.0515,-2.0499,-2.032,-2.019,-2.0141,-2.0085,-1.9752,-1.9565,-1.95,-1.9386,-1.9346,-1.9314,-1.9314,-1.9232,-1.9061,-1.9061,-1.8996,-1.8891,-1.8874,-1.8842,-1.8769,-1.8485,-1.833,-1.8282,-1.8062,-1.7894,-1.7903,-1.8032,-1.8144,-1.8073,-1.7957,-1.7932,-1.8079,-1.8566,-1.9063,-1.9757,-2.2738,-2.4469,-2.443,-2.6146,-2.7087,-2.7009,-2.7524,-2.7629,-2.7228,-2.7429,-2.7349,-2.7001,-2.7309,-2.7684,-2.7923,-2.7949,-2.7856,-2.7697,-2.7603,-2.751,-2.7429,-2.7362,-2.7309,-2.7229,-2.672,-2.6346,-2.6265,-2.6386,-2.6493,-2.6507,-2.6453,-2.6413,-2.6493,-2.6453,-2.6386,-2.64,-2.636,-2.6359,-2.6145,-2.5905,-2.5758,-2.5665,-2.5638,-2.5585,-2.5518,-2.5317,-2.5197,-2.5184,-2.4682,-2.4,-2.3241,-2.293,-2.2744,-2.2446,-2.2408,-2.2819,-2.3759,-2.3907,-2.4018,-2.4576,-2.5364,-2.5519,-2.4875,-2.5299,-2.6655,-2.6544,-2.6357,-2.6608,-2.8448,-2.7555,-2.6678,-2.1376,-2.1319,-2.1048,-2.0812,-2.0588,-2.0596,-2.0499,-2.0353,-2.0523,-2.0491,-2.0284,-2.0304,-2.0304,-2.0279,-1.9938,-1.9687,-1.954,-1.95,-1.941,-1.933,-1.9314,-1.9306,-1.9297,-1.9297,-1.9289,-1.924,-1.9232,-1.9118,-1.8972,-1.8785,-1.8656,-1.8688,-1.8583,-1.8599,-1.8623,-1.8631,-1.868,-1.8631,-1.8485,-1.8459,-1.8434,-1.8185,-1.8791,-2.0245,-2.2203,-2.3094,-2.3064,-2.474,-2.5639,-2.5343,-2.7008,-2.7997,-2.8041,-2.8125,-2.8125,-2.8112,-2.8138,-2.8286,-2.8511,-2.8564,-2.8537,-2.8484,-2.8286,-2.8031,-2.7789,-2.7575,-2.7483,-2.7349,-2.7349,-2.7108,-2.6854,-2.68,-2.68,-2.6787,-2.6573,-2.6573,-2.6774,-2.66,-2.6426,-2.6413,-2.64,-2.6373,-2.636,-2.6399,-2.6172,-2.6051,-2.5984,-2.5865,-2.5651,-2.5545,-2.5491,-2.5411,-2.5148,-2.4657,-2.3626,-2.3154,-2.2819,-2.2458,-2.2346,-2.2371,-2.2334,-2.2408,-2.2583,-2.2694,-2.3104,-2.324,-2.298,-2.3879,-2.564,-2.615,-2.5977,-2.6603,-2.7838,-2.6467,-2.5712,-2.1425,-2.1213,-2.1083,-2.0929,-2.082,-2.0759,-2.0661,-2.0507,-2.0564,-2.0491,-2.0344,-2.0268,-2.0268,-2.0312,-2.019,-2.0036,-1.9857,-1.963,-1.9475,-1.941,-1.9363,-1.9314,-1.9314,-1.9314,-1.9314,-1.9314,-1.9314,-1.9273,-1.92,-1.898,-1.8891,-1.8866,-1.8729,-1.8728,-1.8744,-1.8834,-1.8891,-1.8883,-1.8818,-1.8841,-1.8817,-1.8558,-1.8726,-1.9329,-2.0671,-2.1447,-2.1462,-2.3156,-2.4118,-2.4196,-2.4914,-2.5767,-2.6841,-2.8052,-2.8804,-2.9022,-2.9048,-2.9088,-2.9152,-2.9165,-2.9072,-2.8855,-2.8791,-2.8671,-2.8534,-2.8414,-2.8361,-2.8321,-2.8203,-2.8003,-2.7669,-2.7335,-2.7108,-2.7135,-2.7055,-2.6974,-2.7054,-2.7041,-2.6921,-2.6694,-2.652,-2.64,-2.6413,-2.64,-2.6346,-2.6292,-2.6265,-2.6212,-2.6118,-2.5932,-2.5745,-2.5518,-2.5264,-2.4783,-2.3972,-2.3488,-2.3079,-2.2558,-2.2308,-2.2346,-2.2296,-2.2296,-2.2483,-2.252,-2.2346,-2.2334,-2.2583,-2.2794,-2.4526,-2.5354,-2.5198,-2.5492,-2.689,-2.5572,-2.5165,-2.1522,-2.1295,-2.1173,-2.1019,-2.091,-2.0791,-2.0669,-2.0515,-2.0507,-2.0434,-2.0336,-2.0268,-2.0268,-2.0268,-2.0268,-2.0263,-2.0125,-1.9833,-1.963,-1.9516,-1.9451,-1.9402,-1.9362,-1.9402,-1.9427,-1.9468,-1.9362,-1.9395,-1.9371,-1.9159,-1.9126,-1.911,-1.8948,-1.8899,-1.8915,-1.9069,-1.9069,-1.9126,-1.9126,-1.9151,-1.9134,-1.8988,-1.8899,-1.8954,-1.9508,-1.9923,-2.0087,-2.1722,-2.267,-2.2854,-2.3363,-2.4553,-2.6326,-2.7599,-2.8775,-2.9504,-2.9619,-2.9619,-2.9619,-2.9633,-2.9526,-2.9295,-2.9188,-2.9192,-2.9179,-2.9055,-2.9001,-2.8948,-2.8885,-2.8644,-2.843,-2.8112,-2.7722,-2.751,-2.7362,-2.7349,-2.7429,-2.7349,-2.7161,-2.6987,-2.6827,-2.6667,-2.6547,-2.6547,-2.6493,-2.6413,-2.64,-2.64,-2.636,-2.6265,-2.6039,-2.5812,-2.5431,-2.4952,-2.4301,-2.3795,-2.3267,-2.2755,-2.2332,-2.2332,-2.2308,-2.2308,-2.2308,-2.2308,-2.2308,-2.2308,-2.2308,-2.2308,-2.303,-2.4129,-2.3942,-2.3914,-2.4539,-2.4763,-2.4332,-2.1708,-2.1571,-2.1278,-2.1043,-2.0926,-2.071,-2.0515,-2.0385,-2.0336,-2.0284,-2.0268,-2.0268,-2.0268,-2.0268,-2.0268,-2.0312,-2.0263,-2.0109,-1.9865,-1.9597,-1.9687,-1.9662,-1.9532,-1.9662,-1.9719,-1.9703,-1.9581,-1.95,-1.9451,-1.9313,-1.9289,-1.9306,-1.9281,-1.9249,-1.9306,-1.9281,-1.9289,-1.9314,-1.9362,-1.9459,-1.9484,-1.9297,-1.9257,-1.924,-1.9012,-1.8845,-1.8697,-2.0391,-2.1217,-2.1297,-2.2688,-2.4785,-2.6318,-2.7042,-2.7903,-2.9546,-2.99,-2.99,-2.9887,-2.9887,-2.986,-2.9793,-2.9633,-2.9486,-2.9459,-2.9228,-2.9095,-2.9095,-2.9041,-2.8975,-2.8975,-2.8868,-2.8564,-2.7869,-2.7617,-2.7576,-2.7602,-2.7483,-2.7309,-2.7296,-2.7201,-2.7121,-2.6921,-2.6827,-2.6747,-2.6573,-2.6507,-2.6493,-2.648,-2.6413,-2.64,-2.6227,-2.5791,-2.5216,-2.4675,-2.4108,-2.3529,-2.2967,-2.2605,-2.2369,-2.232,-2.2308,-2.2308,-2.2308,-2.2308,-2.2308,-2.2308,-2.2371,-2.2781,-2.3475,-2.2881,-2.2669,-2.3215,-2.3611,-2.3104,-2.1587,-2.1465,-2.1352,-2.1205,-2.1027,-2.0848,-2.0722,-2.0499,-2.0385,-2.0268,-2.0268,-2.0268,-2.0268,-2.0268,-2.0268,-2.0268,-2.032,-2.0255,-2.0109,-1.9914,-1.9825,-1.9768,-1.9727,-1.9768,-1.9719,-1.9613,-1.954,-1.9451,-1.9362,-1.9346,-1.9363,-1.9394,-1.9371,-1.9379,-1.941,-1.9371,-1.9314,-1.9314,-1.9354,-1.9337,-1.9387,-1.9338,-1.9314,-1.9297,-1.9192,-1.9004,-1.8874,-1.9319,-1.9513,-1.9531,-1.9929,-2.1644,-2.4452,-2.6241,-2.7895,-2.9586,-2.9913,-2.9913,-2.9913,-2.9913,-2.9913,-2.99,-2.9833,-2.9793,-2.978,-2.97,-2.9588,-2.9562,-2.9472,-2.9339,-2.9312,-2.9108,-2.8801,-2.8377,-2.8243,-2.8083,-2.8005,-2.7777,-2.7589,-2.7535,-2.7388,-2.7228,-2.7161,-2.7121,-2.7081,-2.7015,-2.6988,-2.6907,-2.6734,-2.668,-2.648,-2.6186,-2.5817,-2.5544,-2.5049,-2.4492,-2.3842,-2.3301,-2.2874,-2.2429,-2.2357,-2.2417,-2.2393,-2.2345,-2.2345,-2.232,-2.2308,-2.2482,-2.2868,-2.2868,-2.2582,-2.2607,-2.2856,-2.2744,-2.2408,-2.1545,-2.1376,-2.1238,-2.1083,-2.0929,-2.0799,-2.0653,-2.0491,-2.0369,-2.0268,-2.0268,-2.0268,-2.0268,-2.0268,-2.0268,-2.0268,-2.0268,-2.0268,-2.0263,-2.0158,-2.0052,-1.9963,-1.9922,-1.9963,-1.9979,-1.9914,-1.9849,-1.976,-1.9654,-1.9639,-1.9631,-1.9581,-1.9443,-1.9402,-1.9484,-1.9345,-1.9314,-1.9314,-1.9321,-1.9403,-1.9354,-1.9354,-1.9354,-1.9345,-1.9346,-1.9249,-1.9135,-1.898,-1.8858,-1.8728,-1.855,-2.0026,-2.281,-2.4199,-2.5696,-2.7398,-2.8404,-2.8809,-2.8899,-2.9451,-2.998,-3.0047,-3.0074,-3.0074,-3.01,-3.0154,-3.0207,-3.006,-2.9972,-2.9851,-2.9766,-2.9553,-2.9202,-2.8965,-2.8698,-2.8484,-2.8232,-2.8018,-2.7924,-2.7871,-2.7764,-2.7603,-2.7496,-2.7428,-2.7416,-2.7349,-2.7309,-2.7282,-2.7041,-2.6987,-2.672,-2.6453,-2.6189,-2.5885,-2.5466,-2.4867,-2.4196,-2.3686,-2.3194,-2.2698,-2.2405,-2.2623,-2.2695,-2.2562,-2.2514,-2.2405,-2.2381,-2.2465,-2.2678,-2.2429,-2.2393,-2.2531,-2.273,-2.2532,-2.2308,-2.1376,-2.1327,-2.1072,-2.0853,-2.0637,-2.0612,-2.0515,-2.0344,-2.0268,-2.0268,-2.0268,-2.0268,-2.0268,-2.0268,-2.0268,-2.0268,-2.0268,-2.0268,-2.032,-2.0312,-2.0296,-2.0239,-2.0109,-2.0231,-2.0344,-2.0418,-2.0328,-2.0271,-2.019,-2.0095,-2.0038,-1.9833,-1.9613,-1.9524,-1.9516,-1.937,-1.933,-1.933,-1.9419,-1.9492,-1.9467,-1.9467,-1.9467,-1.9459,-1.9379,-1.9297,-1.9281,-1.9257,-1.9069,-1.8777,-1.8654,-1.9505,-2.1057,-2.1263,-2.2436,-2.4439,-2.5958,-2.6903,-2.7435,-2.8654,-2.9856,-3.0354,-3.0381,-3.0426,-3.0453,-3.0555,-3.0595,-3.0408,-3.04,-3.04,-3.0346,-3.0127,-2.9833,-2.9499,-2.9005,-2.8577,-2.8312,-2.8245,-2.8219,-2.8205,-2.8192,-2.8085,-2.7791,-2.7722,-2.7602,-2.7523,-2.7469,-2.7523,-2.7429,-2.7429,-2.7362,-2.7066,-2.6638,-2.608,-2.5619,-2.5039,-2.4375,-2.3688,-2.3358,-2.3062,-2.2647,-2.2804,-2.2925,-2.2792,-2.2695,-2.2574,-2.2538,-2.2647,-2.2659,-2.2598,-2.2562,-2.2526,-2.2478,-2.2429,-2.2345,-2.1311,-2.1189,-2.1092,-2.088,-2.0621,-2.0596,-2.0491,-2.0336,-2.0268,-2.0268,-2.0268,-2.0268,-2.0268,-2.0268,-2.0268,-2.0268,-2.0268,-2.0268,-2.0268,-2.0344,-2.0474,-2.0418,-2.032,-2.0434,-2.0483,-2.0434,-2.0409,-2.0268,-2.0304,-2.0234,-2.0117,-2.0158,-1.9743,-1.9597,-1.9662,-1.954,-1.9386,-1.9346,-1.9427,-1.9451,-1.9345,-1.9337,-1.9379,-1.9321,-1.933,-1.9314,-1.9314,-1.9314,-1.9159,-1.8939,-1.8874,-1.9674,-2.1261,-2.1404,-2.2043,-2.3659,-2.4731,-2.5867,-2.7007,-2.7805,-2.8947,-3.0524,-3.0261,-3.0675,-3.0675,-3.0696,-3.0755,-3.0675,-3.0675,-3.0675,-3.0662,-3.0595,-3.0314,-2.9833,-2.9325,-2.8911,-2.8764,-2.8617,-2.8484,-2.847,-2.8326,-2.8192,-2.8072,-2.8085,-2.8045,-2.8005,-2.8085,-2.8136,-2.8018,-2.7898,-2.7871,-2.7438,-2.6994,-2.6336,-2.5777,-2.5203,-2.4536,-2.3772,-2.3469,-2.3457,-2.3155,-2.3022,-2.3046,-2.2985,-2.2985,-2.2901,-2.2901,-2.2973,-2.2889,-2.2804,-2.2864,-2.2877,-2.2707,-2.2598,-2.2453,-2.1222,-2.1062,-2.0962,-2.0783,-2.0596,-2.0515,-2.0418,-2.0336,-2.0268,-2.0268,-2.0268,-2.0268,-2.0268,-2.0268,-2.0268,-2.0268,-2.0268,-2.0268,-2.0369,-2.0483,-2.0702,-2.071,-2.0621,-2.0669,-2.0686,-2.0677,-2.06,-2.0621,-2.0556,-2.0494,-2.0385,-2.0255,-1.9938,-1.9808,-1.9882,-1.9719,-1.954,-1.9419,-1.9459,-1.9427,-1.9322,-1.9314,-1.9314,-1.9314,-1.9314,-1.9314,-1.9314,-1.9329,-1.9313,-1.9191,-1.9167,-1.9539,-2.0474,-2.0499,-2.089,-2.1942,-2.2805,-2.3926,-2.4883,-2.5814,-2.697,-2.8002,-2.8366,-2.8366,-2.8297,-2.8499,-2.8654,-2.9466,-2.9653,-3.0119,-3.0803,-3.0875,-3.0648,-3.0314,-2.986,-2.9446,-2.9068,-2.8841,-2.8738,-2.8631,-2.8551,-2.839,-2.8259,-2.8393,-2.846,-2.8417,-2.8564,-2.8591,-2.8551,-2.8473,-2.8339,-2.7957,-2.7388,-2.6698,-2.607,-2.548,-2.4897,-2.4153,-2.3643,-2.3643,-2.3575,-2.3348,-2.3225,-2.3225,-2.3225,-2.3239,-2.3203,-2.3179,-2.3104,-2.308,-2.3203,-2.3106,-2.2889,-2.2804,-2.2659,-2.114,-2.11,-2.0767,-2.0612,-2.0572,-2.0409,-2.0336,-2.0268,-2.0268,-2.0268,-2.0268,-2.0268,-2.0268,-2.0268,-2.0361,-2.0361,-2.0361,-2.0418,-2.0531,-2.071,-2.0929,-2.1019,-2.1032,-2.0897,-2.0945,-2.1027,-2.1054,-2.1027,-2.0913,-2.0934,-2.0686,-2.0434,-2.0198,-2.012,-2.0071,-1.989,-1.9727,-1.9573,-1.9557,-1.9484,-1.9354,-1.9321,-1.9321,-1.9321,-1.942,-1.942,-1.9444,-1.9467,-1.954,-1.9573,-1.924,-1.929,-1.9388,-1.9012,-1.8987,-1.9348,-2.0753,-2.1695,-2.2125,-2.3761,-2.4747,-2.5443,-2.5487,-2.5056,-2.5604,-2.6013,-2.6611,-2.7748,-2.7819,-2.873,-3.0225,-3.0544,-3.0584,-3.0544,-3.0528,-3.002,-2.9446,-2.9095,-2.8978,-2.8751,-2.8895,-2.8724,-2.8577,-2.8631,-2.8895,-2.8698,-2.8885,-2.9005,-2.8978,-2.8885,-2.8848,-2.8711,-2.7941,-2.7087,-2.6454,-2.5798,-2.5215,-2.4629,-2.4078,-2.3872,-2.3897,-2.3756,-2.3535,-2.3451,-2.3451,-2.3418,-2.3309,-2.3297,-2.3333,-2.3369,-2.343,-2.32,-2.2985,-2.2971,-2.2887,-2.1246,-2.1108,-2.0889,-2.0718,-2.058,-2.0349,-2.0268,-2.0268,-2.0268,-2.0268,-2.0268,-2.0268,-2.0276,-2.0284,-2.0458,-2.0539,-2.0556,-2.0661,-2.084,-2.0948,-2.1013,-2.1287,-2.1398,-2.1205,-2.1108,-2.1094,-2.1078,-2.1173,-2.1205,-2.1092,-2.0962,-2.0779,-2.0434,-2.0206,-2.0152,-2.012,-1.9914,-1.976,-1.9735,-1.9638,-1.9492,-1.9459,-1.9467,-1.9484,-1.9589,-1.9662,-1.9729,-1.9711,-1.98,-1.99,-1.9743,-1.9573,-1.9492,-1.95,-1.9386,-1.9314,-1.9635,-2.0608,-2.1756,-2.2529,-2.3595,-2.4819,-2.4819,-2.5389,-2.5389,-2.5179,-2.5491,-2.6064,-2.6112,-2.6978,-2.8738,-2.8862,-2.9303,-3.013,-3.0399,-3.0346,-3.0309,-2.9806,-2.9446,-2.9285,-2.9165,-2.8948,-2.8815,-2.8881,-2.9001,-2.9005,-2.9152,-2.9352,-2.9339,-2.9285,-2.9192,-2.9098,-2.8186,-2.7298,-2.6787,-2.6087,-2.533,-2.4865,-2.4405,-2.4125,-2.415,-2.4089,-2.3884,-2.3776,-2.3728,-2.3643,-2.3623,-2.3635,-2.3655,-2.3668,-2.3619,-2.3402,-2.3273,-2.321,-2.3092,-2.1335,-2.1222,-2.0962,-2.0799,-2.0677,-2.0434,-2.0268,-2.0268,-2.0268,-2.0268,-2.0268,-2.0268,-2.0369,-2.045,-2.0556,-2.0637,-2.0751,-2.0897,-2.1027,-2.1157,-2.127,-2.1433,-2.149,-2.1449,-2.1376,-2.1376,-2.1384,-2.14,-2.1343,-2.123,-2.1067,-2.0978,-2.0702,-2.0616,-2.0478,-2.0353,-2.0223,-2.006,-1.9955,-1.9833,-1.967,-1.9646,-1.9703,-1.9735,-1.9792,-1.9817,-1.9906,-1.9914,-1.9965,-2.0006,-1.9995,-1.9955,-1.9792,-1.9784,-1.9678,-1.9573,-1.9525,-1.99,-2.0817,-2.1079,-2.152,-2.2781,-2.2764,-2.2707,-2.2669,-2.2621,-2.3199,-2.3836,-2.4307,-2.4942,-2.6927,-2.7061,-2.7652,-2.8069,-2.8314,-2.8497,-2.9284,-2.9795,-2.9953,-2.9806,-2.9686,-2.9419,-2.9242,-2.9282,-2.9295,-2.9366,-2.9499,-2.9686,-2.9606,-2.9539,-2.9432,-2.9136,-2.8238,-2.7501,-2.703,-2.6343,-2.5349,-2.4932,-2.4642,-2.4451,-2.4415,-2.433,-2.4198,-2.4138,-2.4077,-2.4053,-2.4005,-2.4029,-2.3933,-2.38,-2.3704,-2.3631,-2.3523,-2.3366,-2.3225,-2.1368,-2.1319,-2.1048,-2.0893,-2.082,-2.0458,-2.0268,-2.0268,-2.0268,-2.0344,-2.0361,-2.0361,-2.0483,-2.0612,-2.0686,-2.0783,-2.0999,-2.1075,-2.1189,-2.1222,-2.1481,-2.1571,-2.1579,-2.1668,-2.1717,-2.1756,-2.1691,-2.1618,-2.1433,-2.1287,-2.1213,-2.1116,-2.0978,-2.0885,-2.0853,-2.0763,-2.0523,-2.0344,-2.0174,-2.002,-1.9865,-1.9833,-1.9914,-2.0028,-2.0044,-2.0044,-2.0133,-2.0169,-2.0104,-1.9938,-2.0174,-2.0214,-2.0109,-1.9979,-1.9849,-1.9833,-1.9703,-1.9814,-1.9965,-1.9882,-1.9865,-1.9776,-1.9805,-1.9766,-1.9816,-2.0066,-2.0718,-2.1488,-2.2258,-2.2903,-2.4861,-2.5074,-2.5211,-2.5604,-2.5366,-2.595,-2.7428,-2.9155,-2.9312,-3.0221,-3.0167,-3.002,-2.982,-2.9766,-2.9753,-2.9766,-2.9855,-2.9953,-2.9887,-2.9775,-2.9695,-2.9308,-2.8473,-2.7498,-2.6997,-2.6605,-2.5645,-2.5318,-2.4981,-2.4861,-2.4776,-2.4656,-2.4583,-2.4499,-2.4451,-2.4403,-2.433,-2.4282,-2.415,-2.3945,-2.3848,-2.3824,-2.368,-2.3499,-2.3406,-2.1303,-2.1148,-2.0999,-2.0828,-2.0621,-2.0409,-2.0268,-2.0268,-2.0268,-2.0409,-2.0531,-2.0556,-2.0637,-2.0807,-2.0978,-2.1124,-2.123,-2.1295,-2.1319,-2.136,-2.1579,-2.1684,-2.1758,-2.1936,-2.1977,-2.1871,-2.1766,-2.1652,-2.1611,-2.1579,-2.1416,-2.1189,-2.1116,-2.1043,-2.0975,-2.0869,-2.0734,-2.0588,-2.0401,-2.0231,-2.0117,-2.0112,-2.0125,-2.0288,-2.0328,-2.0401,-2.0434,-2.0361,-2.0328,-2.0442,-2.0377,-2.032,-2.0279,-2.0239,-2.015,-2.0036,-2.0006,-1.9898,-1.9849,-1.9792,-1.976,-1.9776,-1.9784,-1.9752,-1.9703,-1.9589,-1.9858,-1.9917,-2.0306,-2.0846,-2.271,-2.2935,-2.3823,-2.4678,-2.5034,-2.5185,-2.5753,-2.6396,-2.77,-2.9297,-2.9997,-3.0162,-2.9397,-2.9138,-2.9469,-2.965,-3.0079,-3.0157,-3.0154,-3.0037,-2.9907,-2.9382,-2.8758,-2.776,-2.6848,-2.6548,-2.6005,-2.5861,-2.5608,-2.5446,-2.5325,-2.509,-2.4969,-2.4849,-2.4728,-2.462,-2.4571,-2.4576,-2.4391,-2.4198,-2.4113,-2.4041,-2.3945,-2.3836,-2.3764,-2.1278,-2.1116,-2.0929,-2.0812,-2.058,-2.0401,-2.0268,-2.0268,-2.0328,-2.0426,-2.0556,-2.0604,-2.0751,-2.0962,-2.1075,-2.1222,-2.1343,-2.1384,-2.1384,-2.1433,-2.166,-2.1709,-2.1758,-2.2009,-2.1985,-2.1863,-2.1782,-2.1741,-2.1676,-2.1758,-2.1628,-2.1473,-2.14,-2.1311,-2.114,-2.1043,-2.0962,-2.0832,-2.0694,-2.0564,-2.0511,-2.0454,-2.0434,-2.0539,-2.0515,-2.0547,-2.0677,-2.0564,-2.0556,-2.0669,-2.0698,-2.0556,-2.0491,-2.045,-2.0385,-2.0231,-2.0177,-2.0144,-2.006,-2.0068,-2.0068,-2.0068,-2.006,-2.0011,-1.9914,-1.9776,-1.967,-1.963,-1.9605,-1.9883,-2.0844,-2.0887,-2.1308,-2.1977,-2.2427,-2.2965,-2.3579,-2.3823,-2.5517,-2.7546,-2.7334,-2.7204,-2.7401,-2.7677,-2.8733,-2.9438,-2.9991,-3.0037,-2.9978,-2.9619,-2.9136,-2.9015,-2.8375,-2.783,-2.6969,-2.6649,-2.6391,-2.6283,-2.6102,-2.594,-2.5747,-2.5487,-2.5294,-2.5138,-2.5017,-2.4969,-2.4836,-2.48,-2.4632,-2.4475,-2.4403,-2.4342,-2.427,-2.4198,-2.4101,-2.1287,-2.1062,-2.097,-2.0807,-2.0637,-2.045,-2.0385,-2.0369,-2.0336,-2.045,-2.0637,-2.0669,-2.0856,-2.1108,-2.1197,-2.1262,-2.1384,-2.1384,-2.1384,-2.1449,-2.1684,-2.1701,-2.166,-2.1806,-2.1977,-2.1758,-2.1839,-2.1839,-2.1717,-2.1766,-2.1766,-2.1652,-2.1699,-2.1628,-2.1481,-2.14,-2.1232,-2.1148,-2.11,-2.1056,-2.0942,-2.0824,-2.0759,-2.0901,-2.0612,-2.0669,-2.0983,-2.0759,-2.0791,-2.0934,-2.0934,-2.0836,-2.0677,-2.0645,-2.058,-2.0434,-2.0263,-2.0271,-2.0328,-2.0426,-2.0426,-2.0426,-2.0426,-2.0353,-2.0231,-2.0076,-1.9873,-1.9817,-1.9768,-1.9711,-1.9874,-1.9551,-1.9569,-1.9627,-1.985,-1.9999,-2.1299,-2.1971,-2.2423,-2.3588,-2.3845,-2.4684,-2.5451,-2.6086,-2.7122,-2.7369,-2.7933,-2.7988,-2.7937,-2.7772,-2.7572,-2.8002,-2.7912,-2.7619,-2.7175,-2.6846,-2.668,-2.6632,-2.6403,-2.6218,-2.6049,-2.5837,-2.5656,-2.5475,-2.556,-2.5499,-2.5294,-2.5053,-2.4921,-2.48,-2.4716,-2.4595,-2.4463,-2.4427,-2.4366,-2.1287,-2.107,-2.11,-2.0994,-2.0861,-2.0637,-2.0564,-2.0539,-2.0409,-2.0515,-2.0877,-2.0893,-2.1019,-2.127,-2.1335,-2.136,-2.1376,-2.1384,-2.1384,-2.1425,-2.1611,-2.1684,-2.1644,-2.1839,-2.1839,-2.1684,-2.1823,-2.1814,-2.1701,-2.1748,-2.1748,-2.1708,-2.1732,-2.1693,-2.1709,-2.1684,-2.1668,-2.1441,-2.1528,-2.1447,-2.1165,-2.1189,-2.1083,-2.097,-2.0937,-2.1035,-2.1157,-2.0986,-2.1024,-2.1213,-2.1064,-2.0918,-2.0877,-2.0877,-2.0869,-2.0804,-2.0645,-2.0547,-2.0588,-2.0686,-2.0787,-2.0734,-2.0759,-2.0828,-2.0649,-2.0377,-2.0117,-1.9808,-1.98,-1.9808,-1.9768,-1.9727,-1.9638,-1.9589,-1.9631,-1.9615,-2.0167,-2.0723,-2.1113,-2.1001,-2.1667,-2.315,-2.4304,-2.4854,-2.5417,-2.5589,-2.5755,-2.5967,-2.5989,-2.5983,-2.5506,-2.5748,-2.6017,-2.5833,-2.5983,-2.589,-2.6206,-2.6387,-2.6602,-2.6395,-2.6315,-2.6114,-2.5981,-2.5873,-2.5945,-2.5873,-2.5596,-2.5379,-2.5234,-2.5114,-2.5017,-2.4824,-2.4607,-2.4595,-2.4668,-2.1278,-2.107,-2.107,-2.1019,-2.091,-2.0828,-2.0796,-2.0779,-2.0714,-2.0767,-2.0978,-2.101,-2.1148,-2.1352,-2.1384,-2.1384,-2.1384,-2.1392,-2.1384,-2.1425,-2.1563,-2.1611,-2.1587,-2.1766,-2.1798,-2.1628,-2.1652,-2.166,-2.1659,-2.1684,-2.1741,-2.1563,-2.1693,-2.1709,-2.1733,-2.1741,-2.1676,-2.1651,-2.1651,-2.1634,-2.1441,-2.1311,-2.1213,-2.1203,-2.1051,-2.1108,-2.1173,-2.1132,-2.1124,-2.1319,-2.1197,-2.1108,-2.1035,-2.1002,-2.0978,-2.091,-2.0897,-2.084,-2.0783,-2.0921,-2.0937,-2.0967,-2.0929,-2.0913,-2.0742,-2.058,-2.0385,-2.0125,-2.0003,-1.9963,-1.9922,-1.9849,-1.9768,-1.9735,-1.9776,-1.9743,-1.9711,-1.9687,-1.9957,-1.969,-1.9666,-2.129,-2.2697,-2.3199,-2.356,-2.3753,-2.4366,-2.505,-2.4891,-2.4588,-2.3926,-2.3162,-2.342,-2.3603,-2.3898,-2.4084,-2.4725,-2.524,-2.6468,-2.6333,-2.6467,-2.6355,-2.5704,-2.573,-2.5958,-2.585,-2.5694,-2.5692,-2.5504,-2.5396,-2.5331,-2.495,-2.4596,-2.5041,-2.5035,-2.1311,-2.1189,-2.1189,-2.1108,-2.104,-2.0999,-2.0921,-2.0975,-2.091,-2.0945,-2.11,-2.1173,-2.1262,-2.136,-2.1384,-2.1408,-2.1457,-2.1449,-2.149,-2.1555,-2.1595,-2.162,-2.1628,-2.1758,-2.1668,-2.1449,-2.1538,-2.1522,-2.1522,-2.1595,-2.1628,-2.1465,-2.1701,-2.1741,-2.1644,-2.1684,-2.1741,-2.1741,-2.1676,-2.1708,-2.1651,-2.1408,-2.1352,-2.1295,-2.126,-2.117,-2.1238,-2.1335,-2.1433,-2.1498,-2.1473,-2.1376,-2.1295,-2.1222,-2.1157,-2.1075,-2.1116,-2.1116,-2.1067,-2.1108,-2.11,-2.1083,-2.1059,-2.1083,-2.0832,-2.0726,-2.0653,-2.0466,-2.0304,-2.0231,-2.0166,-2.0052,-1.9938,-1.9922,-1.9922,-1.989,-1.9873,-1.9865,-1.9833,-1.9776,-1.9678,-1.9516,-2.0673,-2.1324,-2.1709,-2.1937,-2.2737,-2.3817,-2.345,-2.2719,-2.2049,-2.1101,-2.1848,-2.211,-2.2263,-2.2639,-2.3215,-2.3783,-2.5012,-2.5264,-2.4767,-2.4587,-2.4093,-2.4531,-2.5187,-2.452,-2.3537,-2.4693,-2.5699,-2.4928,-2.4402,-2.4604,-2.4663,-2.4996,-2.5213,-2.1376,-2.1368,-2.136,-2.1343,-2.1319,-2.1173,-2.1108,-2.1092,-2.0937,-2.0986,-2.1165,-2.1287,-2.1376,-2.1392,-2.1416,-2.1481,-2.1675,-2.1691,-2.1684,-2.1733,-2.1758,-2.1741,-2.1741,-2.1668,-2.1563,-2.1595,-2.1571,-2.1465,-2.14,-2.1457,-2.1555,-2.1691,-2.1693,-2.1782,-2.179,-2.1774,-2.1798,-2.1782,-2.1709,-2.1716,-2.1708,-2.1571,-2.1514,-2.1449,-2.1577,-2.1667,-2.1675,-2.1693,-2.1717,-2.1749,-2.1628,-2.1618,-2.1465,-2.1384,-2.1295,-2.1287,-2.1287,-2.1295,-2.1287,-2.1287,-2.1335,-2.1343,-2.1319,-2.1246,-2.1027,-2.1005,-2.0986,-2.0799,-2.0612,-2.0539,-2.0483,-2.0401,-2.0206,-2.0101,-2.0085,-2.0093,-2.0068,-2.0052,-2.0071,-2.0006,-1.99,-1.9703,-1.9662,-2.0578,-2.0643,-2.0805,-2.0656,-2.1691,-2.0657,-1.9973,-1.9676,-1.9444,-2.0472,-2.088,-2.09,-2.1233,-2.1412,-2.1669,-2.2504,-2.2393,-2.1868,-2.1843,-2.2642,-2.2419,-2.2746,-2.2105,-2.1935,-2.3295,-2.4052,-2.3621,-2.3346,-2.3183,-2.337,-2.3632,-2.4139,-2.1384,-2.1384,-2.1384,-2.1384,-2.1376,-2.1311,-2.1287,-2.1278,-2.1213,-2.1268,-2.1295,-2.1465,-2.149,-2.1441,-2.1561,-2.1569,-2.1553,-2.149,-2.162,-2.1756,-2.1765,-2.1774,-2.1798,-2.1814,-2.1774,-2.1774,-2.1652,-2.1628,-2.1717,-2.1514,-2.1514,-2.1659,-2.1708,-2.1603,-2.1644,-2.1709,-2.1701,-2.1652,-2.1644,-2.1716,-2.1691,-2.1602,-2.1506,-2.1634,-2.1651,-2.1642,-2.1585,-2.1668,-2.1668,-2.1636,-2.1563,-2.1555,-2.1563,-2.1465,-2.1425,-2.1408,-2.1408,-2.14,-2.1392,-2.1392,-2.1384,-2.1384,-2.1368,-2.1319,-2.1165,-2.1132,-2.1108,-2.0978,-2.091,-2.0767,-2.0779,-2.0588,-2.0426,-2.0304,-2.0255,-2.0271,-2.0239,-2.0198,-2.0182,-2.0117,-2.0079,-1.9922,-1.9914,-2.0024,-1.9895,-1.9724,-1.9531,-1.9231,-1.8522,-1.7915,-1.7822,-1.7604,-1.8398,-1.8491,-1.8447,-1.8886,-1.9398,-1.9762,-2.0066,-2.0021,-2.0004,-2.1007,-2.1515,-2.1045,-2.064,-2.0649,-2.1093,-2.217,-2.2394,-2.1825,-2.1542,-2.1393,-2.1699,-2.2135,-2.2679,-2.1384,-2.1384,-2.1384,-2.1384,-2.1384,-2.1384,-2.1384,-2.1384,-2.1376,-2.1425,-2.1473,-2.1555,-2.1555,-2.1561,-2.1514,-2.1626,-2.1498,-2.1569,-2.1603,-2.1732,-2.1725,-2.1814,-2.1888,-2.1871,-2.1766,-2.1888,-2.179,-2.1733,-2.1871,-2.1603,-2.1579,-2.1667,-2.1651,-2.1498,-2.1473,-2.149,-2.1561,-2.1457,-2.1545,-2.1634,-2.1602,-2.1528,-2.148,-2.1618,-2.1667,-2.1675,-2.1642,-2.1684,-2.1766,-2.1709,-2.1652,-2.1611,-2.1603,-2.1587,-2.1555,-2.153,-2.1498,-2.1473,-2.1457,-2.1408,-2.1384,-2.1384,-2.1384,-2.1319,-2.1238,-2.1205,-2.1213,-2.1197,-2.1043,-2.0929,-2.0975,-2.0775,-2.0596,-2.0466,-2.0418,-2.0418,-2.0328,-2.0279,-2.0288,-2.0271,-2.0158,-2.002,-1.9917,-1.9865,-1.9636,-1.9452,-1.9322,-1.8823,-1.7884,-1.7262,-1.6741,-1.6419,-1.6197,-1.597,-1.565,-1.6678,-1.7561,-1.7498,-1.789,-1.843,-1.8772,-1.9596,-1.9602,-1.8645,-1.8551,-1.9236,-1.9363,-1.9264,-1.9578,-1.9914,-1.9742,-1.9671,-1.9949,-2.0351,-2.0852,-2.1384,-2.1384,-2.1384,-2.1384,-2.1384,-2.1384,-2.1384,-2.1392,-2.1408,-2.1537,-2.1634,-2.1506,-2.1514,-2.1571,-2.1506,-2.1506,-2.1563,-2.1595,-2.1693,-2.1782,-2.1781,-2.1879,-2.1888,-2.1823,-2.1782,-2.2009,-2.1904,-2.1806,-2.1953,-2.1717,-2.166,-2.1667,-2.1602,-2.1416,-2.1392,-2.1384,-2.1384,-2.1392,-2.14,-2.1416,-2.1416,-2.14,-2.1408,-2.1449,-2.1642,-2.1683,-2.1651,-2.1725,-2.1814,-2.1831,-2.1806,-2.1831,-2.1928,-2.1879,-2.1855,-2.1855,-2.1725,-2.166,-2.1691,-2.1481,-2.1408,-2.1408,-2.1425,-2.136,-2.136,-2.136,-2.1343,-2.1303,-2.1205,-2.1116,-2.1051,-2.0954,-2.0775,-2.0645,-2.0604,-2.0539,-2.045,-2.0385,-2.0401,-2.0336,-2.019,-2.0068,-1.9862,-1.968,-1.9493,-1.9259,-1.9119,-1.8468,-1.7444,-1.6885,-1.646,-1.5987,-1.5567,-1.5466,-1.5411,-1.5309,-1.5646,-1.5546,-1.5934,-1.6777,-1.6902,-1.7084,-1.677,-1.62,-1.663,-1.744,-1.6642,-1.5765,-1.6834,-1.7939,-1.8056,-1.8106,-1.833,-1.8476,-1.8757,-2.1384,-2.1384,-2.1384,-2.1384,-2.1384,-2.1384,-2.1384,-2.1408,-2.1498,-2.1538,-2.1538,-2.1636,-2.1611,-2.1546,-2.1563,-2.1546,-2.1498,-2.1481,-2.1579,-2.1733,-2.1732,-2.1814,-2.1863,-2.1847,-2.1823,-2.1944,-2.1879,-2.1912,-2.2107,-2.1831,-2.1774,-2.1741,-2.1522,-2.14,-2.1384,-2.1384,-2.1384,-2.1384,-2.1384,-2.1384,-2.1384,-2.1384,-2.1384,-2.1384,-2.1618,-2.1659,-2.1585,-2.1701,-2.1758,-2.1782,-2.1741,-2.1823,-2.1912,-2.1863,-2.1936,-2.1936,-2.1839,-2.1782,-2.166,-2.1514,-2.1457,-2.1537,-2.1504,-2.1384,-2.1384,-2.1384,-2.1384,-2.1376,-2.1319,-2.123,-2.1124,-2.1083,-2.0954,-2.0869,-2.0804,-2.0669,-2.0588,-2.0539,-2.0499,-2.0377,-2.0239,-2.0214,-2.0111,-1.956,-1.9243,-1.8856,-1.8661,-1.8225,-1.7371,-1.6992,-1.6623,-1.6084,-1.5676,-1.5533,-1.5425,-1.5418,-1.5418,-1.5568,-1.5616,-1.589,-1.5719,-1.5608,-1.567,-1.596,-1.578,-1.5546,-1.5451,-1.5398,-1.5512,-1.6032,-1.6486,-1.6619,-1.6678,-1.6542,-1.625,-2.1384,-2.1392,-2.1512,-2.1496,-2.1392,-2.1384,-2.1384,-2.1416,-2.1579,-2.162,-2.1644,-2.1783,-2.1863,-2.1733,-2.1701,-2.1717,-2.1571,-2.1506,-2.1561,-2.1699,-2.1634,-2.1684,-2.1774,-2.1806,-2.179,-2.1871,-2.1888,-2.1937,-2.2058,-2.1871,-2.1741,-2.1644,-2.1514,-2.1408,-2.1384,-2.1384,-2.1384,-2.1384,-2.1384,-2.1384,-2.1384,-2.1384,-2.1384,-2.1416,-2.1537,-2.1585,-2.1514,-2.153,-2.1626,-2.1563,-2.162,-2.1701,-2.1766,-2.1855,-2.1936,-2.1936,-2.1855,-2.1782,-2.1644,-2.149,-2.1481,-2.1675,-2.1537,-2.14,-2.1384,-2.1384,-2.1384,-2.1384,-2.1384,-2.1327,-2.1238,-2.1205,-2.1132,-2.1048,-2.0926,-2.0791,-2.0637,-2.0588,-2.0483,-2.0361,-2.032,-2.032,-2.0164,-1.9522,-1.8992,-1.8567,-1.8136,-1.7702,-1.7251,-1.6912,-1.6651,-1.6256,-1.5852,-1.5716,-1.5649,-1.5587,-1.5642,-1.5649,-1.5676,-1.5661,-1.5764,-1.5798,-1.5778,-1.5729,-1.5798,-1.5744,-1.5479,-1.5432,-1.5437,-1.5375,-1.5509,-1.5462,-1.5181,-1.514,-1.5126,-2.1376,-2.1408,-2.1634,-2.1594,-2.14,-2.1384,-2.1384,-2.1471,-2.1595,-2.1766,-2.192,-2.1872,-2.1977,-2.2082,-2.1985,-2.1848,-2.1807,-2.1725,-2.1701,-2.1708,-2.1603,-2.1636,-2.1659,-2.1571,-2.166,-2.1814,-2.1912,-2.192,-2.1896,-2.1953,-2.1782,-2.1498,-2.1416,-2.1384,-2.1384,-2.1384,-2.1384,-2.1384,-2.1384,-2.1384,-2.1384,-2.1384,-2.1384,-2.14,-2.1416,-2.149,-2.149,-2.1553,-2.1595,-2.166,-2.1733,-2.1798,-2.1863,-2.188,-2.1944,-2.1904,-2.1798,-2.1701,-2.1691,-2.1481,-2.1465,-2.1618,-2.1473,-2.1408,-2.1384,-2.1384,-2.1384,-2.1384,-2.1384,-2.1384,-2.136,-2.1327,-2.1287,-2.1148,-2.1002,-2.0848,-2.0661,-2.0539,-2.0426,-2.0353,-2.0328,-2.0216,-1.9955,-1.9433,-1.8738,-1.8224,-1.7794,-1.7293,-1.6876,-1.6607,-1.6405,-1.641,-1.6103,-1.5927,-1.5817,-1.5783,-1.5839,-1.5839,-1.5832,-1.581,-1.592,-1.6003,-1.5927,-1.5934,-1.5995,-1.5886,-1.556,-1.5357,-1.5262,-1.5181,-1.5181,-1.5181,-1.5181,-1.5181,-1.5147,-2.127,-2.1392,-2.1441,-2.1433,-2.1392,-2.1384,-2.1504,-2.1595,-2.1774,-2.1839,-2.1936,-2.2066,-2.2107,-2.2001,-2.1896,-2.1953,-2.1928,-2.1888,-2.1863,-2.1814,-2.1758,-2.1717,-2.1724,-2.1667,-2.1595,-2.1611,-2.1709,-2.1888,-2.2066,-2.2099,-2.1831,-2.1465,-2.1416,-2.14,-2.1384,-2.1384,-2.1384,-2.1384,-2.1384,-2.1384,-2.1384,-2.1384,-2.1384,-2.1384,-2.1384,-2.1441,-2.1433,-2.1433,-2.1498,-2.1506,-2.1691,-2.1741,-2.1912,-2.2042,-2.2115,-2.2082,-2.1871,-2.1716,-2.1683,-2.149,-2.1425,-2.1537,-2.1416,-2.14,-2.1384,-2.1392,-2.1392,-2.1384,-2.1384,-2.1384,-2.1384,-2.136,-2.1352,-2.127,-2.114,-2.1002,-2.0815,-2.0653,-2.0531,-2.0344,-2.0268,-2.0059,-1.9851,-1.9216,-1.8581,-1.797,-1.7436,-1.6923,-1.6588,-1.6374,-1.6293,-1.6354,-1.6212,-1.6001,-1.6015,-1.6001,-1.6022,-1.6035,-1.6001,-1.5981,-1.6001,-1.6078,-1.6092,-1.6008,-1.594,-1.5757,-1.5506,-1.533,-1.5187,-1.5181,-1.5181,-1.5181,-1.5181,-1.5181,-1.5181,-2.1189,-2.1295,-2.1441,-2.1545,-2.1481,-2.1471,-2.149,-2.1668,-2.1855,-2.1961,-2.205,-2.2221,-2.2245,-2.218,-2.2172,-2.2164,-2.2156,-2.2074,-2.2034,-2.2026,-2.192,-2.1871,-2.179,-2.1766,-2.1733,-2.1676,-2.1709,-2.1896,-2.2066,-2.2066,-2.1839,-2.1555,-2.1545,-2.1441,-2.1408,-2.1384,-2.1384,-2.1384,-2.1384,-2.1384,-2.1384,-2.1384,-2.1384,-2.1384,-2.1384,-2.1384,-2.1384,-2.1384,-2.1384,-2.1384,-2.1577,-2.1636,-2.1814,-2.1977,-2.2009,-2.1944,-2.1798,-2.1724,-2.1683,-2.1545,-2.1504,-2.1504,-2.1425,-2.1441,-2.1441,-2.1449,-2.1408,-2.1384,-2.1384,-2.1384,-2.1384,-2.1384,-2.1376,-2.1368,-2.127,-2.1173,-2.1002,-2.0832,-2.0621,-2.0385,-2.0164,-1.9955,-1.959,-1.8955,-1.838,-1.7772,-1.7244,-1.6766,-1.6473,-1.6381,-1.6354,-1.6429,-1.6239,-1.6085,-1.609,-1.6151,-1.6137,-1.6123,-1.6096,-1.6083,-1.6146,-1.6112,-1.6092,-1.5927,-1.5798,-1.5622,-1.5459,-1.5303,-1.5181,-1.5181,-1.5181,-1.5187,-1.5187,-1.5181,-1.5181,-2.1046,-2.1165,-2.1498,-2.1667,-2.1667,-2.1504,-2.149,-2.1724,-2.1831,-2.2009,-2.2188,-2.2383,-2.2497,-2.2383,-2.2383,-2.2399,-2.235,-2.2269,-2.2221,-2.2204,-2.2115,-2.2017,-2.1969,-2.1944,-2.1896,-2.192,-2.1936,-2.192,-2.1904,-2.2074,-2.2099,-2.1756,-2.174,-2.1595,-2.1408,-2.1384,-2.1384,-2.1384,-2.1384,-2.1384,-2.1384,-2.1384,-2.1384,-2.1384,-2.1384,-2.1384,-2.1384,-2.1384,-2.1384,-2.1384,-2.1416,-2.1498,-2.1676,-2.1806,-2.1798,-2.1733,-2.1708,-2.1667,-2.1642,-2.1553,-2.1506,-2.1506,-2.1506,-2.149,-2.1481,-2.1449,-2.14,-2.1384,-2.1384,-2.1384,-2.1384,-2.1384,-2.1384,-2.1368,-2.1311,-2.1213,-2.1083,-2.0811,-2.0507,-2.026,-1.9979,-1.9718,-1.903,-1.8454,-1.8145,-1.7585,-1.7183,-1.6697,-1.6418,-1.6395,-1.6361,-1.6429,-1.6239,-1.6139,-1.6225,-1.6259,-1.6218,-1.6198,-1.6171,-1.6123,-1.6096,-1.6105,-1.6071,-1.59,-1.5764,-1.5601,-1.5445,-1.5296,-1.5194,-1.5181,-1.5187,-1.5194,-1.5194,-1.5154,-1.4993,-2.088,-2.1086,-2.136,-2.1504,-2.1449,-2.1408,-2.149,-2.1716,-2.1756,-2.1904,-2.2188,-2.2367,-2.2514,-2.2497,-2.2514,-2.2464,-2.244,-2.2407,-2.2407,-2.2383,-2.231,-2.2204,-2.2156,-2.2131,-2.2074,-2.1969,-2.1936,-2.1985,-2.1985,-2.2285,-2.2334,-2.1766,-2.1774,-2.1733,-2.1433,-2.1408,-2.1408,-2.1384,-2.1384,-2.1384,-2.1384,-2.1384,-2.1384,-2.1384,-2.1384,-2.1384,-2.1384,-2.1384,-2.1384,-2.1384,-2.1384,-2.149,-2.1652,-2.1709,-2.1709,-2.1652,-2.1563,-2.1546,-2.1569,-2.1577,-2.1546,-2.153,-2.1514,-2.1498,-2.1473,-2.1416,-2.1384,-2.1384,-2.1384,-2.1384,-2.1384,-2.1384,-2.1376,-2.136,-2.1343,-2.1238,-2.114,-2.0781,-2.0401,-2.0138,-1.9833,-1.9278,-1.8588,-1.8138,-1.7833,-1.7523,-1.7298,-1.6965,-1.6628,-1.6466,-1.6307,-1.6307,-1.6198,-1.6137,-1.6266,-1.63,-1.6225,-1.6225,-1.6212,-1.6157,-1.6096,-1.6069,-1.6029,-1.5886,-1.5737,-1.5601,-1.5459,-1.5296,-1.5215,-1.5194,-1.5228,-1.5248,-1.5073,-1.4992,-1.475,-2.071,-2.0913,-2.1165,-2.1319,-2.1376,-2.1384,-2.1449,-2.1594,-2.1675,-2.1822,-2.1985,-2.2212,-2.2342,-2.2432,-2.2424,-2.2464,-2.2464,-2.2464,-2.2448,-2.2456,-2.2472,-2.2399,-2.24,-2.231,-2.2277,-2.2188,-2.2172,-2.2196,-2.2164,-2.2359,-2.2359,-2.1961,-2.1985,-2.1879,-2.161,-2.1553,-2.1465,-2.1384,-2.14,-2.14,-2.14,-2.1392,-2.1384,-2.1384,-2.1384,-2.1384,-2.1384,-2.1384,-2.1384,-2.1425,-2.1465,-2.1465,-2.162,-2.1798,-2.1862,-2.1725,-2.1644,-2.1595,-2.1602,-2.1594,-2.1595,-2.1611,-2.1498,-2.1473,-2.1652,-2.1603,-2.14,-2.1384,-2.1384,-2.1384,-2.1384,-2.1384,-2.1384,-2.1368,-2.1352,-2.1287,-2.1181,-2.0965,-2.0503,-2.0064,-1.9697,-1.9227,-1.8564,-1.8011,-1.7671,-1.7133,-1.6978,-1.6965,-1.6689,-1.6554,-1.6402,-1.6239,-1.6164,-1.6103,-1.6157,-1.6191,-1.6171,-1.6191,-1.6225,-1.6164,-1.6133,-1.6076,-1.6035,-1.5906,-1.5778,-1.5642,-1.5493,-1.5343,-1.5235,-1.5248,-1.5255,-1.5316,-1.5093,-1.4821,-1.445,-2.0629,-2.071,-2.1027,-2.1246,-2.1368,-2.1384,-2.1384,-2.1416,-2.1555,-2.1675,-2.1732,-2.1977,-2.2115,-2.2245,-2.2375,-2.2432,-2.2464,-2.2464,-2.2464,-2.2513,-2.2521,-2.2513,-2.2513,-2.2554,-2.2448,-2.2448,-2.244,-2.2342,-2.2253,-2.2497,-2.2562,-2.2277,-2.2147,-2.205,-2.1798,-2.1676,-2.1636,-2.1563,-2.153,-2.1498,-2.1449,-2.14,-2.1384,-2.1384,-2.1384,-2.1384,-2.1384,-2.1384,-2.1384,-2.1425,-2.149,-2.1481,-2.153,-2.1701,-2.1717,-2.166,-2.166,-2.1652,-2.1708,-2.1587,-2.1709,-2.1749,-2.1563,-2.1587,-2.179,-2.1693,-2.149,-2.1416,-2.1416,-2.1384,-2.1384,-2.1384,-2.1384,-2.1376,-2.136,-2.1343,-2.1238,-2.1024,-2.0525,-1.9969,-1.9486,-1.9,-1.8448,-1.7886,-1.7517,-1.6967,-1.6716,-1.6642,-1.6639,-1.6547,-1.6483,-1.6327,-1.6218,-1.6171,-1.6117,-1.611,-1.6123,-1.6123,-1.6144,-1.6153,-1.6133,-1.6076,-1.6092,-1.5996,-1.5867,-1.5676,-1.556,-1.5425,-1.533,-1.5235,-1.5296,-1.5323,-1.5173,-1.4845,-1.4212,-2.0767,-2.1043,-2.1246,-2.1352,-2.1384,-2.1384,-2.1384,-2.1384,-2.1416,-2.1488,-2.1569,-2.1724,-2.1896,-2.2196,-2.2391,-2.2464,-2.2464,-2.2472,-2.257,-2.2659,-2.261,-2.2635,-2.2643,-2.2586,-2.257,-2.2545,-2.2545,-2.2545,-2.2407,-2.2643,-2.2643,-2.2245,-2.2367,-2.2229,-2.1944,-2.1863,-2.1847,-2.1774,-2.1766,-2.1766,-2.1701,-2.1603,-2.14,-2.1384,-2.1384,-2.1384,-2.1384,-2.1384,-2.1384,-2.14,-2.1488,-2.1496,-2.1506,-2.1579,-2.1587,-2.1611,-2.1611,-2.1644,-2.1628,-2.1709,-2.1863,-2.1928,-2.1814,-2.1871,-2.192,-2.1782,-2.1628,-2.161,-2.1577,-2.1416,-2.14,-2.1384,-2.1384,-2.1384,-2.1368,-2.1368,-2.1319,-2.084,-2.0295,-1.9715,-1.9092,-1.8535,-1.7848,-1.7571,-1.7523,-1.7081,-1.7039,-1.6958,-1.6829,-1.67,-1.6506,-1.6442,-1.6313,-1.6191,-1.6117,-1.6139,-1.6146,-1.6133,-1.6133,-1.6133,-1.6133,-1.6133,-1.6085,-1.603,-1.5845,-1.5696,-1.5533,-1.554,-1.5404,-1.533,-1.5364,-1.5316,-1.5185,-1.4815,-1.4124]},{"header":{"parameterUnit":"m.s-1","parameterCategory":1,"la1":31.0,"la2":29.5877,"lo1":-88.7671,"lo2":-86.6584,"dy":0.0162,"dx":0.0185,"nx":115,"ny":88,"refTime":"2023-10-22T18:00:00:Z","depth":0,"parameterNumber":3,"parameterNumberName":"V-component_of_WINDS"},"data":[0.0,0.0,0.0,0.0,0.0,0.0,0.0,0.0,0.0,0.0,0.0,0.0,0.0,0.0,0.0,0.0,0.0,0.0,0.0,0.0,0.0,0.0,0.0,0.0,0.0,0.0,0.0,0.0,0.0,0.0,0.0,0.0,0.0,0.0,0.0,0.0,0.0,0.0,0.0,0.0,0.0,0.0,0.0,0.0,0.0,0.0,0.0,0.0,0.0,0.0,0.0,0.0,0.0,0.0,0.0,0.0,0.0,0.0,0.0,0.0,0.0,0.0,0.0,0.0,0.0,0.0,0.0,0.0,0.0,0.0,0.0,0.0,0.0,0.0,0.0,0.0,0.0,0.0,0.0,0.0,0.0,0.0,0.0,0.0,0.0,0.0,0.0,0.0,0.0,0.0,0.0,0.0,0.0,0.0,0.0,0.0,0.0,0.0,0.0,0.0,0.0,0.0,0.0,0.0,0.0,0.0,0.0,0.0,0.0,0.0,0.0,0.0,0.0,0.0,0.0,0.0,0.0,0.0,0.0,0.0,0.0,0.0,0.0,0.0,0.0,0.0,0.0,0.0,0.0,0.0,0.0,0.0,0.0,0.0,0.0,0.0,0.0,0.0,0.0,0.0,0.0,0.0,0.0,0.0,0.0,0.0,0.0,0.0,0.0,0.0,0.0,0.0,0.0,0.0,0.0,0.0,0.0,0.0,0.0,0.0,0.0,0.0,0.0,0.0,0.0,0.0,0.0,0.0,0.0,0.0,0.0,0.0,0.0,0.0,0.0,0.0,0.0,0.0,0.0,0.0,0.0,0.0,0.0,0.0,0.0,0.0,0.0,0.0,0.0,0.0,0.0,0.0,0.0,0.0,0.0,0.0,0.0,0.0,0.0,0.0,0.0,0.0,0.0,0.0,0.0,0.0,0.0,0.0,0.0,0.0,0.0,0.0,0.0,0.0,0.0,0.0,0.0,0.0,0.0,0.0,0.0,0.0,0.0,0.0,0.0,0.0,0.0,0.0,0.0,0.0,0.0,0.0,0.0,0.0,0.0,0.0,0.0,0.0,0.0,0.0,0.0,0.0,0.0,0.0,0.0,0.0,0.0,0.0,0.0,0.0,0.0,0.0,0.0,0.0,0.0,0.0,0.0,0.0,0.0,0.0,0.0,0.0,0.0,0.0,0.0,0.0,0.0,0.0,0.0,0.0,0.0,0.0,0.0,0.0,0.0,0.0,0.0,0.0,0.0,0.0,0.0,0.0,0.0,0.0,0.0,0.0,0.0,0.0,0.0,0.0,0.0,0.0,0.0,0.0,0.0,0.0,0.0,0.0,0.0,0.0,0.0,0.0,0.0,0.0,0.0,0.0,0.0,0.0,0.0,0.0,0.0,0.0,0.0,0.0,0.0,0.0,0.0,0.0,0.0,0.0,0.0,0.0,0.0,0.0,0.0,0.0,0.0,0.0,0.0,0.0,0.0,0.0,0.0,0.0,0.0,0.0,0.0,0.0,0.0,0.0,0.0,0.0,0.0,0.0,0.0,0.0,0.0,0.0,0.0,0.0,0.0,0.0,0.0,0.0,0.0,0.0,0.0,0.0,0.0,0.0,0.0,0.0,0.0,0.0,0.0,0.0,0.0,0.0,0.0,0.0,0.0,0.0,0.0,0.0,0.0,0.0,0.0,0.0,0.0,0.0,0.0,0.0,0.0,0.0,0.0,0.0,0.0,0.0,0.0,0.0,0.0,0.0,0.0,0.0,0.0,0.0,0.0,0.0,0.0,0.0,0.0,0.0,0.0,0.0,0.0,0.0,0.0,0.0,0.0,0.0,0.0,0.0,0.0,0.0,0.0,0.0,0.0,0.0,0.0,0.0,0.0,0.0,0.0,0.0,0.0,0.0,0.0,0.0,0.0,0.0,0.0,0.0,0.0,0.0,0.0,0.0,0.0,0.0,0.0,0.0,0.0,0.0,0.0,0.0,0.0,0.0,0.0,0.0,0.0,0.0,0.0,0.0,0.0,0.0,0.0,0.0,0.0,0.0,0.0,0.0,0.0,0.0,0.0,0.0,0.0,0.0,0.0,0.0,0.0,0.0,0.0,0.0,0.0,0.0,0.0,0.0,0.0,0.0,0.0,0.0,0.0,0.0,0.0,0.0,0.0,0.0,0.0,0.0,0.0,0.0,0.0,0.0,0.0,0.0,0.0,0.0,0.0,0.0,0.0,0.0,0.0,0.0,0.0,0.0,0.0,0.0,0.0,0.0,0.0,0.0,0.0,0.0,0.0,0.0,0.0,0.0,0.0,0.0,0.0,0.0,0.0,0.0,0.0,0.0,0.0,0.0,0.0,0.0,0.0,0.0,0.0,0.0,0.0,0.0,0.0,0.0,0.0,0.0,0.0,0.0,0.0,0.0,0.0,0.0,0.0,0.0,0.0,0.0,0.0,0.0,0.0,0.0,0.0,0.0,0.0,0.0,0.0,0.0,0.0,0.0,0.0,0.0,0.0,0.0,0.0,0.0,0.0,0.0,0.0,0.0,0.0,0.0,0.0,0.0,0.0,0.0,0.0,0.0,0.0,0.0,0.0,0.0,0.0,0.0,0.0,0.0,0.0,0.0,0.0,0.0,0.0,0.0,0.0,0.0,0.0,0.0,0.0,0.0,0.0,0.0,0.0,0.0,0.0,0.0,0.0,0.0,0.0,0.0,0.0,0.0,0.0,0.0,0.0,0.0,0.0,0.0,0.0,0.0,0.0,0.0,0.0,0.0,0.0,0.0,0.0,0.0,0.0,0.0,0.0,0.0,0.0,0.0,0.0,0.0,0.0,0.0,0.0,0.0,0.0,0.0,0.0,0.0,0.0,0.0,0.0,0.0,0.0,0.0,0.0,0.0,0.0,0.0,0.0,0.0,0.0,0.0,0.0,0.0,0.0,0.0,0.0,0.0,0.0,0.0,0.0,0.0,0.0,0.0,0.0,0.0,0.0,0.0,0.0,0.0,0.0,0.0,0.0,0.0,0.0,0.0,0.0,0.0,0.0,0.0,0.0,0.0,0.0,0.0,0.0,0.0,0.0,0.0,0.0,0.0,0.0,0.0,0.0,0.0,0.0,0.0,0.0,0.0,0.0,0.0,0.0,0.0,0.0,0.0,0.0,0.0,0.0,0.0,0.0,0.0,0.0,0.0,0.0,0.0,0.0,0.0,0.0,0.0,0.0,0.0,0.0,0.0,0.0,0.0,0.0,0.0,0.0,0.0,0.0,0.0,0.0,0.0,0.0,0.0,0.0,0.0,0.0,0.0,0.0,0.0,0.0,0.0,0.0,0.0,0.0,0.0,0.0,0.0,0.0,0.0,0.0,0.0,0.0,0.0,0.0,0.0,0.0,0.0,0.0,0.0,0.0,0.0,0.0,0.0,0.0,0.0,0.0,0.0,0.0,0.0,0.0,0.0,0.0,0.0,0.0,0.0,0.0,0.0,0.0,0.0,0.0,0.0,0.0,0.0,0.0,0.0,0.0,0.0,0.0,0.0,0.0,0.0,0.0,0.0,0.0,0.0,0.0,0.0,0.0,0.0,0.0,0.0,0.0,0.0,0.0,0.0,0.0,0.0,0.0,0.0,0.0,0.0,0.0,0.0,0.0,0.0,0.0,0.0,0.0,0.0,0.0,0.0,0.0,0.0,0.0,0.0,0.0,0.0,0.0,0.0,0.0,0.0,0.0,0.0,0.0,0.0,0.0,0.0,0.0,0.0,0.0,0.0,0.0,0.0,0.0,0.0,0.0,0.0,0.0,0.0,0.0,0.0,0.0,0.0,0.0,0.0,0.0,0.0,0.0,0.0,0.0,0.0,0.0,0.0,0.0,0.0,0.0,0.0,0.0,0.0,0.0,0.0,0.0,0.0,0.0,0.0,0.0,0.0,0.0,0.0,0.0,0.0,0.0,0.0,0.0,0.0,0.0,0.0,0.0,0.0,0.0,0.0,0.0,0.0,0.0,0.0,0.0,0.0,0.0,0.0,0.0,0.0,0.0,0.0,0.0,0.0,0.0,0.0,0.0,0.0,0.0,0.0,0.0,0.0,0.0,0.0,0.0,0.0,0.0,0.0,0.0,0.0,0.0,0.0,0.0,0.0,0.0,0.0,0.0,0.0,0.0,0.0,0.0,0.0,0.0,0.0,0.0,0.0,0.0,0.0,0.0,0.0,0.0,0.0,0.0,0.0,0.0,0.0,0.0,0.0,0.0,0.0,0.0,0.0,0.0,0.0,0.0,0.0,0.0,0.0,0.0,0.0,2.9103,0.0,0.0,0.0,0.0,0.0,0.0,0.0,0.0,0.0,0.0,0.0,0.0,0.0,0.0,0.0,0.0,0.0,0.0,0.0,0.0,0.0,0.0,0.0,0.0,0.0,0.0,0.0,0.0,0.0,0.0,0.0,0.0,0.0,0.0,0.0,0.0,0.0,0.0,0.0,0.0,0.0,0.0,0.0,0.0,0.0,0.0,0.0,0.0,0.0,0.0,0.0,0.0,0.0,0.0,0.0,0.0,0.0,0.0,0.0,0.0,0.0,0.0,0.0,0.0,0.0,0.0,0.0,0.0,0.0,0.0,0.0,0.0,0.0,0.0,0.0,0.0,0.0,0.0,0.0,0.0,0.0,0.0,0.0,0.0,0.0,0.0,0.0,0.0,0.0,0.0,0.0,0.0,0.0,0.0,0.0,0.0,0.0,0.0,0.0,0.0,0.0,0.0,0.0,0.0,0.0,0.0,0.0,0.0,0.0,0.0,2.8943,2.9001,2.9048,2.9114,2.9114,0.0,0.0,0.0,0.0,0.0,0.0,0.0,0.0,0.0,0.0,0.0,0.0,0.0,0.0,0.0,0.0,0.0,0.0,0.0,0.0,0.0,0.0,0.0,0.0,0.0,0.0,0.0,0.0,0.0,0.0,0.0,0.0,0.0,0.0,0.0,0.0,0.0,0.0,0.0,0.0,0.0,0.0,0.0,0.0,0.0,0.0,0.0,0.0,0.0,0.0,0.0,0.0,0.0,0.0,0.0,0.0,0.0,0.0,0.0,0.0,0.0,0.0,0.0,0.0,0.0,0.0,0.0,0.0,0.0,0.0,0.0,0.0,0.0,0.0,0.0,0.0,0.0,0.0,0.0,0.0,0.0,0.0,0.0,0.0,0.0,0.0,0.0,0.0,0.0,0.0,0.0,0.0,0.0,0.0,0.0,0.0,0.0,0.0,0.0,0.0,0.0,0.0,0.0,0.0,0.0,0.0,0.0,0.0,0.0,0.0,0.0,0.0,2.9177,2.9114,2.9082,0.0,0.0,0.0,0.0,0.0,0.0,0.0,0.0,0.0,0.0,0.0,0.0,0.0,0.0,0.0,0.0,0.0,0.0,0.0,0.0,0.0,0.0,0.0,0.0,0.0,0.0,0.0,0.0,0.0,0.0,0.0,0.0,0.0,0.0,0.0,0.0,0.0,0.0,0.0,0.0,0.0,0.0,0.0,0.0,0.0,0.0,0.0,0.0,0.0,0.0,0.0,0.0,0.0,0.0,0.0,0.0,0.0,0.0,0.0,0.0,0.0,0.0,0.0,0.0,0.0,0.0,0.0,0.0,0.0,0.0,0.0,0.0,0.0,0.0,0.0,0.0,0.0,0.0,0.0,0.0,0.0,0.0,0.0,0.0,0.0,0.0,0.0,0.0,0.0,0.0,0.0,0.0,0.0,0.0,0.0,0.0,0.0,0.0,0.0,0.0,0.0,0.0,0.0,0.0,0.0,0.0,0.0,0.0,0.0,0.0,3.0097,3.0097,2.9442,0.0,2.9114,0.0,0.0,0.0,0.0,0.0,0.0,0.0,0.0,0.0,0.0,0.0,0.0,0.0,0.0,0.0,0.0,0.0,0.0,0.0,0.0,0.0,0.0,0.0,0.0,0.0,0.0,0.0,0.0,0.0,0.0,0.0,0.0,0.0,0.0,0.0,0.0,0.0,0.0,0.0,0.0,0.0,0.0,0.0,0.0,0.0,0.0,0.0,0.0,0.0,0.0,0.0,0.0,0.0,0.0,0.0,0.0,0.0,0.0,0.0,0.0,0.0,0.0,0.0,0.0,0.0,0.0,0.0,0.0,0.0,0.0,0.0,0.0,0.0,0.0,0.0,0.0,0.0,0.0,0.0,0.0,0.0,0.0,0.0,0.0,0.0,0.0,0.0,0.0,0.0,0.0,0.0,0.0,0.0,0.0,0.0,0.0,0.0,0.0,0.0,0.0,0.0,0.0,0.0,0.0,0.0,0.0,0.0,0.0,0.0,0.0,3.1023,3.1035,3.0354,2.9734,0.0,0.0,0.0,0.0,0.0,0.0,0.0,0.0,0.0,0.0,0.0,0.0,0.0,0.0,0.0,0.0,0.0,0.0,0.0,0.0,0.0,0.0,0.0,0.0,0.0,0.0,0.0,0.0,0.0,0.0,0.0,0.0,0.0,0.0,0.0,0.0,0.0,0.0,0.0,0.0,0.0,0.0,0.0,0.0,0.0,0.0,0.0,0.0,0.0,0.0,0.0,0.0,0.0,0.0,0.0,0.0,0.0,0.0,0.0,0.0,0.0,0.0,0.0,0.0,0.0,0.0,0.0,0.0,0.0,0.0,0.0,0.0,0.0,0.0,0.0,0.0,0.0,0.0,0.0,0.0,0.0,0.0,0.0,0.0,0.0,0.0,0.0,0.0,0.0,0.0,0.0,0.0,0.0,0.0,0.0,0.0,0.0,0.0,0.0,0.0,0.0,0.0,0.0,0.0,0.0,0.0,0.0,0.0,0.0,0.0,3.2229,3.1734,3.1338,3.0858,3.0203,2.9398,0.0,0.0,0.0,0.0,0.0,0.0,0.0,0.0,0.0,0.0,0.0,0.0,0.0,0.0,0.0,0.0,0.0,0.0,0.0,0.0,0.0,0.0,0.0,0.0,0.0,0.0,0.0,0.0,0.0,0.0,0.0,0.0,0.0,0.0,0.0,0.0,0.0,0.0,0.0,0.0,0.0,0.0,0.0,0.0,0.0,0.0,0.0,0.0,0.0,0.0,0.0,0.0,0.0,0.0,0.0,0.0,0.0,0.0,0.0,0.0,0.0,0.0,0.0,0.0,0.0,0.0,0.0,0.0,0.0,0.0,0.0,0.0,0.0,0.0,0.0,0.0,0.0,0.0,0.0,0.0,0.0,0.0,0.0,0.0,0.0,0.0,0.0,0.0,0.0,0.0,0.0,0.0,0.0,0.0,0.0,0.0,0.0,0.0,0.0,0.0,0.0,0.0,0.0,0.0,0.0,0.0,0.0,0.0,3.363,3.2996,3.2003,3.0742,3.0634,3.0238,0.0,0.0,0.0,0.0,0.0,0.0,0.0,0.0,0.0,0.0,0.0,0.0,0.0,0.0,0.0,0.0,0.0,0.0,0.0,0.0,0.0,0.0,0.0,0.0,0.0,0.0,0.0,0.0,0.0,0.0,0.0,0.0,0.0,0.0,0.0,0.0,0.0,0.0,0.0,0.0,0.0,0.0,0.0,0.0,0.0,0.0,0.0,0.0,0.0,0.0,0.0,0.0,0.0,0.0,0.0,0.0,0.0,0.0,0.0,0.0,0.0,0.0,0.0,0.0,0.0,0.0,0.0,0.0,0.0,0.0,0.0,0.0,0.0,0.0,0.0,0.0,0.0,0.0,0.0,0.0,0.0,0.0,0.0,0.0,0.0,0.0,0.0,0.0,0.0,0.0,0.0,0.0,0.0,0.0,0.0,0.0,0.0,0.0,0.0,0.0,0.0,0.0,0.0,0.0,0.0,0.0,0.0,0.0,0.0,3.4088,3.3928,3.3197,3.1832,3.1767,3.1169,0.0,0.0,0.0,0.0,0.0,0.0,0.0,0.0,0.0,0.0,0.0,0.0,0.0,0.0,0.0,0.0,0.0,0.0,0.0,0.0,0.0,0.0,0.0,0.0,0.0,0.0,0.0,0.0,0.0,0.0,0.0,0.0,0.0,0.0,0.0,0.0,0.0,0.0,0.0,0.0,0.0,0.0,0.0,0.0,0.0,0.0,0.0,0.0,0.0,0.0,0.0,0.0,0.0,0.0,0.0,0.0,0.0,0.0,0.0,0.0,0.0,0.0,0.0,0.0,0.0,0.0,0.0,0.0,0.0,0.0,0.0,0.0,0.0,0.0,0.0,0.0,0.0,0.0,0.0,0.0,0.0,0.0,0.0,0.0,0.0,0.0,0.0,0.0,0.0,0.0,0.0,0.0,0.0,0.0,0.0,0.0,0.0,0.0,0.0,0.0,0.0,0.0,0.0,0.0,0.0,0.0,0.0,0.0,0.0,3.4423,0.0,3.4036,3.2932,3.2603,3.1867,0.0,0.0,0.0,0.0,0.0,0.0,0.0,0.0,0.0,0.0,0.0,0.0,0.0,0.0,0.0,0.0,0.0,0.0,0.0,0.0,0.0,0.0,0.0,0.0,0.0,0.0,0.0,0.0,0.0,0.0,0.0,0.0,0.0,0.0,0.0,0.0,0.0,0.0,0.0,0.0,0.0,0.0,0.0,0.0,0.0,0.0,0.0,0.0,0.0,0.0,0.0,0.0,0.0,0.0,0.0,0.0,0.0,0.0,0.0,0.0,0.0,0.0,0.0,0.0,0.0,0.0,0.0,0.0,0.0,0.0,0.0,0.0,0.0,0.0,0.0,0.0,0.0,0.0,0.0,0.0,0.0,0.0,0.0,0.0,0.0,0.0,0.0,0.0,0.0,0.0,0.0,0.0,0.0,0.0,0.0,0.0,0.0,0.0,0.0,0.0,0.0,0.0,0.0,0.0,0.0,0.0,0.0,0.0,3.4603,3.4691,3.4703,3.4412,3.3789,3.3072,3.2354,0.0,0.0,0.0,0.0,0.0,0.0,0.0,0.0,0.0,0.0,0.0,0.0,0.0,0.0,0.0,0.0,0.0,0.0,0.0,0.0,0.0,0.0,0.0,0.0,0.0,0.0,0.0,0.0,0.0,0.0,0.0,0.0,0.0,0.0,0.0,0.0,0.0,0.0,0.0,0.0,0.0,0.0,0.0,0.0,0.0,0.0,0.0,0.0,0.0,0.0,0.0,0.0,0.0,0.0,0.0,0.0,0.0,0.0,0.0,0.0,0.0,0.0,0.0,0.0,0.0,0.0,0.0,0.0,0.0,0.0,0.0,0.0,0.0,0.0,0.0,0.0,0.0,0.0,0.0,0.0,0.0,0.0,0.0,0.0,0.0,0.0,0.0,0.0,0.0,0.0,0.0,0.0,0.0,0.0,0.0,0.0,0.0,0.0,0.0,0.0,0.0,0.0,0.0,0.0,0.0,0.0,0.0,0.0,0.0,3.5116,3.5116,3.4773,3.4085,3.335,3.2649,0.0,0.0,0.0,0.0,0.0,0.0,0.0,0.0,0.0,0.0,0.0,0.0,0.0,0.0,0.0,0.0,0.0,0.0,0.0,0.0,0.0,0.0,0.0,0.0,0.0,0.0,0.0,0.0,0.0,0.0,0.0,0.0,0.0,0.0,0.0,0.0,0.0,0.0,0.0,0.0,0.0,0.0,0.0,0.0,0.0,0.0,0.0,0.0,0.0,0.0,0.0,0.0,0.0,0.0,0.0,0.0,0.0,0.0,0.0,0.0,0.0,0.0,0.0,0.0,0.0,0.0,0.0,0.0,0.0,0.0,0.0,0.0,0.0,0.0,0.0,0.0,0.0,0.0,0.0,0.0,0.0,0.0,0.0,0.0,0.0,0.0,0.0,0.0,0.0,0.0,0.0,0.0,0.0,0.0,0.0,0.0,0.0,0.0,0.0,0.0,0.0,0.0,0.0,0.0,0.0,0.0,0.0,0.0,0.0,3.5911,3.5809,3.5428,3.4734,3.4017,3.3299,3.2578,0.0,0.0,0.0,0.0,0.0,0.0,0.0,0.0,0.0,0.0,0.0,0.0,0.0,0.0,0.0,0.0,0.0,0.0,0.0,0.0,0.0,0.0,0.0,0.0,0.0,0.0,0.0,0.0,0.0,0.0,0.0,0.0,0.0,0.0,0.0,0.0,0.0,0.0,0.0,0.0,0.0,0.0,0.0,0.0,0.0,0.0,0.0,0.0,0.0,0.0,0.0,0.0,0.0,0.0,0.0,0.0,0.0,0.0,0.0,0.0,0.0,0.0,0.0,0.0,0.0,0.0,0.0,0.0,0.0,0.0,0.0,0.0,0.0,0.0,0.0,0.0,0.0,0.0,0.0,0.0,0.0,0.0,0.0,0.0,0.0,0.0,0.0,0.0,0.0,0.0,0.0,0.0,0.0,0.0,0.0,0.0,0.0,0.0,0.0,0.0,0.0,0.0,0.0,0.0,0.0,0.0,0.0,0.0,3.6954,3.6838,3.6409,3.5712,3.4967,3.4276,0.0,0.0,0.0,0.0,0.0,0.0,0.0,0.0,0.0,0.0,0.0,0.0,0.0,0.0,0.0,0.0,0.0,0.0,0.0,0.0,0.0,0.0,0.0,0.0,0.0,0.0,0.0,0.0,0.0,0.0,0.0,0.0,0.0,0.0,0.0,0.0,0.0,0.0,0.0,0.0,0.0,0.0,0.0,0.0,0.0,0.0,0.0,0.0,0.0,0.0,0.0,0.0,0.0,0.0,0.0,0.0,0.0,0.0,0.0,0.0,0.0,0.0,0.0,0.0,0.0,0.0,0.0,0.0,0.0,0.0,0.0,0.0,0.0,0.0,0.0,0.0,0.0,0.0,0.0,0.0,0.0,0.0,0.0,0.0,0.0,0.0,0.0,0.0,0.0,0.0,0.0,0.0,0.0,0.0,0.0,0.0,0.0,0.0,0.0,0.0,0.0,0.0,0.0,0.0,0.0,0.0,0.0,0.0,0.0,3.8741,3.8671,3.7965,3.6593,3.5946,3.4989,0.0,0.0,0.0,0.0,0.0,0.0,0.0,0.0,0.0,0.0,0.0,0.0,0.0,0.0,0.0,0.0,0.0,0.0,0.0,0.0,0.0,0.0,0.0,0.0,0.0,0.0,0.0,0.0,0.0,0.0,0.0,0.0,0.0,0.0,0.0,0.0,0.0,0.0,0.0,0.0,0.0,0.0,0.0,0.0,0.0,0.0,0.0,0.0,0.0,0.0,0.0,0.0,0.0,0.0,0.0,0.0,0.0,0.0,0.0,0.0,0.0,0.0,0.0,0.0,0.0,0.0,0.0,0.0,0.0,0.0,0.0,0.0,0.0,0.0,0.0,0.0,0.0,0.0,0.0,0.0,0.0,0.0,0.0,0.0,0.0,0.0,0.0,0.0,0.0,0.0,0.0,0.0,0.0,0.0,0.0,0.0,0.0,0.0,0.0,0.0,0.0,0.0,0.0,0.0,0.0,0.0,0.0,0.0,4.0156,3.9894,4.025,3.9782,3.8503,3.7194,3.5758,0.0,0.0,0.0,0.0,0.0,0.0,0.0,0.0,0.0,0.0,0.0,0.0,0.0,0.0,0.0,0.0,0.0,0.0,0.0,0.0,0.0,0.0,0.0,0.0,0.0,0.0,0.0,0.0,0.0,0.0,0.0,0.0,0.0,0.0,0.0,0.0,0.0,0.0,0.0,0.0,0.0,0.0,0.0,0.0,0.0,0.0,0.0,0.0,0.0,0.0,0.0,0.0,0.0,0.0,0.0,0.0,0.0,0.0,0.0,0.0,0.0,0.0,0.0,0.0,0.0,0.0,0.0,0.0,0.0,0.0,0.0,0.0,0.0,0.0,0.0,0.0,0.0,0.0,0.0,0.0,0.0,0.0,0.0,0.0,0.0,0.0,0.0,0.0,0.0,0.0,0.0,0.0,0.0,0.0,0.0,0.0,0.0,0.0,0.0,0.0,0.0,0.0,0.0,0.0,0.0,0.0,0.0,0.0,4.1302,4.072,4.1366,4.1427,4.0693,3.8482,3.6599,0.0,0.0,0.0,0.0,0.0,0.0,0.0,0.0,0.0,0.0,0.0,0.0,0.0,0.0,0.0,0.0,0.0,0.0,0.0,0.0,0.0,0.0,0.0,0.0,0.0,0.0,0.0,0.0,0.0,0.0,0.0,0.0,0.0,0.0,0.0,0.0,0.0,0.0,0.0,0.0,0.0,0.0,0.0,0.0,0.0,0.0,0.0,0.0,0.0,0.0,0.0,0.0,0.0,0.0,0.0,0.0,0.0,0.0,0.0,0.0,0.0,0.0,0.0,0.0,0.0,0.0,0.0,0.0,0.0,0.0,0.0,0.0,0.0,0.0,0.0,0.0,0.0,0.0,0.0,0.0,0.0,0.0,0.0,0.0,0.0,0.0,0.0,0.0,0.0,0.0,0.0,0.0,0.0,0.0,0.0,0.0,0.0,0.0,0.0,0.0,0.0,0.0,0.0,0.0,0.0,0.0,0.0,0.0,4.1498,4.1961,4.1556,4.1256,4.1094,3.9261,3.7563,0.0,0.0,0.0,0.0,0.0,0.0,0.0,0.0,0.0,0.0,0.0,0.0,0.0,0.0,0.0,0.0,0.0,0.0,0.0,0.0,0.0,0.0,0.0,0.0,0.0,0.0,0.0,0.0,0.0,0.0,0.0,0.0,0.0,0.0,0.0,0.0,0.0,0.0,0.0,0.0,0.0,0.0,0.0,0.0,0.0,0.0,0.0,0.0,2.897,0.0,0.0,0.0,0.0,0.0,0.0,0.0,0.0,0.0,0.0,0.0,0.0,0.0,0.0,0.0,0.0,0.0,0.0,0.0,0.0,0.0,0.0,0.0,0.0,0.0,0.0,0.0,0.0,0.0,0.0,0.0,0.0,0.0,0.0,0.0,0.0,0.0,0.0,0.0,0.0,0.0,0.0,0.0,0.0,0.0,0.0,0.0,0.0,0.0,0.0,0.0,0.0,0.0,0.0,0.0,0.0,0.0,0.0,0.0,4.2323,4.3414,4.2369,4.2114,4.2717,4.0203,3.8228,0.0,0.0,0.0,0.0,0.0,0.0,0.0,0.0,0.0,0.0,0.0,0.0,0.0,0.0,0.0,0.0,0.0,0.0,0.0,0.0,0.0,0.0,0.0,0.0,0.0,0.0,0.0,0.0,0.0,0.0,0.0,0.0,0.0,0.0,0.0,0.0,0.0,0.0,0.0,0.0,0.0,0.0,0.0,0.0,0.0,0.0,0.0,0.0,0.0,0.0,0.0,0.0,0.0,0.0,0.0,0.0,0.0,0.0,0.0,0.0,0.0,0.0,0.0,0.0,0.0,0.0,0.0,0.0,0.0,0.0,0.0,0.0,0.0,0.0,0.0,0.0,0.0,0.0,0.0,0.0,0.0,0.0,0.0,0.0,0.0,0.0,0.0,0.0,0.0,0.0,0.0,0.0,0.0,0.0,0.0,0.0,0.0,0.0,0.0,0.0,0.0,0.0,0.0,0.0,0.0,0.0,0.0,4.223,4.3324,4.4511,4.3242,4.3138,4.4349,4.1101,3.8901,3.8098,0.0,0.0,0.0,0.0,0.0,0.0,0.0,0.0,0.0,0.0,0.0,0.0,0.0,0.0,0.0,0.0,0.0,0.0,0.0,0.0,0.0,0.0,0.0,0.0,0.0,0.0,0.0,0.0,0.0,0.0,0.0,0.0,0.0,0.0,0.0,0.0,0.0,0.0,3.0717,3.1339,0.0,0.0,0.0,0.0,0.0,0.0,0.0,0.0,3.0312,0.0,0.0,0.0,0.0,0.0,0.0,0.0,0.0,0.0,0.0,0.0,0.0,0.0,0.0,0.0,0.0,0.0,0.0,0.0,0.0,0.0,0.0,0.0,0.0,0.0,0.0,0.0,0.0,0.0,0.0,0.0,0.0,0.0,0.0,0.0,0.0,0.0,0.0,0.0,0.0,0.0,0.0,0.0,0.0,0.0,0.0,0.0,0.0,0.0,0.0,0.0,0.0,0.0,0.0,0.0,0.0,4.1905,4.3268,4.4105,4.434,4.3458,4.3105,4.3281,4.1502,4.0114,3.9247,0.0,0.0,0.0,0.0,0.0,0.0,0.0,0.0,0.0,0.0,0.0,0.0,0.0,0.0,0.0,0.0,0.0,0.0,0.0,0.0,0.0,0.0,0.0,0.0,0.0,0.0,0.0,0.0,0.0,0.0,0.0,0.0,0.0,0.0,0.0,0.0,0.0,0.0,0.0,3.2889,3.3208,0.0,0.0,0.0,0.0,0.0,0.0,0.0,0.0,3.2045,0.0,0.0,0.0,0.0,0.0,0.0,0.0,0.0,0.0,0.0,0.0,0.0,0.0,0.0,0.0,0.0,0.0,0.0,0.0,0.0,0.0,0.0,0.0,0.0,0.0,0.0,0.0,0.0,0.0,0.0,0.0,0.0,0.0,0.0,0.0,0.0,0.0,0.0,0.0,0.0,0.0,0.0,0.0,0.0,0.0,0.0,0.0,0.0,0.0,0.0,0.0,0.0,0.0,0.0,0.0,4.2554,4.3308,4.4076,4.4808,4.4112,4.3899,4.4242,4.2423,4.1052,0.0,0.0,0.0,0.0,0.0,0.0,0.0,0.0,0.0,0.0,0.0,0.0,0.0,0.0,0.0,0.0,0.0,0.0,0.0,0.0,0.0,0.0,0.0,0.0,0.0,0.0,0.0,0.0,0.0,0.0,0.0,0.0,0.0,0.0,0.0,0.0,0.0,0.0,0.0,0.0,3.3589,3.3979,3.4327,0.0,0.0,0.0,0.0,0.0,0.0,3.3567,3.34,0.0,0.0,0.0,0.0,0.0,0.0,0.0,0.0,0.0,0.0,0.0,0.0,0.0,0.0,0.0,0.0,0.0,0.0,0.0,0.0,0.0,0.0,0.0,0.0,0.0,0.0,0.0,0.0,0.0,0.0,0.0,0.0,0.0,0.0,0.0,0.0,0.0,0.0,0.0,0.0,0.0,0.0,0.0,0.0,0.0,0.0,0.0,0.0,0.0,0.0,0.0,0.0,0.0,0.0,0.0,4.3587,4.38,4.4509,4.5632,4.5147,4.4981,4.5207,4.335,4.1799,0.0,0.0,0.0,0.0,0.0,0.0,0.0,0.0,0.0,0.0,0.0,0.0,0.0,0.0,0.0,0.0,0.0,0.0,0.0,0.0,0.0,0.0,0.0,0.0,0.0,0.0,0.0,0.0,0.0,0.0,0.0,0.0,0.0,0.0,0.0,0.0,0.0,0.0,0.0,0.0,0.0,3.4822,3.5091,3.5161,0.0,0.0,0.0,0.0,3.4598,3.4509,0.0,0.0,0.0,0.0,0.0,0.0,0.0,0.0,0.0,0.0,0.0,0.0,0.0,0.0,0.0,0.0,0.0,0.0,0.0,0.0,0.0,0.0,0.0,0.0,0.0,0.0,0.0,0.0,0.0,0.0,0.0,0.0,0.0,0.0,0.0,0.0,0.0,0.0,0.0,0.0,0.0,0.0,0.0,0.0,0.0,0.0,0.0,0.0,0.0,0.0,0.0,0.0,0.0,0.0,0.0,0.0,4.543,4.6214,4.6607,4.6785,4.6714,4.6036,4.473,4.3815,4.2271,0.0,0.0,0.0,0.0,0.0,0.0,0.0,0.0,0.0,0.0,0.0,0.0,0.0,0.0,0.0,0.0,0.0,0.0,0.0,0.0,0.0,0.0,0.0,0.0,0.0,0.0,0.0,0.0,0.0,0.0,0.0,0.0,0.0,0.0,0.0,0.0,0.0,0.0,0.0,0.0,0.0,3.6255,3.7502,3.7722,3.7722,0.0,0.0,3.7091,3.5768,3.5524,0.0,0.0,0.0,0.0,0.0,0.0,0.0,0.0,0.0,0.0,0.0,0.0,0.0,0.0,0.0,0.0,0.0,0.0,0.0,0.0,0.0,0.0,0.0,0.0,0.0,0.0,0.0,0.0,0.0,0.0,0.0,0.0,0.0,0.0,0.0,0.0,0.0,0.0,0.0,0.0,0.0,0.0,0.0,0.0,0.0,0.0,0.0,0.0,0.0,0.0,0.0,0.0,0.0,0.0,0.0,4.4719,4.5373,4.6567,4.6997,4.6567,4.695,4.6627,4.5516,4.4753,4.3438,0.0,0.0,0.0,0.0,0.0,0.0,0.0,0.0,0.0,0.0,0.0,0.0,0.0,0.0,0.0,0.0,0.0,0.0,0.0,0.0,0.0,0.0,0.0,0.0,0.0,0.0,0.0,0.0,0.0,0.0,0.0,0.0,0.0,0.0,0.0,0.0,0.0,0.0,0.0,0.0,0.0,0.0,3.8767,3.8898,0.0,0.0,0.0,3.8605,3.7877,0.0,0.0,0.0,0.0,0.0,0.0,0.0,0.0,0.0,0.0,0.0,0.0,0.0,0.0,0.0,0.0,0.0,0.0,0.0,0.0,0.0,0.0,0.0,0.0,0.0,0.0,0.0,0.0,0.0,0.0,0.0,0.0,0.0,0.0,0.0,0.0,0.0,0.0,0.0,0.0,0.0,0.0,0.0,0.0,0.0,0.0,0.0,0.0,0.0,0.0,0.0,0.0,0.0,0.0,0.0,0.0,0.0,4.5625,4.6791,4.7187,4.6816,4.732,4.7165,4.6205,4.5414,0.0,0.0,0.0,0.0,0.0,0.0,0.0,0.0,0.0,0.0,0.0,0.0,0.0,0.0,0.0,0.0,0.0,0.0,0.0,0.0,0.0,0.0,0.0,0.0,0.0,0.0,0.0,3.3846,0.0,0.0,0.0,0.0,0.0,0.0,0.0,0.0,0.0,0.0,0.0,0.0,0.0,0.0,3.9069,3.9736,3.9852,3.9842,0.0,0.0,3.973,3.9401,3.8939,3.8541,0.0,0.0,0.0,0.0,0.0,0.0,0.0,0.0,0.0,0.0,0.0,0.0,0.0,0.0,0.0,0.0,0.0,0.0,0.0,0.0,0.0,0.0,0.0,0.0,0.0,0.0,0.0,0.0,0.0,0.0,0.0,0.0,0.0,0.0,0.0,0.0,0.0,0.0,0.0,0.0,0.0,0.0,0.0,0.0,0.0,0.0,0.0,0.0,0.0,0.0,0.0,0.0,0.0,0.0,0.0,4.7259,4.7316,4.7679,4.8326,4.8398,4.7715,4.6241,4.5424,4.4238,0.0,0.0,0.0,0.0,0.0,0.0,0.0,0.0,0.0,0.0,0.0,0.0,0.0,0.0,0.0,0.0,0.0,0.0,0.0,0.0,0.0,0.0,0.0,0.0,0.0,0.0,0.0,0.0,0.0,0.0,0.0,0.0,0.0,0.0,0.0,0.0,0.0,0.0,0.0,0.0,0.0,3.9949,4.0617,4.0816,4.0902,0.0,0.0,4.0455,3.9691,3.9524,3.9428,3.9417,0.0,0.0,0.0,0.0,0.0,0.0,0.0,0.0,0.0,0.0,0.0,0.0,0.0,0.0,0.0,0.0,0.0,0.0,0.0,0.0,0.0,0.0,0.0,0.0,0.0,0.0,0.0,0.0,0.0,0.0,0.0,0.0,0.0,0.0,0.0,0.0,0.0,0.0,0.0,0.0,0.0,0.0,0.0,0.0,0.0,0.0,0.0,0.0,0.0,0.0,0.0,0.0,0.0,4.7658,4.7088,4.8954,4.9633,4.8969,4.9415,4.9161,4.8073,4.6803,4.557,0.0,0.0,0.0,0.0,0.0,0.0,0.0,0.0,0.0,0.0,0.0,0.0,0.0,0.0,0.0,0.0,0.0,0.0,0.0,0.0,0.0,0.0,0.0,0.0,0.0,0.0,0.0,0.0,3.6383,3.6971,3.7859,0.0,0.0,0.0,0.0,0.0,0.0,0.0,0.0,0.0,0.0,4.1777,4.2907,4.3116,0.0,0.0,4.3052,4.2967,4.2672,4.1816,4.1181,4.1057,4.0304,0.0,0.0,0.0,0.0,0.0,0.0,0.0,0.0,0.0,0.0,0.0,0.0,0.0,0.0,0.0,0.0,0.0,0.0,0.0,0.0,0.0,0.0,0.0,0.0,0.0,0.0,0.0,0.0,0.0,0.0,0.0,0.0,0.0,0.0,0.0,0.0,0.0,0.0,0.0,0.0,0.0,0.0,0.0,0.0,0.0,0.0,0.0,0.0,0.0,0.0,0.0,0.0,4.9163,4.7265,5.0117,5.0956,4.9596,5.0117,5.0117,4.956,4.7992,4.6898,0.0,0.0,0.0,0.0,0.0,0.0,0.0,0.0,0.0,0.0,0.0,0.0,0.0,0.0,0.0,0.0,0.0,0.0,0.0,0.0,0.0,0.0,0.0,0.0,0.0,0.0,0.0,0.0,3.7963,3.8623,3.969,0.0,0.0,0.0,0.0,0.0,0.0,0.0,0.0,0.0,0.0,4.3372,4.4366,4.4533,4.4511,4.4387,4.4456,4.45,4.45,4.364,4.2917,4.2768,0.0,0.0,0.0,0.0,0.0,0.0,0.0,0.0,0.0,0.0,0.0,0.0,0.0,0.0,0.0,0.0,0.0,0.0,0.0,0.0,0.0,0.0,0.0,0.0,0.0,0.0,0.0,0.0,0.0,0.0,5.85,0.0,0.0,0.0,0.0,0.0,0.0,0.0,0.0,0.0,0.0,0.0,0.0,0.0,0.0,0.0,0.0,0.0,0.0,0.0,0.0,0.0,0.0,4.9055,4.8234,5.0498,5.1212,5.042,5.0383,5.0456,5.0347,4.8841,4.7965,4.7892,0.0,0.0,0.0,0.0,0.0,0.0,0.0,0.0,0.0,0.0,0.0,0.0,0.0,0.0,0.0,0.0,0.0,0.0,0.0,0.0,0.0,0.0,0.0,0.0,0.0,0.0,4.0776,4.0802,4.0743,0.0,0.0,0.0,0.0,0.0,0.0,0.0,0.0,0.0,0.0,4.4636,4.4596,4.4667,4.4621,4.4752,4.4692,4.4615,4.456,4.4607,4.4536,4.4465,0.0,0.0,0.0,0.0,0.0,0.0,0.0,0.0,0.0,0.0,0.0,0.0,0.0,0.0,0.0,0.0,0.0,0.0,0.0,0.0,0.0,0.0,0.0,0.0,0.0,0.0,0.0,6.0831,6.213,0.0,0.0,0.0,0.0,0.0,0.0,0.0,0.0,0.0,0.0,0.0,5.9823,5.8528,0.0,0.0,0.0,0.0,0.0,0.0,0.0,0.0,0.0,0.0,0.0,0.0,5.1511,5.0825,5.1993,5.2265,5.1506,5.1983,5.1983,5.147,5.0407,4.9335,4.82,0.0,0.0,0.0,0.0,0.0,0.0,0.0,0.0,0.0,0.0,0.0,0.0,0.0,0.0,0.0,0.0,0.0,0.0,0.0,0.0,0.0,0.0,0.0,0.0,0.0,4.1156,0.0,0.0,0.0,0.0,0.0,0.0,0.0,0.0,0.0,0.0,0.0,4.5346,4.6403,4.6878,4.7301,4.7802,4.7724,4.763,0.0,0.0,0.0,0.0,0.0,0.0,0.0,0.0,0.0,0.0,0.0,0.0,0.0,0.0,4.2674,4.1455,4.1184,4.1081,4.0819,0.0,0.0,0.0,0.0,0.0,0.0,0.0,0.0,0.0,0.0,0.0,0.0,0.0,0.0,6.5009,0.0,6.597,0.0,0.0,0.0,0.0,0.0,0.0,0.0,0.0,6.2301,6.2208,6.1725,6.0906,6.0236,0.0,5.9115,5.7986,0.0,0.0,0.0,0.0,0.0,0.0,0.0,0.0,5.3371,5.2905,5.4179,5.462,5.4116,5.4326,5.4205,5.3665,5.2344,5.0865,4.9224,4.7085,4.5691,0.0,0.0,0.0,0.0,0.0,0.0,0.0,0.0,0.0,0.0,0.0,0.0,0.0,0.0,0.0,0.0,0.0,0.0,0.0,0.0,0.0,0.0,0.0,4.3437,0.0,0.0,0.0,0.0,0.0,0.0,0.0,0.0,0.0,4.6302,4.6699,4.7371,4.8188,4.8627,4.9099,4.9841,0.0,0.0,0.0,0.0,0.0,0.0,0.0,4.8544,4.8473,4.8093,4.7759,4.7678,4.7297,4.6889,4.6511,0.0,0.0,4.3454,4.3013,4.291,4.2647,4.2309,4.2211,4.2679,4.2644,4.2728,0.0,0.0,0.0,0.0,0.0,0.0,0.0,0.0,6.885,6.863,0.0,6.7599,0.0,0.0,0.0,0.0,0.0,6.4127,0.0,0.0,6.479,6.4396,6.2976,6.3686,6.3237,6.1705,6.1543,6.1416,6.1135,5.7961,0.0,0.0,0.0,0.0,0.0,0.0,5.4557,5.4594,5.6712,5.7923,5.7776,5.7104,5.6701,5.6638,5.4462,5.2517,5.0912,4.9287,4.837,4.8269,4.6104,0.0,0.0,0.0,0.0,0.0,0.0,0.0,0.0,0.0,0.0,0.0,0.0,0.0,0.0,0.0,0.0,0.0,0.0,0.0,0.0,4.6755,0.0,0.0,0.0,0.0,0.0,0.0,0.0,0.0,0.0,0.0,4.8364,4.8536,4.9128,4.9945,0.0,0.0,0.0,0.0,5.0986,5.1508,5.1037,5.0563,5.0462,4.9873,4.9459,4.9495,0.0,0.0,4.9424,4.94,4.9448,4.9555,4.953,4.8634,4.5692,4.505,4.4711,4.3921,4.3221,4.2557,4.245,4.2364,4.1996,7.615,0.0,0.0,0.0,0.0,7.0648,7.1163,7.2509,7.1292,7.0691,7.0488,7.0185,0.0,0.0,0.0,0.0,0.0,0.0,6.6116,6.6032,6.6278,6.6107,6.5574,6.5799,6.5634,6.5138,6.5095,6.4401,6.3072,6.2087,6.0704,5.8937,0.0,0.0,0.0,0.0,5.7692,5.714,5.7161,5.6859,5.6319,5.6062,5.5952,5.5941,5.528,5.4179,5.2564,5.1499,5.0408,4.927,4.7976,0.0,0.0,0.0,0.0,0.0,0.0,0.0,0.0,0.0,0.0,0.0,0.0,0.0,0.0,0.0,0.0,0.0,0.0,0.0,4.8426,4.926,4.9845,0.0,0.0,0.0,0.0,0.0,0.0,0.0,0.0,0.0,5.2302,5.178,5.181,0.0,0.0,5.3169,5.3495,5.3171,5.2986,5.3236,5.2962,0.0,5.2662,5.2475,5.236,5.236,5.236,5.2183,5.1602,5.1711,5.1722,5.1297,5.1395,5.1188,5.0439,4.8692,4.7444,4.7052,4.6431,4.5893,4.5832,4.5716,4.5687,8.2416,7.8968,7.6532,7.5768,7.6112,7.5127,7.5245,7.607,7.5116,7.4032,7.2942,7.259,7.1497,6.9807,6.9429,0.0,0.0,0.0,6.8168,6.8109,6.8099,6.8191,6.8392,6.8381,6.8357,6.8242,6.7836,6.6866,6.5464,6.5019,6.4253,6.3011,0.0,0.0,6.0404,5.9763,5.9377,5.9147,5.892,5.8667,5.8437,5.7824,5.7189,5.6576,5.6235,5.5611,5.4645,5.3225,5.216,5.151,5.0068,4.9297,0.0,0.0,0.0,0.0,0.0,0.0,0.0,0.0,0.0,0.0,0.0,4.4718,4.5378,0.0,0.0,0.0,4.9591,5.0802,5.1022,5.1756,0.0,0.0,0.0,0.0,0.0,0.0,0.0,5.3269,5.4279,5.5172,5.5453,5.5552,5.53,5.4456,5.4532,5.4905,5.5592,0.0,5.5236,5.5708,5.5388,5.5057,5.4931,5.4677,5.4492,5.4528,5.4492,5.4351,5.3926,5.397,5.3953,5.3671,5.3557,5.347,5.3303,5.1776,5.0407,5.0036,4.9055,4.8481,4.901,4.8823,4.8529,8.7221,8.6724,8.212,8.0018,7.9713,7.9636,7.9484,7.9407,7.9369,7.7993,7.5662,7.4851,7.3552,7.1947,7.0955,0.0,7.0248,7.0257,7.0211,7.0128,7.0119,7.0479,7.114,7.1072,7.0965,7.0901,6.9928,6.9058,6.8286,6.732,6.6758,6.6522,6.2524,6.0436,6.0303,6.0182,6.0365,6.0913,6.1639,6.2254,6.2671,6.1337,5.9844,5.8253,5.7545,5.7141,5.6921,5.4792,5.3875,5.4473,5.2344,5.1132,5.1169,0.0,0.0,0.0,0.0,0.0,0.0,0.0,0.0,0.0,0.0,0.0,0.0,0.0,0.0,0.0,5.3261,0.0,5.3654,5.4252,0.0,0.0,0.0,5.4649,5.4492,5.526,5.5727,5.5612,0.0,0.0,5.8005,5.931,5.8994,5.5848,5.5425,5.597,5.736,5.7302,5.7505,5.8253,5.7818,5.7219,5.6849,5.6399,5.6034,5.6034,5.6062,5.6013,5.6013,5.6056,5.6127,5.6148,5.5914,5.5525,5.4915,5.4385,5.3797,5.299,5.1164,5.0266,5.1394,5.079,5.0159,9.085,8.9589,8.8415,8.6084,8.3076,8.2388,8.1394,8.0238,8.02,7.9169,7.7411,7.7173,7.615,7.4516,7.3038,7.2363,7.2283,7.2283,7.223,7.2113,7.2113,7.2173,7.231,7.2177,7.2091,7.1983,7.1652,7.1319,7.0971,7.0592,7.0395,7.012,6.7787,6.5938,6.4645,6.4454,6.4187,6.3719,6.3809,6.3258,6.2094,6.2266,6.1593,5.9905,6.0236,5.9869,5.8682,5.7483,5.6675,5.6223,5.4509,5.3812,5.441,5.3115,0.0,0.0,0.0,0.0,0.0,0.0,0.0,0.0,0.0,5.0959,5.1966,0.0,5.4043,0.0,5.5537,5.6407,5.6822,5.7042,0.0,0.0,5.7409,5.7141,5.7107,5.8354,5.9186,5.9162,5.9798,6.031,6.053,6.0261,5.9809,5.903,5.932,5.9767,6.0319,5.9256,5.8559,5.8862,5.8409,5.7781,5.765,5.7479,5.7369,5.7319,5.7354,5.7354,5.7354,5.7529,5.7656,5.77,5.784,5.7908,5.7869,5.745,5.7005,5.6702,5.376,5.1036,5.1434,5.1239,5.1045,9.3229,9.1652,9.1319,8.9561,8.7001,8.5789,8.4518,8.3295,8.2875,8.1805,8.0162,7.9054,7.7831,7.657,7.5653,7.5233,7.5195,7.4813,7.4596,7.4514,7.3788,7.3583,7.3836,7.3401,7.3355,7.363,7.3103,7.2783,7.2621,7.216,7.177,7.1565,7.0529,6.9507,6.8387,6.6785,6.575,6.5246,6.5089,6.418,6.2533,6.3222,6.3002,6.1617,6.1654,6.1263,6.0309,5.9171,5.8462,5.8352,5.6517,5.5831,5.6602,5.5133,5.4473,0.0,0.0,0.0,0.0,0.0,0.0,0.0,0.0,0.0,0.0,0.0,5.6822,5.7189,5.8253,5.8988,5.9061,5.9722,6.0297,6.0737,6.0407,6.0126,6.0126,6.0921,6.1471,6.1471,6.2119,6.2595,6.2595,6.2788,6.2909,6.2985,6.2943,6.2685,6.2056,6.116,6.0675,6.1076,6.0188,5.9279,5.8901,5.8808,5.8808,5.8808,5.8808,5.8843,5.8808,5.8948,5.9036,5.9051,5.9046,5.8942,5.8745,5.8633,5.8457,5.792,5.6268,5.4532,5.4013,5.3651,5.3385,9.4834,9.3344,9.2389,9.1548,9.0774,8.9141,8.7804,8.6762,8.5998,8.4709,8.3037,8.0668,7.9207,7.8481,7.8252,7.8175,7.8099,7.7258,7.6876,7.6761,7.5271,7.4922,7.5605,7.4795,7.4816,7.5485,7.4579,7.4063,7.3901,7.3044,7.2429,7.2071,7.1963,7.1764,7.1383,6.8397,6.6672,6.6418,6.6272,6.5386,6.3759,6.4425,6.4352,6.3346,6.2646,6.2144,6.19,6.0481,5.993,6.0456,5.8462,5.7581,5.8217,5.6969,5.6209,0.0,5.6209,0.0,0.0,0.0,0.0,0.0,0.0,0.0,0.0,5.7861,5.9024,5.9636,6.1043,6.1643,6.0933,6.2132,6.3013,6.3123,6.3123,6.3123,6.3123,6.3196,6.327,6.327,6.3943,6.4433,6.4457,6.5558,6.6329,6.6035,6.5569,6.4798,6.3638,6.2813,6.2609,6.3553,6.2241,6.0704,6.0227,6.0081,6.0001,6.0036,5.9966,6.0072,6.0001,6.0017,6.0052,6.0033,5.9745,5.9279,5.8602,5.8895,5.8926,5.8511,5.8257,5.7921,5.7248,5.6609,5.6331,9.6057,9.4987,9.3497,9.2771,9.2504,9.0812,8.8863,8.68,8.6609,8.5626,8.3954,8.2111,8.1232,8.0964,7.9675,7.9025,7.9025,7.8137,7.7755,7.7717,7.6685,7.6676,7.7413,7.6539,7.6531,7.7274,7.7046,7.652,7.5784,7.5473,7.4933,7.4115,7.3252,7.2792,7.271,0.0,0.0,0.0,6.9013,6.8087,6.6444,6.6519,6.61,6.5077,6.488,0.0,6.3638,6.2646,6.1887,6.1374,6.0309,0.0,0.0,0.0,0.0,0.0,0.0,0.0,0.0,0.0,0.0,0.0,6.1337,6.1153,6.0566,6.201,6.2695,6.2205,6.3025,6.3589,6.3429,6.3649,6.4127,6.4738,6.4848,6.4811,6.4848,6.5362,6.5815,6.5815,6.5962,6.6035,6.5999,6.5778,6.5582,6.5692,6.5962,6.6198,6.5934,6.3975,6.2631,6.2636,6.1887,6.1051,6.0858,6.0434,6.0206,6.0072,6.0072,6.0072,6.0072,6.0072,6.0072,6.0072,6.0014,6.0016,6.0057,5.9729,5.9484,5.9793,5.9379,5.8804,5.8283,5.8058,5.7949,9.7509,0.0,9.4681,9.4108,0.0,9.2378,9.0861,8.9218,8.8367,8.7106,8.5473,8.4623,8.383,8.299,8.2158,8.1547,8.1088,8.0277,7.9665,7.9207,7.8375,7.7984,7.7975,7.751,7.7491,7.7873,7.778,7.7513,7.7046,7.6938,7.642,7.5501,7.4853,7.4331,7.3889,7.3355,7.2139,7.0232,7.0466,6.9937,6.8651,6.8889,6.8321,6.6849,6.675,0.0,0.0,0.0,0.0,0.0,0.0,0.0,0.0,6.1227,0.0,6.1006,6.1361,6.1777,6.2181,6.1851,6.2108,6.3356,6.4163,6.431,6.3503,6.3846,6.409,6.4077,6.4787,6.5314,6.5301,6.5632,6.6182,6.694,6.6733,6.6623,6.699,6.7063,6.71,6.7113,6.71,6.71,6.7076,6.6769,6.6476,6.6476,6.6439,6.6539,6.6494,6.5448,6.4294,6.3298,6.2894,6.2198,6.123,6.1153,6.0839,6.034,6.0072,6.0072,6.0072,6.0072,6.0072,6.0072,6.0072,6.0186,6.0278,6.0117,6.0083,6.0327,6.0282,6.0074,5.9912,5.9437,5.8999,9.8541,9.6019,9.556,9.5102,9.4529,9.3535,9.2695,9.1892,0.0,0.0,0.0,8.7106,8.6275,8.4976,8.4824,8.4327,8.3649,8.2798,8.1996,8.1117,8.0324,7.956,7.8901,7.8748,7.8672,7.8663,7.856,7.8322,7.8037,7.7989,7.7397,7.6424,7.622,7.5673,7.4861,7.468,7.3533,7.1449,7.164,7.1343,7.0491,7.0891,7.0326,6.8653,6.8539,6.7633,6.5815,6.5729,6.5595,6.5288,6.3967,6.327,6.3233,6.2622,6.2254,6.2291,6.2866,6.3563,6.4237,6.3649,6.3894,6.5398,6.6402,6.6512,6.5595,6.5044,6.5007,6.5655,6.6329,6.6696,6.6733,6.7444,6.8164,6.8825,6.8421,6.8348,6.8788,6.8495,6.8104,6.7958,6.7921,6.7921,6.7921,6.7737,6.77,6.7627,6.7113,6.6696,6.6686,6.6434,6.5663,6.4444,6.4147,6.3651,6.2379,6.2167,6.2107,6.1269,6.0878,6.0701,6.065,6.0484,6.0333,6.0388,6.0212,6.0107,6.0104,6.0294,6.0516,6.0578,6.0808,6.1123,6.1343,6.0674,6.0006,9.8185,9.7574,9.5435,9.4911,9.5293,9.3764,9.3038,9.2733,9.0364,8.9179,8.8912,8.8224,8.7804,8.7498,8.6772,8.638,8.6189,8.5397,8.4556,8.3715,8.2884,8.2426,8.2273,8.1576,8.127,8.127,8.1251,8.044,7.9076,7.8933,7.8037,7.6617,7.636,7.596,7.518,7.5123,7.4913,7.4542,7.3508,7.2553,7.1739,7.1395,7.1004,7.0611,7.0217,6.9148,6.7444,6.737,6.6733,6.5398,6.5068,6.4958,6.4958,6.4824,6.4774,6.4774,6.4884,6.4995,6.5141,6.4995,6.5325,6.6292,6.7724,6.7944,6.6512,6.6843,6.726,6.737,6.7444,6.7517,6.759,6.8274,6.8775,6.8958,6.9449,6.9559,6.9068,6.9412,6.9412,6.8825,6.8715,6.8715,6.8641,6.8128,6.7737,6.77,6.7517,6.748,6.7273,6.6447,6.5766,6.5484,6.5132,6.4835,6.4347,6.4184,6.3862,6.3769,6.3119,6.2735,6.2657,6.1875,6.1257,6.1125,6.0668,6.0247,6.0177,6.0139,6.0384,6.0607,6.0675,6.0925,6.1336,6.1213,6.1246,9.8693,9.7383,9.621,9.5713,9.5484,9.4299,9.3803,9.3677,9.2083,9.1357,9.1281,9.0478,8.9867,8.9409,8.852,8.7908,8.746,8.7116,8.6467,8.5664,8.5244,8.4556,8.3725,8.3333,8.2913,8.2502,8.2455,8.2015,8.129,8.1213,8.0345,7.8656,7.7656,7.697,7.6627,7.6627,7.6646,7.6654,7.4579,7.3497,7.3501,7.2955,7.2344,7.174,7.1635,7.0777,6.9096,6.9412,6.9119,6.7944,6.7467,6.7063,6.6623,6.6623,6.6402,6.6035,6.6756,6.7283,6.7247,6.765,6.8054,6.8421,6.9119,6.9265,6.8531,6.8385,6.8164,6.7774,6.8104,6.8348,6.8348,6.9082,6.9743,7.0169,7.0183,7.0146,7.0169,7.0073,6.9926,6.9633,6.9559,6.9376,6.8958,6.8568,6.8128,6.7811,6.77,6.77,6.77,6.7166,6.6598,6.642,6.6234,6.5825,6.5379,6.5377,6.5118,6.445,6.408,6.3758,6.3494,6.2742,6.2367,6.1961,6.1563,6.123,6.0911,6.1106,6.1081,6.0407,6.0752,6.1007,6.1071,6.1228,6.1622,9.9228,9.7471,9.705,9.6401,9.556,9.5178,9.4872,9.4643,9.4146,9.3841,9.3497,9.2351,9.1472,9.0812,8.9971,8.9256,8.8721,8.8683,8.8186,8.7412,8.7373,8.6581,8.5282,8.5129,8.4671,8.3945,8.3878,8.3687,8.3343,8.3305,8.2416,8.0802,7.9362,7.8608,7.8408,7.8418,7.8446,7.8386,7.6008,7.4933,7.5471,7.4666,7.3886,7.3342,7.3225,7.2389,7.0821,7.1233,7.1123,7.0146,6.9486,6.8898,6.8325,6.8251,6.7958,6.7504,6.8458,6.9265,6.9435,7.0022,7.0367,7.0367,7.0513,7.0477,7.011,6.9706,6.9119,6.8471,6.8825,6.9155,6.9265,6.9889,7.061,7.1197,7.0954,7.0844,7.116,7.0917,7.055,7.044,7.0367,7.011,6.9596,6.9265,6.8862,6.8201,6.7994,6.7907,6.7737,6.77,6.7513,6.7303,6.7246,6.6999,6.6095,6.6427,6.6418,6.5369,6.5181,6.5053,6.4613,6.4232,6.375,6.3279,6.2958,6.2651,6.2167,6.2271,6.2133,6.1337,6.1229,6.1114,6.0771,6.1331,6.1774,9.9381,9.8923,9.7547,9.6401,9.5713,9.6324,9.6172,9.5598,9.621,9.6095,9.5102,9.2847,9.1816,9.1586,9.085,9.0392,9.0315,9.0353,8.9857,8.9093,8.9065,8.8606,8.7689,8.7699,8.7269,8.6505,8.638,8.5588,8.4375,8.4222,8.3372,8.1843,8.149,8.0984,8.0344,8.0258,8.0267,8.0238,7.853,7.7633,7.7578,7.6004,7.5426,7.6102,7.5181,7.3927,7.2465,7.2349,7.1688,7.0257,7.0146,7.0,6.9903,6.9889,6.9853,6.9743,6.9926,7.0293,7.1013,7.116,7.127,7.1233,7.1908,7.1725,7.044,7.077,7.0756,7.0183,7.0,7.0,7.0036,7.0734,7.1233,7.1417,7.1821,7.2041,7.1527,7.1894,7.2018,7.127,7.116,7.116,7.0903,7.0293,6.9633,6.8898,6.8788,6.8605,6.8104,6.7847,6.7851,6.7826,6.7895,6.7949,6.7826,6.8124,6.7951,6.7827,6.7557,6.7079,6.6637,6.5951,6.5243,6.4855,6.4541,6.4129,6.3876,6.3714,6.3331,6.2806,6.2155,6.1251,6.0897,6.1658,6.2371,9.984,9.9266,9.812,9.6821,9.5789,9.6515,9.6401,9.5724,9.6554,9.6439,9.5484,9.3994,9.3344,9.3229,9.193,9.1319,9.1281,9.0812,9.0392,9.0086,9.0048,8.96,8.8874,8.8797,8.8377,8.7613,8.7575,8.7231,8.6467,8.5511,8.4671,8.3945,8.3028,8.235,8.2044,8.2502,8.2722,8.2722,8.1576,8.1194,8.1251,7.8255,7.6586,7.6836,7.6374,7.5837,7.5166,7.4793,7.4331,7.3707,7.3634,7.3193,7.229,7.2679,7.2532,7.1688,7.2422,7.3303,7.4111,7.4133,7.3927,7.3472,7.3729,7.3634,7.3046,7.3252,7.3289,7.2863,7.1651,7.0807,7.0881,7.1541,7.2004,7.2041,7.2312,7.2386,7.2092,7.2312,7.2334,7.2041,7.2004,7.1784,7.1307,7.0587,7.0,6.9669,6.9596,6.9412,6.9119,6.8715,6.8448,6.8442,6.8231,6.8081,6.8246,6.8334,6.8408,6.8432,6.8297,6.8095,6.758,6.7272,6.6627,6.6264,6.5902,6.5452,6.5019,6.5236,6.5115,6.4327,6.3665,6.2856,6.2084,6.2694,6.3141,10.026,9.961,9.8529,9.728,9.6019,9.663,9.6401,9.5751,9.6515,9.6439,9.5598,9.4987,9.4758,9.449,9.2924,9.2045,9.1739,9.1204,9.0774,9.0621,9.0621,9.0239,8.9676,8.9676,8.937,8.8874,8.8797,8.8644,8.8301,8.6963,8.6237,8.6008,8.4976,8.4413,8.4451,8.5063,8.5358,8.5254,8.448,8.4365,8.4374,8.1225,7.9022,7.869,7.8329,7.8051,7.7777,7.7299,7.6892,7.6671,7.6529,7.5909,7.4808,7.5234,7.5014,7.4059,7.4903,7.5931,7.6717,7.679,7.6533,7.5968,7.5711,7.5454,7.5234,7.505,7.4903,7.4683,7.3289,7.2261,7.2041,7.2496,7.2789,7.2826,7.2679,7.2569,7.2789,7.2679,7.2496,7.2532,7.2422,7.2298,7.1711,7.1174,7.077,7.0513,7.044,7.0293,7.011,6.9559,6.9229,6.9192,6.8626,6.8247,6.822,6.8284,6.8346,6.8445,6.8457,6.8321,6.7917,6.7865,6.7826,6.7293,6.7167,6.7025,6.6642,6.6774,6.6286,6.4983,6.4426,6.4238,6.306,6.3753,6.4209,10.0566,10.0298,9.8758,9.765,9.6859,9.6898,9.6439,9.5751,9.6554,9.6401,9.5686,9.5522,9.5522,9.5407,9.3803,9.2618,9.193,9.1739,9.1319,9.0697,9.0621,9.0583,9.0544,9.0544,9.0506,9.0277,9.0239,8.9944,8.9256,8.8377,8.8005,8.7918,8.7661,8.7738,8.7613,8.7651,8.788,8.7651,8.6963,8.6609,8.6495,8.487,8.3257,8.2151,8.1441,8.0706,8.0105,7.9522,7.8908,7.8141,7.7747,7.7313,7.7173,7.7142,7.7142,7.7105,7.7179,7.7582,7.8332,7.8479,7.8405,7.8259,7.7582,7.6885,7.635,7.5763,7.538,7.5014,7.5014,7.4478,7.378,7.3634,7.3634,7.3597,7.301,7.301,7.356,7.3083,7.2606,7.2569,7.2532,7.2459,7.2422,7.2408,7.1908,7.1454,7.127,7.1064,7.0477,7.0183,7.0036,6.9816,6.933,6.8676,6.8253,6.8208,6.8321,6.8482,6.8518,6.8469,6.8481,6.8457,6.8358,6.8321,6.8184,6.8096,6.8185,6.7668,6.6686,6.5858,6.5632,6.5128,6.4311,6.5099,6.5484,10.0795,9.9801,9.919,9.8464,9.7689,9.7662,9.7203,9.6477,9.6745,9.6401,9.5713,9.5609,9.5609,9.556,9.4987,9.4261,9.3421,9.2351,9.1625,9.1319,9.085,9.0621,9.0621,9.0621,9.0621,9.0621,9.0621,9.043,9.0086,8.9294,8.8874,8.8759,8.8349,8.811,8.8186,8.8606,8.8874,8.8835,8.853,8.8405,8.829,8.7307,8.6472,8.5859,8.3293,8.2007,8.2246,8.1257,8.0773,8.1035,8.0858,8.0344,7.9497,7.9078,7.914,7.9601,7.9674,7.9784,8.0094,8.0131,7.9874,7.9412,7.9103,7.8772,7.8531,7.8201,7.8054,7.7944,7.7488,7.6937,7.6019,7.5102,7.4478,7.4426,7.4206,7.4111,7.4331,7.4169,7.3839,7.334,7.2863,7.2532,7.2569,7.2532,7.2386,7.2114,7.2041,7.1894,7.1637,7.1248,7.0734,7.011,6.9412,6.8673,6.8049,6.8094,6.8234,6.8408,6.8531,6.8518,6.8493,6.8493,6.8432,6.842,6.8518,6.8481,6.8358,6.8247,6.727,6.692,6.6729,6.6408,6.5728,6.6293,6.6532,10.1253,10.0183,9.961,9.8884,9.8109,9.7815,9.7241,9.6515,9.6477,9.6133,9.5675,9.5609,9.5609,9.5609,9.5609,9.5331,9.4681,9.3306,9.2351,9.1816,9.151,9.1281,9.109,9.1281,9.1395,9.1347,9.109,9.1003,9.0888,9.0135,8.9742,8.9666,8.9141,8.8912,8.8988,8.9475,8.9714,8.9742,8.9982,9.0096,9.002,8.9332,8.8912,8.8461,8.5778,8.4198,8.448,8.3429,8.2974,8.3288,8.3187,8.2559,8.1477,8.1014,8.0977,8.1337,8.1379,8.1379,8.1379,8.1415,8.1122,8.0624,8.033,8.0204,8.0167,7.9963,7.9816,7.9669,7.936,7.8699,7.8112,7.7105,7.6166,7.5454,7.505,7.5014,7.5234,7.5014,7.4625,7.4147,7.3707,7.3266,7.2936,7.2936,7.2789,7.2569,7.2532,7.2532,7.2422,7.2041,7.1541,7.0917,7.0349,6.9857,6.9466,6.9475,6.8665,6.863,6.8605,6.8605,6.8531,6.8531,6.8531,6.8531,6.8531,6.8531,6.8531,6.8531,6.8209,6.7786,6.7728,6.7531,6.7307,6.7349,6.7423,10.1853,10.1483,10.0107,9.8999,9.8185,9.7432,9.6515,9.5904,9.5675,9.5686,9.5609,9.5609,9.5609,9.5609,9.5609,9.556,9.5331,9.4605,9.3459,9.2198,9.2618,9.2504,9.1892,9.2504,9.2771,9.2695,9.2121,9.1739,9.151,9.0861,9.0506,9.0583,9.0468,9.0315,9.0583,9.0468,9.0506,9.0621,9.109,9.1548,9.1663,9.0784,9.0353,9.0277,8.8728,8.7485,8.6798,8.6175,8.5492,8.4828,8.4305,8.3672,8.2997,8.2764,8.2643,8.2153,8.215,8.215,8.2113,8.2113,8.2039,8.1856,8.1415,8.1012,8.0938,8.044,8.0073,8.0073,7.9926,7.9743,7.9743,7.9449,7.8479,7.657,7.5747,7.5637,7.5836,7.538,7.4903,7.4867,7.4735,7.4515,7.3964,7.3707,7.3487,7.301,7.2826,7.2789,7.2753,7.2569,7.2532,7.218,7.1465,7.0717,7.0907,7.102,6.9813,6.889,6.8804,6.8716,6.8568,6.8531,6.8531,6.8531,6.8531,6.8531,6.8531,6.8469,6.8334,6.8057,6.8259,6.8371,6.8146,6.7969,6.8184,10.1559,10.0986,10.0451,9.9763,9.8923,9.8082,9.723,9.6439,9.5904,9.5609,9.5609,9.5609,9.5609,9.5609,9.5609,9.5609,9.5598,9.5293,9.4605,9.3688,9.3268,9.3,9.2809,9.3,9.2771,9.2274,9.193,9.151,9.109,9.0774,9.085,9.1243,9.0888,9.0926,9.1319,9.0888,9.0621,9.0621,9.0812,9.0975,9.0965,9.0735,9.0621,9.0544,9.0048,8.9409,8.8558,8.7822,8.7339,8.6974,8.6323,8.5224,8.3892,8.3227,8.2769,8.2263,8.2186,8.2186,8.2186,8.2186,8.2186,8.215,8.1966,8.1856,8.1819,8.1599,8.1432,8.1358,8.0975,8.0608,8.0534,8.011,7.9265,7.7965,7.7598,7.7157,7.6812,7.6188,7.5799,7.5652,7.5249,7.4808,7.4625,7.4515,7.4404,7.4096,7.4023,7.3927,7.345,7.3303,7.2753,7.1945,7.1539,7.1512,7.148,7.1384,7.0615,6.9766,6.9496,6.8902,6.8679,6.8865,6.8791,6.8642,6.8642,6.8568,6.8531,6.8556,6.8469,6.8346,6.8482,6.8433,6.8309,6.8346,6.8457,10.1089,10.0566,9.9916,9.919,9.8464,9.7853,9.7165,9.6401,9.5828,9.5609,9.5609,9.5609,9.5609,9.5609,9.5609,9.5609,9.5609,9.5609,9.5331,9.4834,9.4338,9.3917,9.3726,9.3917,9.3994,9.3688,9.3382,9.2962,9.2465,9.2149,9.2111,9.2121,9.1472,9.1281,9.1663,9.1013,9.0621,9.0621,9.0899,9.1041,9.1052,9.1052,9.1052,9.1013,9.0774,9.0315,8.978,8.9294,8.8721,8.811,8.7269,8.61,8.4758,8.4046,8.3396,8.2935,8.2637,8.2497,8.2465,8.2311,8.237,8.2553,8.2627,8.2627,8.27,8.2847,8.2994,8.259,8.2207,8.1876,8.1782,8.1195,8.0367,7.958,7.8846,7.8259,7.7436,7.6848,7.6592,7.6445,7.6151,7.5711,7.5417,7.5359,7.5197,7.5014,7.4903,7.483,7.4294,7.4147,7.3413,7.2804,7.2692,7.2469,7.1913,7.1585,7.1279,7.0791,7.0337,6.9472,6.8828,6.9496,6.9719,6.9311,6.9162,6.8828,6.8753,6.9013,6.9026,6.8902,6.8791,6.8704,6.868,6.8457,6.8531,10.0566,10.0336,9.8873,9.7841,9.7089,9.6974,9.6515,9.5713,9.5609,9.5609,9.5609,9.5609,9.5609,9.5609,9.5609,9.5609,9.5609,9.5609,9.5598,9.556,9.5484,9.5216,9.4605,9.5178,9.5713,9.6057,9.5637,9.5369,9.4987,9.4288,9.4021,9.3306,9.2274,9.1854,9.1816,9.1128,9.0697,9.0697,9.1357,9.1701,9.1586,9.1586,9.1586,9.1548,9.0926,9.0544,9.0468,9.0353,8.9714,8.8339,8.7526,8.686,8.6055,8.528,8.4655,8.4018,8.3438,8.3261,8.3046,8.2923,8.2872,8.3398,8.3471,8.3454,8.3528,8.3948,8.4058,8.3544,8.3381,8.3381,8.3234,8.2774,8.1966,8.1048,7.969,7.8516,7.7656,7.7472,7.7399,7.7362,7.7326,7.7032,7.6225,7.6166,7.5836,7.5491,7.5344,7.5491,7.5234,7.5234,7.505,7.4617,7.4066,7.3519,7.2977,7.2848,7.2455,7.1572,7.1228,7.0586,6.9571,7.0054,7.0425,7.0016,6.9719,6.9348,6.9236,6.9571,6.9608,6.9422,6.9311,6.9199,6.9051,6.8902,6.8642,10.026,9.9687,9.9228,9.8235,9.7012,9.6898,9.6401,9.5675,9.5609,9.5609,9.5609,9.5609,9.5609,9.5609,9.5609,9.5609,9.5609,9.5609,9.5609,9.5713,9.6324,9.6057,9.5598,9.6133,9.6363,9.6133,9.6019,9.5609,9.5522,9.4938,9.4643,9.4834,9.2886,9.2198,9.2504,9.193,9.1204,9.0774,9.1395,9.151,9.1013,9.0975,9.0926,9.0899,9.0697,9.0621,9.0621,9.0621,9.0135,8.9103,8.8797,8.8063,8.7091,8.6653,8.6009,8.5133,8.5194,8.4937,8.4213,8.4323,8.4516,8.4292,8.4428,8.4278,8.4278,8.4479,8.4499,8.4278,8.4278,8.4278,8.4242,8.4058,8.3287,8.1966,8.0571,7.9433,7.9029,7.8626,7.8259,7.8222,7.7693,7.7326,7.6995,7.7032,7.6922,7.6812,7.7032,7.7304,7.6848,7.6518,7.6445,7.5771,7.5184,7.463,7.4205,7.4113,7.3596,7.249,7.2096,7.2059,7.1131,7.0722,7.0796,7.0611,7.0611,7.0351,7.0351,7.0574,7.0314,7.0054,7.0239,7.0276,6.9756,6.9422,6.8976,9.984,9.9354,9.8617,9.7776,9.6898,9.6515,9.6057,9.5675,9.5609,9.5609,9.5609,9.5609,9.5609,9.5609,9.5609,9.5609,9.5609,9.5609,9.5828,9.6363,9.7394,9.7432,9.7012,9.7241,9.7318,9.728,9.7176,9.7012,9.6706,9.616,9.5904,9.5293,9.3803,9.3191,9.3535,9.2771,9.193,9.1357,9.1548,9.1395,9.0659,9.0621,9.0621,9.0621,9.0621,9.0621,9.0621,9.0937,9.0861,9.0287,8.9693,8.9053,8.8683,8.7915,8.7221,8.6398,8.6618,8.6275,8.5719,8.577,8.5864,8.5862,8.5865,8.5865,8.597,8.6109,8.6264,8.5577,8.5512,8.5349,8.5063,8.4829,8.4205,8.3287,8.2039,8.0901,8.0,7.9376,7.8956,7.8662,7.8442,7.8002,7.7509,7.7876,7.806,7.8075,7.8479,7.8552,7.8442,7.8096,7.7729,7.7203,7.6412,7.5786,7.5178,7.4927,7.4546,7.3517,7.2902,7.2902,7.2555,7.1725,7.1478,7.1478,7.1478,7.1391,7.1279,7.1205,7.1106,7.1032,7.1279,7.0982,7.0314,7.0054,6.9608,9.9458,9.9266,9.77,9.6974,9.6783,9.6019,9.5675,9.5609,9.5609,9.5609,9.5609,9.5609,9.5609,9.5609,9.5789,9.5789,9.5789,9.6057,9.6592,9.7432,9.8464,9.8884,9.8682,9.8311,9.8541,9.8923,9.9316,9.8923,9.8388,9.8223,9.7318,9.6133,9.5025,9.4403,9.4174,9.3573,9.2809,9.2083,9.2007,9.1663,9.1052,9.0899,9.0899,9.0899,9.1117,9.1117,9.1232,9.1586,9.193,9.2083,9.0517,9.0266,9.0485,8.9207,8.8613,8.8415,8.8136,8.7829,8.7318,8.6968,8.7018,8.7468,8.7618,8.7742,8.7665,8.7993,8.7896,8.7011,8.6906,8.665,8.6099,8.5364,8.4893,8.4492,8.3875,8.248,8.0901,8.0073,7.9617,7.8993,7.9522,7.8919,7.8516,7.8662,7.9522,7.8846,7.936,7.969,7.9617,7.936,7.9124,7.8883,7.7956,7.6892,7.6286,7.5726,7.5222,7.4553,7.3829,7.3608,7.3683,7.3112,7.2568,7.2308,7.2308,7.2072,7.1738,7.1701,7.1812,7.1923,7.2109,7.1403,7.0611,7.0698,7.0437,9.9954,9.9305,9.8273,9.7471,9.6821,9.5992,9.5609,9.5609,9.5609,9.5609,9.5609,9.5609,9.5648,9.5686,9.6248,9.663,9.6706,9.7203,9.8044,9.8819,9.9125,10.0145,10.0401,9.9763,9.9305,9.9507,9.9431,9.961,9.9763,9.9228,9.8617,9.7498,9.6133,9.5064,9.4556,9.4403,9.3688,9.2962,9.2847,9.2389,9.1701,9.1548,9.1586,9.1663,9.216,9.2504,9.2569,9.2733,9.3153,9.3371,9.2886,9.2083,9.1701,9.1739,9.1204,9.0381,9.0432,8.9934,8.8699,8.8707,8.8834,8.8743,8.8743,8.8541,8.8541,8.8723,8.8715,8.8345,8.833,8.807,8.747,8.673,8.6169,8.5677,8.4959,8.4231,8.3414,8.1893,8.0901,8.0461,8.0131,7.9669,7.9302,7.9486,7.9816,7.969,8.0094,8.0645,8.0608,8.0461,8.0204,7.9947,7.932,7.8308,7.7658,7.6989,7.6255,7.5544,7.4832,7.4389,7.4463,7.4277,7.3645,7.3311,7.3162,7.2902,7.2704,7.2741,7.2939,7.2977,7.2828,7.2159,7.1626,7.1565,7.1069,10.0375,9.984,9.8617,9.7853,9.728,9.6133,9.5609,9.5609,9.5609,9.5609,9.5609,9.5609,9.5828,9.621,9.6706,9.7089,9.7623,9.8311,9.8923,9.9534,10.0069,10.0833,10.11,10.0909,10.0566,10.0566,10.0604,10.068,10.0413,9.9878,9.9114,9.8693,9.7394,9.6733,9.6084,9.5751,9.514,9.4376,9.3879,9.3306,9.2542,9.2427,9.2695,9.2847,9.3115,9.3229,9.365,9.3688,9.3677,9.3868,9.407,9.3879,9.3115,9.3077,9.258,9.2083,9.1614,9.1653,9.0848,9.0628,9.0725,9.0738,9.0461,9.0233,9.0082,8.9893,8.9705,8.974,8.9735,8.956,8.8943,8.8167,8.7533,8.7195,8.6499,8.5946,8.535,8.3848,8.2296,8.1893,8.1562,8.0828,8.0477,8.0587,8.0624,8.0681,8.1048,8.1562,8.1342,8.1158,8.0865,8.0598,8.0297,7.9726,7.9061,7.8305,7.7441,7.6591,7.5699,7.5392,7.528,7.502,7.4612,7.4426,7.424,7.4166,7.4017,7.4091,7.3794,7.3385,7.3088,7.2865,7.2531,7.2048,7.1478,10.0527,10.0298,9.8758,9.8032,9.7689,9.6248,9.5609,9.5609,9.5609,9.5713,9.5789,9.5789,9.6363,9.6974,9.7318,9.7776,9.8529,9.9152,9.9687,9.984,10.1062,10.1483,10.1521,10.1941,10.217,10.2082,10.1776,10.1433,10.0833,10.0145,9.9801,9.9343,9.8693,9.7994,9.7841,9.7421,9.6554,9.5713,9.4911,9.4185,9.3459,9.3306,9.3688,9.4223,9.4299,9.4299,9.472,9.4632,9.4327,9.3803,9.4911,9.5102,9.4605,9.3994,9.3382,9.3306,9.2695,9.2471,9.2439,9.2297,9.222,9.3038,9.2433,9.2002,9.1751,9.1217,9.0871,9.0812,9.0747,9.0386,9.0029,8.928,8.8835,8.856,8.81,8.7604,8.6989,8.5889,8.4679,8.303,8.2884,8.248,8.1929,8.1782,8.1746,8.1782,8.2166,8.2296,8.2113,8.1946,8.1725,8.1491,8.1249,8.1007,8.0393,7.9659,7.8782,7.8067,7.7027,7.6655,7.6395,7.6024,7.5801,7.554,7.5392,7.5243,7.502,7.4872,7.4463,7.3831,7.3534,7.346,7.3014,7.2456,7.2035,10.0222,9.9496,9.8529,9.7727,9.7012,9.6019,9.5609,9.5609,9.5609,9.6019,9.6592,9.6706,9.7089,9.7891,9.8693,9.9381,9.9878,10.0183,10.0298,10.0489,10.1521,10.2018,10.2361,10.3202,10.3393,10.2896,10.24,10.1865,10.1674,10.1521,10.0757,9.9687,9.9343,9.8999,9.8414,9.7918,9.7547,9.6859,9.5981,9.5178,9.4643,9.4365,9.4681,9.5446,9.5637,9.5981,9.6133,9.5789,9.5637,9.6172,9.5866,9.5598,9.5407,9.5216,9.4796,9.4261,9.3868,9.3612,9.3382,9.3115,9.2962,9.3038,9.3077,9.2924,9.2695,9.216,9.1702,9.149,9.1124,9.0521,8.983,8.9692,8.9299,8.8985,8.8764,8.8559,8.8354,8.7879,8.6862,8.4933,8.4563,8.4297,8.374,8.3292,8.3217,8.3153,8.3206,8.3137,8.2847,8.2806,8.2729,8.2543,8.2349,8.2073,8.1718,8.0953,8.0185,7.9739,7.8959,7.8313,7.7942,7.7361,7.699,7.6618,7.6246,7.5912,7.5763,7.5639,7.5206,7.4612,7.4351,7.4128,7.3831,7.3497,7.3274,10.0107,9.9343,9.8464,9.765,9.6821,9.5981,9.5609,9.5609,9.5637,9.6095,9.6706,9.6936,9.7623,9.8617,9.9152,9.984,10.0413,10.0604,10.0604,10.0833,10.1903,10.2132,10.2361,10.3546,10.3431,10.2858,10.2476,10.2285,10.1979,10.2361,10.175,10.1024,10.068,10.026,9.9458,9.8999,9.8617,9.8006,9.7356,9.6745,9.6237,9.5969,9.6133,9.663,9.6515,9.6668,9.728,9.6745,9.6706,9.7241,9.7115,9.6706,9.6401,9.621,9.5904,9.5178,9.467,9.4518,9.4376,9.4414,9.4414,9.4414,9.4376,9.4146,9.3688,9.3038,9.2542,9.2351,9.2236,9.1577,9.0963,9.0472,9.0052,8.9811,8.974,8.9604,8.9363,8.9299,8.826,8.687,8.6527,8.6118,8.544,8.5023,8.4795,8.4594,8.44,8.4093,8.3783,8.3786,8.3872,8.3377,8.3143,8.2874,8.2542,8.1865,8.1374,8.104,8.0482,7.9837,7.9242,7.8587,7.7993,7.751,7.7138,7.699,7.6581,7.6469,7.5949,7.5466,7.5243,7.5057,7.4834,7.4612,7.4314,10.0145,9.9354,9.8655,9.7891,9.7089,9.621,9.5904,9.5828,9.5675,9.621,9.7089,9.7241,9.812,9.9305,9.9725,10.0031,10.0604,10.0604,10.0604,10.0909,10.2018,10.2094,10.1903,10.2591,10.3393,10.2361,10.2743,10.2743,10.217,10.24,10.24,10.1865,10.1815,10.175,10.1062,10.068,10.0157,9.9496,9.9266,9.8796,9.8262,9.7967,9.7662,9.8071,9.6974,9.7241,9.8453,9.7662,9.7815,9.8223,9.8223,9.7765,9.728,9.7127,9.6821,9.6133,9.5331,9.5369,9.5637,9.6095,9.6095,9.6095,9.6095,9.5751,9.5178,9.4452,9.3497,9.3229,9.3,9.2733,9.2019,9.1489,9.1086,9.0873,9.0945,9.0912,9.0456,9.0214,9.0143,8.9199,8.8605,8.7888,8.714,8.6504,8.6184,8.6311,8.613,8.5661,8.5348,8.5156,8.5016,8.4299,8.3876,8.3603,8.3173,8.2623,8.2266,8.2117,8.1411,8.0691,8.0171,7.9665,7.9108,7.855,7.881,7.8625,7.7993,7.725,7.6841,7.6469,7.6209,7.5838,7.5429,7.5318,7.5132,10.0145,9.9393,9.9266,9.877,9.788,9.7089,9.6745,9.663,9.6019,9.6515,9.7956,9.8032,9.8884,10.0069,10.0375,10.0489,10.0566,10.0604,10.0604,10.0795,10.1674,10.2018,10.1826,10.2743,10.2743,10.2018,10.2667,10.2629,10.2094,10.2044,10.2044,10.1853,10.1967,10.2056,10.2132,10.2018,10.1941,10.0871,10.1012,10.063,9.9572,9.9687,9.919,9.8655,9.8502,9.8961,9.9534,9.8732,9.8644,9.9801,9.8835,9.8147,9.7956,9.7956,9.7918,9.7612,9.7127,9.6668,9.6859,9.7318,9.7536,9.7547,9.7662,9.7727,9.6886,9.5866,9.4643,9.3191,9.3153,9.3191,9.3,9.2809,9.2389,9.216,9.2111,9.2034,9.1675,9.1351,9.1221,9.0966,9.0248,8.9516,8.8764,8.8125,8.7557,8.7792,8.7825,8.7314,8.6696,8.6331,8.6106,8.5382,8.4932,8.4662,8.4166,8.3541,8.3115,8.3057,8.2332,8.1537,8.0988,8.052,8.0111,7.9776,7.9999,7.9776,7.8922,7.8253,7.7807,7.7435,7.7138,7.6544,7.5875,7.5838,7.6061,10.0107,9.9393,9.9393,9.8884,9.8109,9.7727,9.7574,9.7498,9.7192,9.77,9.8693,9.8846,9.9496,10.0451,10.0604,10.0604,10.0604,10.0642,10.0604,10.0795,10.1444,10.1674,10.1559,10.24,10.2552,10.175,10.1865,10.1903,10.1624,10.2018,10.2285,10.1444,10.2056,10.2132,10.2247,10.2285,10.1979,10.1585,10.1585,10.1509,10.0871,10.026,9.9801,9.9484,9.9037,9.9305,9.961,9.9419,9.9381,10.0298,9.9725,9.9305,9.8961,9.8808,9.8693,9.8109,9.8311,9.8044,9.7776,9.8426,9.8502,9.8376,9.8464,9.8388,9.7585,9.6821,9.5904,9.4681,9.4108,9.3917,9.3726,9.3382,9.3,9.2847,9.3038,9.2886,9.2733,9.2618,9.24,9.2138,9.1784,9.0859,9.0196,8.9906,8.9288,8.9034,8.899,8.8637,8.7708,8.682,8.664,8.6443,8.609,8.5837,8.5269,8.4689,8.3975,8.3699,8.3155,8.2419,8.176,8.1263,8.1061,8.0684,8.0488,8.0153,7.967,7.9219,7.8787,7.8453,7.8104,7.7652,7.7274,7.7213,7.7338,10.026,9.9687,9.9687,9.9305,9.872,9.8529,9.8426,9.8414,9.8109,9.8541,9.9266,9.961,10.0031,10.0489,10.0604,10.0718,10.0948,10.0909,10.11,10.1406,10.1597,10.1712,10.175,10.2361,10.1941,10.0909,10.133,10.1253,10.1253,10.1597,10.175,10.0986,10.2094,10.2285,10.1826,10.2018,10.2285,10.2285,10.1979,10.1853,10.1585,10.0718,10.0451,10.0183,9.9752,9.9331,9.9916,10.0375,10.0833,10.1139,10.1024,10.0566,10.0183,9.984,9.9534,9.9152,9.9343,9.9343,9.9114,9.9305,9.9266,9.919,9.9075,9.919,9.8006,9.7509,9.7165,9.6286,9.5522,9.5178,9.4872,9.4338,9.3803,9.3726,9.3726,9.3573,9.3497,9.3459,9.3306,9.3038,9.258,9.1816,9.1362,9.1453,9.1081,9.0504,9.0145,8.9866,8.8872,8.765,8.7015,8.6848,8.6422,8.6073,8.5508,8.5046,8.4607,8.4327,8.3767,8.3284,8.2617,8.2508,8.2491,8.1995,8.1428,8.1794,8.2083,8.0926,7.9833,7.9667,7.9503,7.9237,7.8973,7.8827,7.8471,10.0566,10.0527,10.0489,10.0413,10.0298,9.961,9.9305,9.9228,9.8502,9.8732,9.9572,10.0145,10.0566,10.0642,10.0757,10.1062,10.17,10.1776,10.2018,10.2247,10.2361,10.2285,10.2285,10.1941,10.1444,10.1597,10.1483,10.0986,10.068,10.0948,10.1406,10.1776,10.2056,10.2476,10.2514,10.2438,10.2552,10.2476,10.2132,10.1891,10.1853,10.1483,10.1215,10.0909,10.1242,10.1662,10.17,10.2056,10.217,10.2323,10.175,10.1433,10.0986,10.0604,10.0183,10.0145,10.0145,10.0183,10.0145,10.0145,10.0375,10.0413,10.0298,9.9954,9.8923,9.9087,9.8732,9.7853,9.6974,9.663,9.6363,9.5981,9.5064,9.4567,9.449,9.4529,9.4414,9.4338,9.4174,9.3868,9.3371,9.2695,9.2504,9.2584,9.1929,9.1252,9.1286,9.1005,8.9923,8.8717,8.7622,8.7034,8.6517,8.5937,8.5209,8.4965,8.5283,8.4935,8.4354,8.3939,8.3431,8.3519,8.3589,8.3487,8.3075,8.3773,8.406,8.2598,8.1526,8.1204,8.0918,8.0518,8.0179,7.9939,7.942,10.0604,10.0604,10.0604,10.0604,10.0566,10.026,10.0145,10.0107,9.9801,9.979,10.0183,10.0986,10.11,10.0871,10.1165,10.1203,10.1127,10.11,10.1712,10.2082,10.212,10.2438,10.2552,10.2629,10.2438,10.2438,10.1865,10.175,10.217,10.1215,10.1215,10.1624,10.1853,10.1635,10.1826,10.2132,10.2094,10.1865,10.1826,10.1891,10.1776,10.1356,10.1177,10.1509,10.1585,10.1547,10.128,10.1941,10.1941,10.1788,10.1444,10.1406,10.1444,10.0986,10.0795,10.0718,10.0718,10.068,10.0642,10.0642,10.0604,10.0604,10.0527,10.0298,9.9572,9.9419,9.9305,9.8693,9.8109,9.77,9.7498,9.6859,9.6095,9.5522,9.5293,9.5369,9.5216,9.5025,9.4949,9.4643,9.4212,9.3726,9.3688,9.3704,9.2853,9.2051,9.2132,9.1956,9.0786,8.9554,8.8337,8.7504,8.7022,8.6762,8.6093,8.6077,8.6164,8.56,8.5007,8.4817,8.454,8.4256,8.433,8.4408,8.4548,8.4787,8.4597,8.3837,8.3211,8.2716,8.2184,8.1618,8.1335,8.1015,8.058,10.0604,10.0604,10.0604,10.0604,10.0604,10.0604,10.0604,10.0604,10.0566,10.0795,10.1024,10.1406,10.1406,10.1165,10.1215,10.1471,10.1139,10.1203,10.1635,10.1967,10.2209,10.2629,10.2973,10.2896,10.24,10.2973,10.2514,10.2247,10.2896,10.1635,10.1521,10.1662,10.1585,10.1139,10.1024,10.11,10.1165,10.0948,10.1089,10.1509,10.1356,10.1012,10.0783,10.1433,10.1662,10.17,10.1547,10.2018,10.24,10.2132,10.1865,10.1674,10.1635,10.1559,10.1406,10.1292,10.1139,10.1024,10.0948,10.0718,10.0604,10.0604,10.0604,10.0298,9.9916,9.9763,9.9801,9.9725,9.8999,9.8464,9.8414,9.7738,9.6898,9.6286,9.6057,9.6057,9.5637,9.5407,9.5446,9.5369,9.4834,9.4185,9.4206,9.4217,9.4146,9.3266,9.2894,9.2518,9.1471,9.0119,8.8707,8.8052,8.7657,8.75,8.7359,8.6811,8.6317,8.649,8.601,8.6016,8.5782,8.5518,8.5757,8.633,8.635,8.588,8.5571,8.5353,8.48,8.416,8.3639,8.3134,8.2304,8.2004,8.1919,10.0604,10.0604,10.0604,10.0604,10.0604,10.0604,10.0604,10.0642,10.0718,10.1051,10.1509,10.1177,10.1215,10.1483,10.1177,10.1177,10.1444,10.1597,10.2056,10.2476,10.2197,10.2935,10.2973,10.2667,10.2476,10.3546,10.3049,10.2591,10.3278,10.217,10.1903,10.1662,10.1356,10.0757,10.0642,10.0604,10.0604,10.0642,10.068,10.0757,10.0757,10.068,10.0718,10.0909,10.1547,10.1738,10.1585,10.2209,10.2629,10.2705,10.2591,10.2705,10.3164,10.2935,10.282,10.282,10.2209,10.1903,10.1776,10.1062,10.0718,10.0718,10.0795,10.0489,10.0489,10.0489,10.0413,10.0222,9.9763,9.9343,9.9037,9.8579,9.7738,9.7127,9.6936,9.663,9.621,9.5904,9.5981,9.5675,9.4987,9.4414,9.4458,9.4615,9.5013,9.4662,9.3973,9.3108,9.2152,9.0826,8.9356,8.8688,8.8286,8.7709,8.7401,8.6824,8.6526,8.6782,8.703,8.707,8.7205,8.713,8.7549,8.8212,8.7854,8.7179,8.7136,8.718,8.6104,8.5082,8.5177,8.4727,8.376,8.3127,8.3105,10.0604,10.0604,10.0604,10.0604,10.0604,10.0604,10.0604,10.0718,10.1139,10.133,10.133,10.1788,10.1674,10.1368,10.1444,10.1368,10.1139,10.1062,10.1521,10.2247,10.1967,10.2629,10.2858,10.2782,10.2667,10.324,10.2935,10.3087,10.4004,10.2705,10.2438,10.2285,10.1253,10.068,10.0604,10.0604,10.0604,10.0604,10.0604,10.0604,10.0604,10.0604,10.0604,10.0604,10.1433,10.1624,10.128,10.2094,10.2361,10.2476,10.2285,10.2667,10.3087,10.2858,10.3202,10.3202,10.2743,10.2476,10.1903,10.1215,10.0948,10.1051,10.0898,10.0604,10.0604,10.0604,10.0604,10.0566,10.0298,9.9878,9.9381,9.919,9.8579,9.7918,9.7612,9.7241,9.6859,9.663,9.6439,9.5866,9.5216,9.5102,9.5124,9.5079,9.5383,9.534,9.4623,9.4031,9.316,9.1681,9.0239,8.9504,8.8902,8.8094,8.7478,8.744,8.744,8.7731,8.8,8.8149,8.8299,8.8517,8.8585,8.8812,8.8645,8.8449,8.791,8.7325,8.659,8.5979,8.5813,8.5748,8.506,8.4609,8.4586,10.0604,10.0642,10.0936,10.086,10.0642,10.0604,10.0604,10.0757,10.1521,10.1712,10.1826,10.2755,10.2858,10.2247,10.2094,10.217,10.1483,10.1177,10.1165,10.1815,10.1509,10.2018,10.2438,10.2591,10.2514,10.2896,10.3252,10.3481,10.3775,10.2896,10.2285,10.1826,10.1215,10.0718,10.0604,10.0604,10.0604,10.0604,10.0604,10.0604,10.0604,10.0604,10.0604,10.0757,10.1051,10.128,10.1215,10.1292,10.1471,10.1444,10.1712,10.2094,10.24,10.282,10.3202,10.3202,10.282,10.2476,10.1826,10.11,10.1062,10.17,10.1051,10.068,10.0604,10.0604,10.0604,10.0604,10.0604,10.0336,9.9916,9.9763,9.9419,9.8758,9.8185,9.7815,9.7089,9.6859,9.6363,9.5789,9.5598,9.5598,9.5632,9.5685,9.5752,9.5517,9.5242,9.4648,9.3937,9.2371,9.1227,9.0743,8.9902,8.9133,8.8748,8.8679,8.8709,8.8748,8.8902,8.9103,8.9402,8.9594,8.9479,8.9487,8.9594,8.9286,8.8064,8.7239,8.6445,8.6099,8.6035,8.6043,8.6094,8.5863,8.5508,10.0566,10.0718,10.1509,10.1318,10.068,10.0604,10.0604,10.0745,10.1597,10.24,10.3126,10.3176,10.3393,10.389,10.3431,10.3061,10.287,10.2209,10.2094,10.1853,10.1635,10.1788,10.1624,10.1483,10.1903,10.2629,10.3087,10.3126,10.329,10.3278,10.2476,10.1139,10.0757,10.0604,10.0604,10.0604,10.0604,10.0604,10.0604,10.0604,10.0604,10.0604,10.0604,10.068,10.0757,10.11,10.11,10.1127,10.1597,10.1903,10.2247,10.2552,10.2858,10.3214,10.324,10.3049,10.2552,10.2094,10.1776,10.1062,10.0986,10.1433,10.1024,10.0718,10.0604,10.0604,10.0604,10.0604,10.0604,10.0604,10.0489,10.0336,10.0145,9.9496,9.8808,9.8082,9.7203,9.663,9.6095,9.5751,9.5637,9.5621,9.5675,9.5783,9.5841,9.5702,9.5425,9.5041,9.4203,9.2704,9.1867,9.2183,9.1325,9.0325,8.9988,8.9795,8.9825,8.9825,8.9787,8.9949,9.0287,9.047,9.0325,9.0364,9.071,9.0094,8.8248,8.7094,8.6278,8.6094,8.6094,8.6094,8.6094,8.6094,8.5901,10.0069,10.0642,10.0871,10.0833,10.0642,10.0604,10.0898,10.1597,10.2438,10.3023,10.3202,10.3813,10.4004,10.3508,10.329,10.3278,10.3164,10.2973,10.2858,10.2629,10.2361,10.217,10.1929,10.1662,10.1597,10.1674,10.2132,10.2973,10.3813,10.3966,10.2705,10.0986,10.0757,10.068,10.0604,10.0604,10.0604,10.0604,10.0604,10.0604,10.0604,10.0604,10.0604,10.0604,10.0604,10.0871,10.0833,10.0833,10.1139,10.1177,10.1776,10.2285,10.3087,10.3699,10.4043,10.389,10.2896,10.1891,10.1738,10.11,10.0795,10.1051,10.0757,10.068,10.0604,10.0642,10.0642,10.0604,10.0604,10.0604,10.0604,10.0489,10.0451,10.0069,9.9458,9.8808,9.7929,9.7165,9.6592,9.5713,9.5609,9.5653,9.5697,9.5787,9.5872,9.579,9.5531,9.5068,9.4373,9.2864,9.2402,9.2749,9.1941,9.0748,9.0825,9.0748,9.0864,9.0941,9.0748,9.0633,9.0748,9.0893,9.097,9.0787,9.0402,8.9363,8.794,8.694,8.6132,8.6094,8.6094,8.6094,8.6094,8.6094,8.6094,9.9687,10.0183,10.0871,10.1089,10.1062,10.0745,10.11,10.1941,10.282,10.3317,10.3737,10.4539,10.4654,10.4348,10.431,10.4272,10.4234,10.3852,10.366,10.3622,10.3405,10.2896,10.2514,10.24,10.2247,10.1979,10.2132,10.3011,10.3813,10.3813,10.2743,10.1406,10.1089,10.0871,10.0718,10.0604,10.0604,10.0604,10.0604,10.0604,10.0604,10.0604,10.0604,10.0604,10.0604,10.0604,10.0604,10.0604,10.0604,10.0604,10.1242,10.1788,10.2629,10.3393,10.3546,10.324,10.2552,10.1929,10.1738,10.1089,10.0898,10.0898,10.0795,10.0871,10.0871,10.0909,10.0718,10.0604,10.0604,10.0604,10.0604,10.0604,10.0566,10.0527,10.0069,9.961,9.8808,9.8006,9.7012,9.5904,9.5632,9.5675,9.5751,9.5839,9.5672,9.531,9.4772,9.4183,9.3719,9.2903,9.2749,9.3172,9.2095,9.0932,9.1248,9.1595,9.1518,9.1441,9.1287,9.121,9.1278,9.1086,9.097,9.0325,8.9594,8.8594,8.7671,8.6786,8.6094,8.6094,8.6094,8.6132,8.6132,8.6094,8.6094,9.9278,9.9572,10.1139,10.1662,10.1662,10.0898,10.11,10.1929,10.2705,10.3546,10.4386,10.5303,10.5559,10.5303,10.5303,10.538,10.5151,10.4769,10.4539,10.4463,10.4043,10.3584,10.3355,10.324,10.3011,10.3126,10.3202,10.3126,10.3329,10.3852,10.3966,10.2082,10.2006,10.1597,10.0718,10.0604,10.0604,10.0604,10.0604,10.0604,10.0604,10.0604,10.0604,10.0604,10.0604,10.0604,10.0604,10.0604,10.0604,10.0604,10.0757,10.1139,10.1979,10.2591,10.2552,10.2247,10.1853,10.1662,10.1547,10.1127,10.1177,10.1177,10.1177,10.11,10.1062,10.0909,10.068,10.0604,10.0604,10.0604,10.0604,10.0604,10.0604,10.0527,10.026,9.9801,9.919,9.817,9.6996,9.609,9.579,9.5844,9.5943,9.6056,9.6433,9.5464,9.5021,9.4394,9.3412,9.2979,9.2787,9.3172,9.2095,9.124,9.2018,9.221,9.1979,9.1864,9.171,9.1441,9.1287,9.1047,9.0855,9.0171,8.9402,8.8479,8.7594,8.6748,8.617,8.6094,8.6132,8.617,8.617,8.6217,8.6126,9.8235,9.9469,10.0489,10.0898,10.0909,10.0718,10.11,10.1891,10.2082,10.3049,10.4386,10.5227,10.5635,10.5559,10.5635,10.5686,10.5571,10.5418,10.5418,10.5303,10.496,10.4463,10.4234,10.4119,10.3852,10.3355,10.3202,10.3431,10.3711,10.4845,10.5074,10.24,10.2438,10.2247,10.0833,10.0718,10.0718,10.0604,10.0604,10.0604,10.0604,10.0604,10.0604,10.0604,10.0604,10.0604,10.0604,10.0604,10.0604,10.0604,10.0604,10.11,10.1865,10.2132,10.2132,10.1865,10.1444,10.1368,10.1203,10.1242,10.1368,10.1292,10.1215,10.1139,10.1024,10.0757,10.0604,10.0604,10.0604,10.0604,10.0604,10.0604,10.0566,10.0489,10.0413,9.9916,9.9458,9.8296,9.7019,9.6555,9.6139,9.6093,9.6189,9.6394,9.6808,9.6905,9.6866,9.6211,9.4604,9.3681,9.2479,9.2479,9.1864,9.1518,9.2249,9.2441,9.2018,9.2018,9.1941,9.1633,9.1287,9.1133,9.0902,9.0094,8.9248,8.8479,8.7671,8.6748,8.6286,8.617,8.6363,8.6478,8.6588,8.6682,8.6406,9.7432,9.8388,9.9572,10.0298,10.0566,10.0604,10.0909,10.1318,10.17,10.2388,10.3431,10.4501,10.5112,10.5253,10.5495,10.5686,10.5686,10.5686,10.5609,10.5647,10.5724,10.538,10.51,10.496,10.4807,10.4386,10.431,10.4425,10.4272,10.5189,10.5189,10.3317,10.3431,10.2935,10.1394,10.1127,10.0986,10.0604,10.068,10.068,10.068,10.0642,10.0604,10.0604,10.0604,10.0604,10.0604,10.0604,10.0604,10.0795,10.0986,10.0986,10.1712,10.2552,10.2579,10.2209,10.1826,10.1597,10.1356,10.1318,10.1597,10.1674,10.1139,10.1024,10.1865,10.1635,10.068,10.0604,10.0604,10.0604,10.0604,10.0604,10.0604,10.0527,10.0451,10.0145,9.9649,9.8896,9.8035,9.7528,9.7084,9.6661,9.6631,9.6299,9.652,9.5943,9.6288,9.6211,9.4951,9.4181,9.3018,9.2095,9.1672,9.1325,9.1633,9.1825,9.171,9.1825,9.2018,9.1672,9.1201,9.1171,9.0941,9.021,8.9479,8.8709,8.7863,8.7017,8.6401,8.6201,8.6517,8.6863,8.6981,8.7107,8.6932,9.705,9.7432,9.8923,9.9954,10.0527,10.0604,10.0604,10.0757,10.1406,10.17,10.1967,10.3393,10.4043,10.4654,10.5265,10.5533,10.5686,10.5686,10.5686,10.5915,10.5953,10.5915,10.5915,10.5826,10.5609,10.5609,10.5571,10.5112,10.4692,10.5838,10.6144,10.4807,10.4195,10.3737,10.2552,10.1979,10.1788,10.1444,10.1292,10.1139,10.0909,10.068,10.0604,10.0604,10.0604,10.0604,10.0604,10.0604,10.0604,10.0795,10.11,10.1062,10.1292,10.2094,10.217,10.1903,10.1903,10.1865,10.1853,10.1559,10.2132,10.2323,10.1444,10.1559,10.2514,10.2056,10.11,10.0757,10.0757,10.0604,10.0604,10.0604,10.0604,10.0566,10.0489,10.0413,9.9916,9.9442,9.8948,9.8424,9.7963,9.7462,9.717,9.6799,9.6271,9.5615,9.5104,9.4681,9.4364,9.4143,9.348,9.2595,9.1979,9.171,9.1402,9.1364,9.1441,9.1441,9.1556,9.1317,9.1201,9.1171,9.097,9.0432,8.9701,8.8902,8.8248,8.7478,8.694,8.6401,8.6748,8.7179,8.7443,8.7539,8.7565,9.77,9.8999,9.9954,10.0451,10.0604,10.0604,10.0604,10.0604,10.0757,10.0821,10.1203,10.1929,10.3011,10.4425,10.5342,10.5686,10.5686,10.5724,10.6182,10.6603,10.6373,10.6488,10.6526,10.6259,10.6182,10.6068,10.6068,10.6068,10.5418,10.6526,10.6526,10.4654,10.5227,10.4577,10.324,10.2858,10.2782,10.2438,10.24,10.24,10.2094,10.1635,10.068,10.0604,10.0604,10.0604,10.0604,10.0604,10.0604,10.068,10.0821,10.086,10.1177,10.1521,10.1559,10.1674,10.1674,10.1826,10.175,10.2132,10.2858,10.3164,10.2629,10.2896,10.3126,10.2476,10.175,10.1394,10.1242,10.0757,10.068,10.0604,10.0604,10.0604,10.0527,10.0527,10.0298,9.992,9.9474,9.9113,9.8797,9.8506,9.8394,9.8087,9.7818,9.7182,9.6634,9.6172,9.5441,9.4711,9.3912,9.3249,9.2518,9.1825,9.1402,9.124,9.1278,9.1201,9.1201,9.1201,9.1201,9.1201,9.0932,9.0624,8.9863,8.9017,8.8372,8.8132,8.7363,8.694,8.7132,8.7418,8.7798,8.794,8.7935]}]]